ECMWFNIL_con_mucape_000.txt.gz
CAPE
0 0 0 0 0 8 188 6 0 0 0 0 0 11 137 164 168 87 119 394 532 232 258 304 446 556 736 690 645 749 829 787 777 712 849 845 578 623 607 441 320 424
0 3 77 0 99 144 0 1 0 0 0 12 0 6 0 149 126 140 140 522 451 168 116 184 202 224 167 283 374 560 650 663 692 821 895 880 640 620 646 231 170 475
0 8 0 0 2 0 0 0 0 0 0 0 0 0 0 216 105 64 62 143 76 42 33 59 92 165 265 336 379 614 647 633 660 749 886 892 725 799 751 460 357 282
0 0 0 0 0 0 0 0 0 0 0 0 0 6 92 112 106 40 85 754 134 90 128 148 228 243 180 158 244 567 618 652 690 652 722 894 854 639 496 366 472 371
0 0 0 0 0 0 0 0 0 0 0 0 0 2 120 125 129 2 2 60 207 160 139 437 307 148 235 362 555 594 546 616 662 684 722 825 412 390 537 557 600 498
0 0 0 0 0 0 0 0 0 0 0 0 0 69 73 12 0 67 142 115 72 92 70 14 16 32 76 174 212 184 196 337 522 824 883 776 734 487 652 808 828 690
5 0 0 0 0 0 0 0 0 1 0 0 1 24 98 91 109 109 64 38 23 94 104 380 22 179 444 366 263 284 181 185 536 872 738 568 573 658 658 836 825 673
25 12 4 7 5 0 0 0 0 0 0 0 0 0 9 22 4 0 14 17 79 108 80 84 104 458 401 97 144 119 143 408 547 707 720 645 613 653 680 611 678 653
342 253 272 172 39 12 1 0 0 4 14 25 14 1 0 0 2 8 12 33 36 41 52 63 149 6 6 35 88 345 485 588 634 597 647 625 596 602 646 781 784 705
253 287 366 309 39 33 52 26 55 44 107 62 28 2 1 55 71 40 51 52 52 347 398 356 0 0 4 11 50 198 395 581 597 508 473 410 332 358 576 770 834 733
316 254 325 378 138 88 94 252 361 350 275 366 384 80 50 37 112 129 87 72 85 326 135 0 0 0 1 14 185 468 611 632 586 588 572 399 316 361 384 444 466 520
328 504 485 449 108 186 258 402 418 438 458 483 473 484 498 458 31 17 80 4 0 0 0 4 6 0 0 6 316 518 600 634 704 688 422 326 514 713 779 754 690 646
605 598 621 506 430 268 426 550 583 630 666 709 744 616 423 131 114 0 0 0 1 1 0 0 0 0 304 333 372 407 497 606 580 345 356 479 672 784 777 660 592 691
723 666 525 371 437 530 619 721 756 750 758 752 700 0 0 0 0 0 0 3 0 0 0 23 172 272 186 190 351 452 533 588 445 413 483 505 498 492 474 400 462 602
446 690 675 638 678 738 767 792 800 817 798 804 588 0 0 0 0 0 0 0 11 42 458 413 1 54 276 433 444 494 526 438 465 563 580 556 562 554 540 475 339 305
777 887 899 794 815 850 874 816 807 755 689 592 331 30 30 48 4 6 17 47 102 442 492 456 36 158 382 354 270 255 168 244 455 597 697 737 739 717 672 645 539 376
418 770 913 810 775 757 693 631 592 562 548 568 513 74 82 90 178 63 84 158 367 556 650 434 273 305 235 156 96 121 202 136 158 197 255 363 458 532 605 641 470 296
345 688 828 749 609 639 714 671 657 651 686 651 548 386 120 188 293 430 464 498 599 696 664 523 294 103 75 53 26 6 38 36 21 31 86 137 196 217 226 272 334 392
234 601 743 709 636 705 742 782 761 731 623 538 489 172 252 420 485 515 581 642 701 788 799 622 434 208 0 0 0 12 24 0 0 0 34 58 69 97 146 187 247 405
542 662 974 799 632 673 737 759 734 580 464 291 237 337 461 510 578 644 661 706 765 819 835 687 504 219 20 0 19 28 0 0 0 0 42 37 32 63 86 134 240 437
527 924 1184 976 776 700 692 671 658 607 542 380 301 501 546 613 650 678 722 728 815 763 746 823 628 328 121 118 62 0 0 0 0 0 34 85 100 68 92 195 394 596
532 1577 1788 1323 938 826 738 738 735 737 642 563 509 471 477 548 663 731 814 865 752 646 640 394 642 407 313 29 0 0 0 0 0 0 22 98 94 148 274 474 573 579
744 1386 1570 1288 1079 888 853 812 819 762 610 502 458 446 479 571 676 803 825 716 468 232 332 639 590 322 90 0 0 0 0 0 0 0 0 10 107 332 504 428 304 288
1106 1381 1086 862 992 922 871 814 685 604 571 538 523 560 667 858 860 696 577 464 489 609 778 708 481 251 103 0 0 0 0 0 0 0 0 102 367 264 19 0 38 193
722 504 553 833 834 776 740 650 617 635 636 666 685 691 777 874 718 658 502 118 138 516 540 538 336 112 48 0 0 0 0 0 0 0 96 128 1 0 0 0 0 0
142 122 306 600 700 675 661 682 700 706 736 774 789 858 871 778 814 979 807 645 508 426 424 334 134 65 33 0 0 0 0 0 0 3 2 0 0 0 0 0 0 0

ECMWFNIL_con_mucape_003.txt.gz
CAPE
891 689 411 0 0 0 0 0 0 1 0 0 0 0 68 20 52 4 7 14 53 6 47 38 134 289 507 384 312 314 342 372 424 384 335 418 456 76 444 262 1 6
1002 934 16 0 0 34 0 0 0 0 0 0 0 0 2 10 5 0 1 34 312 100 1 5 26 37 8 10 2 18 28 95 340 417 222 146 451 376 207 16 0 0
1180 948 0 0 0 0 0 0 0 0 0 0 0 0 0 1 0 0 0 18 86 123 0 0 0 8 10 4 8 50 138 102 97 73 318 261 445 440 417 358 269 24
1355 623 0 0 0 0 0 0 0 0 0 0 0 0 0 1 4 0 2 636 23 14 0 0 0 0 9 13 10 10 10 19 42 86 228 388 417 434 232 194 348 252
1515 416 0 0 0 0 0 0 0 0 0 0 0 0 2 9 12 0 0 6 25 2 0 2 1 7 5 0 0 21 19 53 14 10 16 38 324 401 331 199 227 266
1601 180 0 0 0 0 0 0 0 0 0 0 0 0 0 0 0 0 0 0 0 4 2 0 0 0 0 0 0 2 1 0 0 6 62 260 322 368 380 314 228 184
1524 63 0 0 0 0 0 0 0 0 0 0 0 0 0 0 0 0 0 0 0 4 0 0 0 0 0 0 112 96 0 0 0 4 84 330 436 476 386 309 316 338
1262 0 0 0 0 0 0 0 0 0 0 0 0 0 0 0 0 0 2 0 0 0 0 0 0 0 0 0 0 0 0 0 0 8 31 309 398 428 390 353 372 413
902 0 0 0 0 0 0 172 228 236 193 0 0 0 0 0 0 0 0 0 0 0 0 0 0 0 0 0 0 0 0 0 1 4 5 150 314 320 314 316 350 430
658 98 56 0 0 0 0 0 0 0 0 0 0 0 0 0 0 0 0 0 0 0 0 0 0 0 0 0 0 0 0 0 0 0 0 4 144 264 282 244 176 220
624 280 248 227 46 239 0 0 0 0 0 0 0 0 0 0 0 0 0 0 0 0 0 0 0 0 0 0 0 0 0 0 0 0 0 0 221 280 269 168 152 195
576 308 284 259 147 267 126 0 1 1 1 28 0 0 0 0 0 0 12 0 0 0 0 0 0 0 0 0 0 0 0 0 0 1 0 86 293 287 194 187 225 290
622 473 381 366 254 309 212 20 355 60 72 56 100 33 19 6 0 0 14 6 0 0 0 0 0 0 0 0 0 0 0 0 0 0 12 242 260 190 201 287 372 423
562 511 420 416 291 309 294 261 412 116 106 72 102 89 65 54 25 113 464 0 0 0 0 0 0 0 0 0 0 0 0 0 0 0 127 174 163 188 224 240 248 250
722 495 443 406 338 316 336 374 474 252 121 85 98 137 164 122 498 582 0 0 0 0 0 0 0 0 0 0 0 0 0 0 0 88 144 134 172 238 284 306 294 280
658 493 473 416 318 332 294 409 494 384 182 107 170 198 484 578 687 51 0 0 0 0 0 0 0 0 9 0 0 10 0 0 46 46 0 45 111 138 154 163 173 188
622 465 486 386 341 303 498 548 526 444 462 505 541 559 590 667 794 487 0 0 0 0 0 0 0 0 234 277 24 22 26 0 0 0 0 6 42 54 62 84 100 94
781 497 352 273 432 508 594 656 517 500 516 531 575 632 643 759 796 426 0 0 0 0 0 0 0 204 251 336 101 0 68 15 0 0 0 0 0 24 44 50 36 22
686 390 104 0 28 221 1159 728 578 577 586 570 606 618 612 642 617 408 2 0 0 0 2 45 233 285 397 451 316 0 0 0 0 0 0 0 0 0 0 15 12 11
829 442 88 0 7 163 496 798 642 603 638 625 581 528 516 551 546 500 106 2 13 16 104 296 344 389 474 546 555 263 20 0 0 0 0 0 0 0 0 0 0 39
919 532 362 0 0 74 317 714 772 527 516 495 431 346 412 509 585 548 395 50 90 13 328 386 446 468 384 328 302 342 264 117 32 0 0 0 0 0 0 0 72 169
1021 859 516 0 0 92 321 530 836 580 460 424 398 418 473 518 546 453 76 82 8 368 393 442 517 436 346 272 232 287 385 356 80 0 0 0 0 0 0 77 157 86
1038 784 430 39 0 20 152 335 715 890 530 402 445 500 552 534 460 411 339 363 435 462 556 547 490 190 172 220 251 278 373 280 13 0 0 0 0 0 0 49 0 0
826 506 39 57 0 26 222 360 585 807 848 554 529 578 572 546 495 438 404 498 620 550 398 170 237 277 331 566 588 504 294 0 0 0 0 0 0 0 0 0 0 3
609 326 133 106 29 12 360 520 643 758 829 799 667 647 630 643 615 503 416 463 390 325 205 162 168 304 456 460 392 232 0 0 0 0 0 0 0 0 0 0 0 0
404 347 419 126 12 210 529 641 830 984 913 776 713 700 734 713 674 517 483 509 476 404 241 65 226 338 321 262 49 0 0 0 0 0 0 0 0 0 0 0 0 0

ECMWFNIL_con_mucape_006.txt.gz
CAPE
2440 2417 2253 1754 1112 354 0 0 0 0 0 0 0 0 7 40 58 23 28 0 1 0 0 0 65 59 123 41 62 72 118 34 48 0 6 75 66 36 196 306 326 140
2376 2306 1922 1531 961 289 0 0 0 0 0 0 0 0 1 33 37 25 12 0 22 0 0 0 5 18 28 51 8 10 4 49 75 187 50 40 134 19 88 225 181 33
2252 2099 1799 1466 990 303 0 0 0 0 0 0 0 0 1 24 25 3 0 0 10 11 0 0 0 3 0 0 0 10 77 49 95 48 230 202 108 79 230 252 222 161
2137 2003 1833 1572 1110 627 0 0 0 0 0 0 0 0 3 14 2 0 0 242 3 28 12 0 0 0 0 0 0 7 8 15 36 16 49 136 206 198 190 195 226 221
2114 2034 1940 1718 1159 728 0 0 0 0 0 0 0 0 16 31 0 0 0 31 4 11 3 5 0 0 0 0 0 5 0 15 6 0 11 26 53 156 219 156 139 115
2187 2072 1930 1713 1195 880 91 0 0 0 0 0 0 0 0 1 3 0 0 0 1 2 2 0 0 0 1 10 0 0 2 5 8 0 0 4 44 44 124 207 164 187
2147 1967 1880 1696 1204 1068 49 0 0 0 0 0 0 0 0 0 0 0 0 0 0 7 4 0 0 1 0 0 0 0 0 0 0 0 0 22 60 102 55 64 194 227
2080 1900 1886 1624 1298 1188 0 0 0 0 0 0 0 0 0 0 0 0 0 0 0 0 0 0 0 0 0 0 0 0 0 0 0 0 0 11 30 84 166 107 163 212
1859 1895 1827 1667 1395 1244 286 0 0 0 0 0 0 0 0 0 0 0 0 0 0 0 0 0 0 0 0 0 0 0 0 0 0 0 0 6 16 67 128 112 77 152
1593 1837 1883 1729 1430 1212 50 0 0 0 0 0 0 0 0 0 0 0 1 1 2 11 0 0 0 0 0 0 0 0 0 0 0 0 0 2 20 51 65 55 86 86
1328 1504 1806 1835 1526 1243 64 0 58 228 86 0 0 0 0 0 16 6 5 7 10 1 0 0 0 0 0 0 0 0 0 0 0 0 0 4 12 24 29 57 74 89
1182 1291 1588 1677 1477 1261 0 0 0 187 61 0 0 0 0 0 0 4 14 4 0 0 0 0 0 0 0 0 0 0 0 0 0 0 1 6 10 11 15 80 126 124
1058 1174 1377 1557 1465 1720 152 0 0 0 0 150 0 0 0 0 0 0 38 16 2 0 0 0 0 0 0 0 0 0 0 0 0 0 1 14 20 24 50 110 136 110
784 892 1178 1688 1783 1432 0 0 0 0 38 0 0 0 4 5 2 1 4 44 28 8 2 3 6 2 0 0 0 0 0 0 0 3 6 6 14 16 55 106 112 116
877 863 1192 1325 1530 985 124 0 0 0 0 0 1 7 17 18 27 20 14 20 29 18 6 120 4 2 0 0 0 0 0 1 1 3 7 18 21 17 21 21 86 108
1111 662 1230 1096 1302 596 400 59 0 0 0 0 192 27 38 58 49 44 46 40 26 324 205 0 0 0 16 0 1 27 22 38 0 0 5 26 99 104 72 40 41 42
1655 1232 757 686 925 12 13 36 0 0 0 60 205 163 104 132 158 58 71 50 232 465 0 0 0 0 0 0 0 0 37 182 242 159 6 31 62 74 62 63 52 44
2034 1856 1612 1354 989 850 339 152 42 0 0 7 154 177 120 144 165 166 194 266 449 540 0 0 0 0 0 0 0 0 8 157 259 292 67 4 12 16 20 32 48 38
2239 2145 2031 2038 1922 1624 676 448 193 48 0 157 263 336 172 115 136 148 216 329 530 688 378 0 0 0 0 0 0 0 121 168 304 393 272 106 6 0 0 2 18 31
2393 2262 2134 2015 1640 1306 969 491 338 158 48 0 67 271 308 233 206 238 286 400 575 706 612 9 15 4 57 0 0 144 200 298 408 458 466 360 186 38 24 0 0 4
2312 2238 2057 1392 976 1026 698 461 370 100 173 34 89 232 295 243 202 209 295 443 548 644 522 390 290 61 62 0 189 244 314 374 387 358 316 268 215 66 0 0 0 0
2208 2136 1871 1784 1596 1124 553 330 342 5 240 192 264 229 292 313 212 211 308 416 435 452 484 482 474 358 234 219 303 383 374 312 238 184 175 185 247 244 12 0 0 0
2007 1954 1889 1888 1369 778 705 654 484 314 72 144 267 284 318 434 350 295 330 377 417 428 457 522 545 414 316 398 312 129 73 124 237 309 332 328 297 98 1 0 0 0
1836 1790 1700 1632 1538 1105 791 621 423 101 108 126 96 224 262 320 466 362 339 339 378 428 486 518 460 376 406 278 84 37 7 192 371 368 309 212 102 18 0 0 0 0
1434 1383 1344 1298 993 654 477 2 18 12 0 16 100 221 351 460 618 690 569 395 399 443 443 411 414 426 378 267 110 0 0 298 312 252 168 102 1 0 0 0 0 0
1220 1166 1135 1037 1002 829 592 30 1 0 0 46 122 212 294 398 550 672 748 670 558 577 465 411 391 390 348 307 273 54 98 208 174 113 20 0 0 0 0 0 0 0

ECMWFNIL_con_mucape_009.txt.gz
CAPE
3351 3390 3340 2880 2811 2896 2769 2340 2039 1796 1756 1506 1298 1232 1345 1265 1429 1507 1301 1107 738 492 583 578 511 417 315 511 762 794 568 529 334 394 530 608 506 443 445 576 751 728
3132 3023 2983 2794 2895 3007 2813 2311 1946 1524 1640 1574 1300 1412 1415 1478 1368 1267 1167 894 810 528 541 379 352 286 193 91 435 442 629 608 598 604 860 892 782 638 469 562 637 896
2884 2958 2796 2706 2981 3086 2704 2226 1735 1255 1372 1313 1310 1322 1312 1294 1328 1283 1185 793 680 376 457 353 229 258 172 163 419 448 351 725 646 336 901 876 540 446 532 120 296 545
2916 2639 2487 2720 3066 2996 2473 2090 1435 1104 1130 1247 1174 1022 1035 1102 1284 1275 1186 890 624 587 375 281 128 119 334 386 696 490 340 515 230 338 511 496 646 706 516 498 397 464
2619 2426 2516 2724 3003 2766 2326 1924 1343 868 843 1004 1070 1030 1071 1115 1172 1082 1158 983 858 644 559 553 593 480 672 494 739 546 523 307 396 864 683 337 506 680 439 539 634 569
2380 2403 2460 2681 2776 2476 2254 1819 1380 987 780 846 980 934 990 1082 1065 1007 1056 882 637 378 312 337 486 445 514 593 739 634 440 285 218 953 846 577 179 374 423 627 681 799
2254 2234 2293 2381 2445 2269 2072 1763 1516 1267 742 761 972 890 931 1026 1077 1122 1166 965 579 526 446 495 757 514 757 864 944 928 1050 826 744 1060 881 646 596 418 708 1138 1176 1147
2106 2063 2091 2190 2263 2137 1972 1849 1546 1364 702 782 733 856 936 898 1155 1058 1081 976 754 904 934 783 908 1001 706 966 1034 1004 926 938 862 1149 1128 834 690 786 734 1118 1446 1426
1880 1850 1898 2065 2114 2037 1962 1900 1632 1475 618 566 471 481 661 715 882 794 998 989 817 915 1102 1023 1112 1033 1055 1144 1044 1004 730 510 507 756 856 682 577 722 697 1109 1470 1328
1895 1768 1674 1996 2141 1976 2004 1992 1850 1496 482 532 502 372 398 548 674 803 889 939 845 946 1041 1014 1148 1194 1278 1164 1188 1059 899 742 872 1189 1076 884 783 698 514 963 834 849
1756 1546 1559 1878 1830 1754 1859 2022 1925 1668 864 231 350 337 418 487 542 705 792 821 758 891 1026 1162 1197 1316 1298 1082 1040 1068 1116 945 1076 1288 1211 1136 1007 1024 1024 920 936 850
1552 1407 1285 1456 1511 1526 1764 1986 1912 1777 1072 136 236 256 295 261 422 380 521 726 745 938 1166 1312 1407 1355 1257 1150 870 986 1250 1102 1097 1230 1170 1177 1128 1161 1171 1118 992 979
1568 1250 1038 920 931 1084 1404 1675 1740 1854 1512 60 67 52 40 62 205 400 428 585 903 1074 1121 1256 1233 1146 1096 1135 1121 1352 1408 1200 1080 1130 1099 1095 1210 1112 999 1108 1086 1076
1581 1366 1180 791 678 722 1212 1542 1751 1628 1537 646 73 27 20 42 78 210 313 412 758 819 944 942 1005 1020 1072 1136 1277 1351 1314 1302 1181 1090 1047 1102 1207 1198 1113 952 1031 1063
1890 1722 1458 1090 679 754 967 1192 1522 1729 1623 494 146 68 10 8 3 30 156 370 524 566 667 742 782 883 979 1034 1102 1302 1410 1292 1232 1166 1106 1090 1209 1148 1148 1100 1086 1101
2175 2004 1799 1518 1201 194 336 592 1124 1710 1848 1053 219 39 4 0 0 0 94 237 396 474 537 609 630 724 565 222 324 1099 1498 1393 1227 1144 1116 1103 1208 1204 1109 1108 1083 1030
2312 2210 2029 1897 1756 1332 693 334 362 1426 1372 1086 202 16 1 10 112 77 44 61 102 231 350 412 518 528 237 223 309 302 598 1188 1166 1185 1128 1184 1123 1158 1117 1022 1273 1214
2352 2279 2212 2061 1889 1815 950 813 653 604 614 1134 655 143 44 50 47 58 54 83 147 262 264 236 286 241 176 334 374 293 131 560 1012 1022 1079 1067 1079 1114 1230 1114 1063 778
2369 2321 2363 2329 2327 1708 785 602 622 554 489 511 758 206 230 79 110 62 56 94 142 188 161 163 216 214 348 446 340 194 0 57 562 1042 1069 1140 1165 1249 1211 916 272 398
2404 2393 2366 2293 2245 2234 1813 1442 1135 951 763 708 595 342 255 248 220 175 129 118 136 134 144 164 214 235 438 500 290 133 126 125 351 770 948 1061 1202 1214 1054 564 396 333
2445 2383 2345 2272 2202 2121 2067 1756 1436 846 872 791 464 246 227 276 28 45 89 84 81 68 87 180 306 217 421 647 638 282 174 190 300 690 970 1170 1163 1017 685 516 338 252
2359 2314 2250 2214 2152 2056 1983 1914 1311 1266 893 787 301 44 316 266 57 56 59 130 85 166 242 259 293 339 469 676 742 497 283 277 508 926 1082 1016 885 702 411 306 203 222
2176 2124 2084 2012 1950 1884 1778 1655 1524 942 701 644 608 533 529 325 234 87 39 208 348 388 348 296 297 308 378 528 661 618 470 429 685 802 821 745 618 522 329 250 163 196
2035 1952 1908 1817 1736 1644 1491 1400 1319 1209 1103 660 506 317 314 248 44 26 360 348 414 490 384 366 496 538 493 568 589 633 580 611 805 832 865 751 570 358 232 190 134 95
1853 1782 1697 1604 1487 1326 1183 995 853 768 696 554 333 284 144 6 8 7 167 333 376 402 458 439 475 429 422 501 562 584 494 418 540 604 605 666 350 328 188 161 239 50
1601 1528 1427 1330 1227 1104 1077 957 812 740 547 34 0 0 311 582 500 470 429 554 436 413 468 588 591 502 444 518 538 500 457 430 456 278 476 726 660 367 310 198 122 72

ECMWFNIL_con_mucape_012.txt.gz
CAPE
3506 3356 3358 3405 3658 3569 3564 3552 3479 3370 3244 2775 2441 2425 2252 2297 1969 1705 1468 1130 929 742 667 635 322 269 282 282 335 320 199 250 116 160 301 243 289 218 231 202 264 254
3512 3411 3427 3468 3711 3841 4026 3864 3770 3644 3367 3219 2796 2463 2286 2214 1905 1746 1603 1186 924 822 825 625 308 268 256 154 342 330 302 208 240 178 264 375 346 205 194 175 194 202
3611 3411 3258 3374 3602 3713 3762 3900 3811 3670 3336 3112 2829 2654 2377 2098 1869 1677 1495 1150 940 691 634 572 304 275 257 165 260 298 266 268 208 63 285 388 214 154 155 54 82 71
3820 3602 3382 3314 3544 3711 3968 3869 4162 3832 3381 3036 2796 2481 2210 1865 1697 1550 1256 1011 840 610 615 545 301 279 176 98 146 160 122 246 214 182 240 371 274 164 114 91 58 46
4005 3796 3743 3602 3562 3776 3944 3909 3956 3828 3473 3006 2798 2407 2063 1772 1446 1330 1083 1040 788 737 596 555 434 223 160 124 181 215 126 164 174 179 203 203 238 238 155 118 115 66
4094 3815 3882 3588 3584 3713 3944 3866 3968 3589 3318 2671 2409 2052 1904 1716 1460 1214 1060 962 810 654 603 517 350 182 108 178 262 308 208 94 80 213 252 201 109 74 45 43 38 46
4410 3942 3580 3439 3423 3894 3845 4142 3927 3382 3092 2435 2241 2004 1702 1616 1414 1040 887 941 824 754 639 591 468 308 150 175 272 375 318 237 222 222 186 151 120 118 44 46 46 41
4407 3914 3716 3519 3748 3755 3747 4045 3656 3334 3084 2432 2372 2173 1736 1482 1426 936 769 824 791 864 798 631 544 548 275 117 270 444 406 314 261 260 313 194 144 149 157 105 86 111
4301 3871 3773 3648 3339 3447 3696 3636 3500 3434 3072 2686 2276 2000 1756 1418 1182 846 826 997 956 1005 868 716 690 644 391 196 246 448 450 252 154 201 198 197 186 183 137 108 112 130
4164 3956 3435 3207 3103 3372 3443 3286 3149 3247 2920 2543 1872 1472 1689 1399 948 930 974 1284 1032 819 980 844 740 651 462 172 290 554 542 340 246 241 194 158 184 199 161 140 95 101
4120 3602 3441 3538 3428 3242 3200 3079 2766 2558 2302 2185 1946 1758 1662 1256 1044 1330 1370 1386 1317 1088 965 941 700 601 340 167 477 634 582 390 288 186 209 236 236 197 161 160 101 91
4225 3831 3642 3376 3053 2948 2754 2491 1938 1908 1710 1963 1934 1844 1518 1052 1031 1324 1111 1179 1281 882 798 895 700 479 390 453 555 622 635 556 277 168 156 195 241 230 221 196 170 134
4188 3974 3404 2896 2717 2807 2310 1850 1600 1504 1444 1698 1857 1874 1657 1264 848 976 864 1313 1166 798 765 754 550 748 1157 1218 909 762 814 791 442 154 102 130 175 223 171 154 143 178
4157 4025 3238 2892 2583 1879 1558 1435 1309 1217 1345 1432 1695 1811 1723 1259 500 818 1053 1046 1052 896 751 693 914 1330 1477 1466 1389 1238 1082 970 844 426 144 155 252 298 243 140 118 121
4177 3121 2674 2573 2045 1824 1741 1448 1217 1000 975 1152 1382 1576 1620 1344 470 726 761 786 1014 938 913 991 1350 1178 1088 1382 1382 1347 1182 1066 824 730 437 218 202 222 247 321 337 210
3390 2946 2733 2434 2100 2041 1985 1952 1792 1323 992 944 1162 1323 1542 1432 890 633 693 547 827 774 716 679 444 378 524 714 927 1128 1178 1034 971 1032 650 250 301 404 340 288 371 399
3346 2942 2663 2257 2315 2402 2435 2464 2464 1982 1524 1046 1002 1068 1167 1316 1337 952 322 467 581 456 408 509 476 194 63 271 231 198 640 839 737 909 830 444 444 455 482 440 499 614
3169 2996 2542 2388 2458 2453 2484 2468 2485 2313 1872 1536 1190 908 786 877 1187 1200 622 390 313 202 152 170 562 44 0 30 69 56 62 366 563 744 586 354 322 326 420 599 639 555
3196 2996 2560 2460 2397 2406 2383 2352 2240 2129 1880 1438 1312 1170 958 732 823 942 901 405 374 404 269 310 594 1 0 41 46 36 33 79 282 641 677 433 412 600 322 422 1216 1504
3230 2969 2479 2449 2412 2382 2368 2326 2270 2212 2013 1712 1294 1053 968 889 770 684 724 508 479 823 868 730 394 21 29 51 54 54 59 95 260 548 806 716 554 663 550 1229 1657 2077
3484 3152 2596 2388 2318 2247 2276 2195 2152 2035 1927 1711 1510 1267 1060 947 816 802 585 778 684 756 600 255 194 146 49 42 42 54 108 154 142 150 228 522 803 1172 1169 1252 1476 1403
3479 3245 2912 2565 2241 2164 2134 2102 2020 1932 1844 1726 1642 1478 1218 1115 1082 947 796 563 716 643 227 40 105 83 84 58 69 84 98 110 181 160 166 274 750 984 1382 1240 1126 766
3477 3400 2975 2669 2236 1955 1964 1912 1944 1818 1639 1553 1466 1300 1141 993 936 865 844 628 444 337 277 242 168 130 45 63 96 136 133 83 77 98 422 551 578 904 664 1056 980 969
3562 3427 2830 2752 2501 2224 1811 1766 1740 1713 1687 1508 1412 1332 1267 1198 1114 1025 860 648 462 288 168 173 144 491 67 97 95 82 78 160 257 356 502 390 613 492 803 1380 913 708
3487 3392 2673 2732 2512 2338 2147 1911 1628 1496 1270 1199 1122 1068 1026 978 949 925 812 720 515 379 102 66 58 258 62 54 75 139 170 142 180 259 311 425 472 386 584 452 793 582
2979 2670 2572 2588 2507 2308 2113 1821 1697 1184 1180 1127 982 838 756 726 668 558 500 436 421 274 437 472 362 821 49 81 131 120 106 175 188 221 252 266 288 486 209 687 645 820

ECMWFNIL_con_mucape_015.txt.gz
CAPE
3806 3702 3395 3346 3481 3147 2983 2959 2861 2767 2620 2329 2392 2376 2132 1948 1761 1355 1149 1010 1238 1132 658 348 282 322 284 389 421 319 308 124 16 19 99 78 92 66 36 44 65 80
3823 3771 3548 3300 3380 3349 3343 3200 3177 2988 2929 2604 2387 2300 2266 2000 1820 1504 1317 824 791 657 692 533 533 516 496 414 422 276 327 141 29 14 28 94 177 72 61 72 139 133
3894 3837 3574 3338 3168 3333 3028 3210 3158 3088 2972 2543 2582 2292 2157 2013 1829 1672 1415 974 901 702 718 730 636 519 465 434 358 274 167 174 33 3 170 144 103 56 202 16 11 69
4092 3914 3644 3353 3240 3264 3262 3258 3339 3193 2819 2418 2404 2260 2079 2120 1968 1478 1459 1163 987 946 820 709 670 468 537 390 325 313 201 256 100 28 40 217 222 220 144 107 42 28
4332 4259 3911 3714 3505 3327 3529 3547 3258 3139 2830 2414 2262 2355 2573 2316 2070 1685 1353 1167 1128 1010 950 806 594 474 536 422 213 267 255 171 182 171 134 59 261 214 187 129 195 78
4493 4450 4274 3905 3513 3509 3478 3656 3881 3243 2970 1958 2132 2401 2719 2573 2232 1841 1344 1245 1036 932 542 585 639 475 403 374 222 176 139 93 74 98 54 29 9 35 36 74 140 114
4481 4652 4485 3915 3605 3674 3819 3648 3654 3618 3027 2624 2740 2727 2796 2645 2441 1818 1607 1274 1114 868 600 760 853 724 557 536 328 247 301 329 279 355 234 140 160 83 13 34 120 109
4492 4774 4580 4231 3943 3738 3768 3598 3630 3461 3591 3202 3106 3096 2923 2758 2420 1695 1617 1385 972 870 707 906 1052 624 294 269 370 404 326 244 233 254 304 506 398 133 108 72 79 155
4712 4803 4626 4345 3891 3648 3408 3419 3529 3417 3579 3272 3307 3284 2959 2700 2464 1746 1679 1606 1113 1028 975 902 1174 740 390 278 330 270 196 232 191 204 241 201 134 215 195 280 164 162
4945 4720 4420 4039 3819 3678 3354 3128 2480 3322 3137 3247 3328 3010 2694 2704 2498 2099 1682 1562 1190 982 1103 1003 880 635 551 362 359 254 298 354 308 273 224 186 223 345 334 397 343 384
4943 4592 4486 4182 3756 3271 2994 2587 2696 2950 3353 3050 3150 2818 2791 2710 2497 2242 1862 1554 1240 1035 1047 1170 754 639 532 407 396 348 388 365 434 408 320 269 342 495 291 483 456 283
4918 4467 4356 4209 3552 2926 2885 2914 2737 2779 3153 3215 3200 2744 2880 2582 2359 1993 1674 1525 1292 1122 1192 1216 876 551 684 721 428 281 370 453 484 472 321 319 299 213 297 539 375 409
4816 4599 4522 4064 3621 3091 2976 3040 2776 2334 2325 3198 3007 2786 2763 2477 2185 1996 1720 1546 1353 1308 1380 1242 574 515 1011 898 669 276 276 568 462 550 321 341 312 248 270 340 374 434
4796 4617 4648 4672 3822 3625 3572 3374 2952 2321 2244 3092 3176 2973 2521 2356 2288 2144 1839 1562 1604 1614 1479 958 783 863 997 945 724 228 491 636 650 502 277 361 253 234 214 248 258 222
5066 5016 4990 4703 4266 4146 4106 3886 3259 2853 3307 3460 3189 2763 2345 2096 2142 1960 1783 1666 1657 1642 1347 1013 892 787 873 933 416 286 718 643 514 678 476 437 372 333 463 450 273 194
5433 5268 4762 4736 4376 4267 4235 3941 3500 3530 3375 3287 3016 2688 2505 2233 2222 2032 1707 1636 1540 1538 1185 768 789 892 747 232 398 976 868 479 793 1080 884 848 861 576 492 381 235 181
5316 4999 4900 4308 4054 4323 4428 4275 3831 3610 3494 3212 2935 2734 2580 2343 1843 1754 1678 1754 1449 1423 1133 729 705 1040 299 443 661 212 423 824 902 1188 1219 1366 1206 927 649 522 483 397
4930 4830 4396 4336 4023 3864 3776 3622 3399 3287 3331 3097 2761 2299 2294 2283 2272 2047 1742 1660 1410 1430 1270 1022 1117 573 554 629 366 506 858 967 961 877 912 1028 1052 878 733 526 339 294
5023 4806 4325 4132 3594 3480 3308 3205 3168 3222 3436 3040 2776 2553 2301 2316 2346 2272 2090 1910 1512 1274 1065 1009 802 485 589 544 140 300 402 490 590 703 818 743 667 612 385 490 538 414
4777 4452 4295 4090 3706 3408 3150 3115 3105 3236 3330 2996 2722 2474 2207 2125 2008 1918 1878 1854 1744 1460 1250 978 605 514 620 410 271 229 153 176 464 454 360 564 389 576 719 761 842 834
4286 4276 3972 3568 3236 3190 3430 3451 3425 3399 3254 2812 2443 2264 2144 2015 1858 1617 1520 1439 1288 1278 1217 1114 693 917 640 560 391 336 111 243 326 164 455 604 614 509 598 650 732 403
4687 4284 3876 3576 3426 3100 3135 2946 3204 3400 3274 3084 2821 2633 2396 2121 2082 1874 1551 1293 1223 1182 1186 1080 1072 940 652 446 353 297 228 72 423 318 204 299 287 337 492 1254 780 544
4453 3930 3759 3698 3410 3319 3027 2784 2961 2897 3092 3122 2898 2727 2558 2279 2039 1802 1376 1352 1446 1348 1236 985 992 936 666 503 360 316 298 272 231 159 257 275 466 658 1101 868 684 474
4508 3925 3717 3490 3219 3050 2921 2737 2420 2419 2448 2842 2835 2782 2499 2217 2144 1874 1324 1100 1198 1068 1098 1048 932 866 724 629 376 348 300 340 472 508 505 769 816 838 975 962 632 682
3802 3608 3468 3560 3543 3378 3198 2906 2684 2544 2422 2612 2660 2389 2287 2228 1698 1573 1475 1393 1456 1439 1355 1226 982 803 721 599 539 498 354 640 662 614 768 774 940 1120 964 847 970 522
3624 3819 3812 3536 3578 3312 3052 2894 2763 2683 2513 2054 1924 1605 1490 1318 1298 1236 1274 1254 1146 998 883 765 685 584 635 570 454 380 186 844 800 732 679 1134 1249 1247 938 592 580 517

ECMWFNIL_con_mucape_018.txt.gz
CAPE
4168 4133 4001 4124 4070 3662 3584 3575 3414 3353 3390 3007 2975 2642 2526 2222 2440 2184 2121 1923 1967 1821 1592 1630 1031 984 779 1032 723 837 1009 457 390 915 406 741 498 275 361 228 287 774
4204 4126 4008 4147 4227 3957 4044 3676 3534 3380 3349 3326 2865 2994 2864 2362 2307 2400 1918 1924 1897 1435 1459 1294 1218 974 724 661 1103 838 826 987 379 508 501 331 830 594 205 307 242 360
4161 4171 4216 4072 4061 3995 3164 3460 3713 3515 3303 3208 3151 3287 2919 2657 2120 2232 2076 1926 1564 1281 1431 1116 988 1014 795 866 1000 871 802 866 519 90 599 422 408 230 544 50 291 154
4253 4246 3984 3683 3592 3811 3568 3600 3656 3552 3353 3268 3108 2989 2634 2182 2228 2107 2242 1946 1620 1379 1209 985 863 811 869 948 1096 746 723 721 483 415 668 887 550 535 494 714 366 604
4309 4284 4131 3732 3468 3748 3708 3516 3016 3451 3014 3109 2961 2796 2684 2556 2296 2040 1928 1688 1513 1281 1180 989 1076 878 902 841 998 747 632 591 491 610 570 805 978 728 550 521 756 805
4409 4311 4321 4045 3761 3789 3684 3430 3306 3152 2995 2852 2899 2650 2528 2567 2315 1973 1850 1543 1376 1236 1082 1071 1046 866 847 910 816 824 488 332 372 597 498 442 432 504 348 514 504 330
4403 4423 4326 4107 3850 3694 3561 3481 3460 2723 2798 2719 2799 2334 2277 2536 2413 2161 1903 1620 1249 1229 1165 1031 1003 886 791 837 662 608 692 558 492 459 515 591 472 404 207 678 1072 755
4233 4208 4272 4020 3660 3612 3503 3516 3549 3385 2727 2596 2570 2198 2328 2485 2545 2368 2138 1809 1490 1476 1384 1263 1247 1009 862 812 671 550 638 542 625 700 544 516 417 362 506 328 275 379
4366 4374 4255 4046 3569 3511 3054 2993 3393 3618 3549 2982 2624 2032 2427 2794 2799 2493 2386 2074 1672 1574 1436 1182 1332 1097 789 860 606 593 430 273 354 542 702 593 511 604 646 724 686 384
4541 4526 4090 3622 3092 3053 2986 2656 2758 3315 3536 3468 3061 2097 2323 2937 3088 2792 2612 2234 1825 1659 1386 1070 1196 1151 804 784 694 587 405 327 395 520 546 542 528 598 582 584 523 599
4105 4148 4142 3789 3363 3136 2922 2826 2758 2852 3177 3210 3086 2574 2685 3031 3182 3101 2747 2334 1855 1704 1383 1107 1218 1124 797 617 718 604 442 357 469 611 554 516 495 595 555 362 274 285
4079 3682 4097 3874 3401 3247 2959 3052 2793 2869 3171 3301 3384 3092 3090 3141 3225 3135 2749 2437 1990 1728 1408 1098 1366 1161 828 603 543 494 515 339 454 642 552 591 783 713 591 582 634 484
4039 3994 4054 3922 3882 3543 3207 3054 2783 2506 2864 3221 3300 3149 3004 3049 3244 3186 2784 2550 2151 1719 1523 1219 1391 1279 987 766 564 495 561 446 441 580 559 651 762 642 496 556 542 536
4490 4116 4164 4156 3945 3693 3397 3164 2774 2706 2916 3181 3337 3235 3180 3149 3175 3169 3000 2489 2140 1775 1554 1372 1323 1219 1073 1007 713 649 685 609 567 590 603 664 668 527 468 552 587 444
4562 4575 4156 4148 4039 3844 3648 3492 3122 2984 2919 3380 3490 3223 3014 3039 3034 3077 2800 2331 2142 1856 1606 1355 1298 1127 1011 953 841 853 772 664 730 729 673 691 578 563 590 602 529 374
4896 4831 4528 4303 4264 4155 3937 3727 3391 3197 3030 3407 3635 3530 3414 3279 3048 3212 2693 2422 2236 1969 1709 1535 1473 1267 927 654 692 893 456 294 557 744 693 619 519 403 508 406 341 321
5150 5179 5014 4798 4593 4468 4374 4016 3647 3503 3555 3498 3476 3602 3583 3502 3480 3172 2428 2256 1965 1724 1649 1610 1633 1263 692 620 734 959 763 401 619 795 638 580 521 440 138 503 353 330
5369 5569 5515 5352 5179 5058 4841 4655 4379 4207 3930 4030 4169 4177 4093 3656 3149 3036 2981 2565 2232 1898 1654 1830 1550 1262 1260 1345 1332 1247 882 585 860 789 842 764 765 588 567 608 575 442
5711 5919 5880 5754 5664 5460 5290 5098 4929 4407 4274 4542 4082 3986 3662 3434 3291 3097 3027 2840 2347 2079 1719 1718 1731 1765 1715 1504 1432 1278 644 518 959 1040 854 861 1069 930 782 647 496 295
5981 6457 6073 5968 5789 5580 5371 5284 5080 4808 4487 4193 4032 3823 3590 3343 3110 2971 2823 2713 2526 2168 1974 1856 1868 1753 1534 1442 1327 1106 681 563 826 462 529 612 416 345 418 391 554 712
6320 6411 6062 5480 5183 4950 4787 4688 4532 4389 4133 3937 3891 3696 3504 3350 3032 2912 2796 2523 2218 2082 2080 1957 1788 1572 1423 1249 1266 1112 543 457 661 423 322 287 249 210 178 670 783 560
6182 5704 5500 4960 4574 4428 4219 4025 3866 3942 3869 4071 3992 3754 3428 3212 3247 2858 2842 2651 2376 2239 1809 1726 1648 1517 1425 1300 987 934 938 519 487 521 423 296 455 399 511 641 818 667
5662 5393 5081 4516 4311 4148 3985 3725 3819 3785 4075 4257 3969 3771 3428 3367 3168 2860 2622 2494 2328 1844 1596 1563 1523 1482 1442 1376 1158 832 802 740 594 483 321 294 132 333 528 970 1053 844
5352 5103 4760 4445 4196 4076 3998 3881 3883 3901 3941 3939 3726 3529 3426 3225 3028 2980 2645 2420 1981 1566 1459 1476 1491 1453 1366 1296 1228 1088 760 518 529 560 376 298 375 365 728 930 944 869
5087 4830 4483 4292 4070 3846 3623 3521 3408 3454 3536 3562 3502 3316 2930 2765 2506 2372 2339 2455 2086 1668 1413 1319 1344 1324 1234 1128 1027 899 709 614 545 543 559 506 416 583 800 1008 1090 1002
4878 4520 4182 4018 3882 3702 3440 3345 3209 3040 2856 2984 2825 2637 2472 2471 2464 2289 2025 1845 1672 1570 1514 1460 1408 1292 1026 955 801 587 495 415 391 360 198 361 328 278 522 814 1149 1116

ECMWFNIL_con_mucape_021.txt.gz
CAPE
2906 2968 2925 2558 2489 2183 2351 2041 1829 2289 2030 2014 1933 1745 1873 1530 1386 1286 1326 1127 1110 1313 792 713 546 255 70 165 254 171 287 68 106 38 47 96 10 22 98 135 42 0
2972 2972 2920 2706 2658 2228 2618 2208 1878 2443 2173 2033 2004 1858 1823 1798 1304 1302 1300 1272 1036 1295 985 616 503 144 114 43 168 166 434 174 152 241 57 165 31 26 38 79 19 54
3048 2983 2882 2844 2788 2455 2663 2482 2184 2423 2353 2203 1976 1967 1852 1586 1325 1063 1172 1218 1081 1085 1029 614 393 189 118 155 136 160 136 318 116 144 113 154 78 0 0 29 42 46
3079 3008 2866 2894 2928 2618 2620 2638 2425 2427 2419 2327 2122 1924 1975 1426 1355 1637 1266 1478 1127 938 889 555 432 196 98 248 204 150 119 216 61 60 37 13 92 18 11 35 204 110
3124 3073 2910 2881 2951 2785 2643 2589 2531 2434 2429 2380 2218 1976 1893 1671 1198 1630 1357 1191 1089 874 927 624 442 190 121 244 196 154 180 137 153 81 114 9 22 39 20 121 102 247
3152 3107 2979 2896 2938 2942 2664 2627 2576 2430 2400 2375 2292 2210 1867 1884 1407 1267 1318 1322 1040 940 839 673 524 234 165 258 262 118 198 129 86 67 83 270 28 36 81 124 135 173
3202 3118 3070 2938 2923 2996 2746 2652 2600 2527 2421 2247 2303 2272 2009 1795 1687 1272 1416 1322 1118 1011 866 739 514 362 211 244 354 157 126 150 59 67 34 54 210 63 58 25 14 14
3241 3134 3141 3009 2910 2924 2868 2650 2574 2544 2499 2312 2261 2236 2156 1860 1711 1553 1306 1380 1254 1038 959 815 586 240 216 222 321 218 144 170 69 50 80 18 41 77 43 55 31 23
3277 3205 3162 3097 2914 2841 2874 2750 2592 2508 2501 2412 2348 2245 2212 2058 1857 1695 1505 1392 1298 1153 966 830 641 475 252 264 251 255 172 181 123 45 47 64 19 6 28 76 103 110
3295 3267 3208 3166 2977 2804 2830 2777 2647 2518 2515 2459 2434 2371 2267 2171 2029 1898 1785 1664 1468 1195 1021 901 740 583 416 335 258 229 198 148 104 113 42 43 39 3 0 25 1 2
3277 3305 3242 3214 3088 2879 2750 2740 2653 2560 2482 2475 2432 2403 2386 2290 2171 2032 1895 1772 1634 1480 1293 1120 920 706 510 436 395 280 156 140 88 104 110 52 33 9 31 14 14 1
3268 3294 3265 3237 3159 2972 2786 2653 2578 2535 2508 2402 2371 2360 2333 2285 2226 2129 2027 1859 1696 1580 1456 1309 1113 871 652 506 444 374 133 94 60 43 76 115 98 36 60 54 71 0
3260 3282 3283 3249 3145 2998 2811 2660 2473 2391 2479 2522 2330 2185 2159 2123 2068 2042 2099 2015 1883 1726 1584 1425 1232 1012 776 560 467 410 161 68 18 22 43 71 92 85 97 38 48 0
3200 3265 3309 3253 3147 2994 2791 2645 2470 2296 2337 2499 2561 2466 2254 2008 1928 2046 2241 2201 2099 1941 1779 1594 1390 1159 924 684 488 409 347 74 7 196 64 90 174 124 84 32 13 16
3106 3162 3264 3310 3215 3042 2784 2602 2492 2332 2278 2440 2586 2572 2536 2406 2180 2174 2352 2395 2310 2183 2017 1825 1604 1367 1109 880 670 503 382 329 434 123 44 105 292 161 67 50 89 88
2965 3019 3135 3311 3322 3167 2935 2722 2587 2462 2380 2472 2686 2674 2589 2510 2424 2594 2623 2572 2508 2428 2300 2128 1935 1696 1445 1169 944 766 610 778 465 478 281 324 299 172 65 139 164 123
2982 3001 3057 3205 3372 3306 3120 2930 2753 2601 2510 2519 2749 2898 2814 2674 2628 2782 2854 2798 2715 2633 2528 2393 2237 2014 1738 1478 1298 1231 1164 994 811 525 514 479 356 258 237 187 132 123
3252 3256 3211 3202 3332 3428 3346 3139 2936 2769 2637 2557 2722 3024 3011 2922 2796 2831 2934 2960 2911 2824 2704 2562 2406 2218 2081 1954 1764 1478 1511 1144 747 756 604 402 387 338 277 274 194 102
3497 3496 3491 3383 3342 3422 3440 3337 3113 2876 2727 2710 2944 3043 3059 3038 2923 2918 2932 2956 2966 2929 2834 2738 2614 2441 2237 2026 1767 1768 1753 1719 1117 796 501 386 444 472 421 367 234 139
3602 3642 3701 3613 3469 3408 3430 3402 3235 2988 2993 3178 3259 3263 3146 3087 2952 2990 2929 2901 2884 2833 2722 2562 2424 2225 2024 2037 2012 1946 1889 1798 1331 1090 783 645 616 585 492 229 66 68
3644 3703 3777 3837 3679 3466 3512 3573 3364 3150 3476 3379 3300 3279 3274 3201 3123 3036 2944 2824 2710 2582 2449 2328 2230 2264 2215 2067 1968 1863 1766 1426 1139 1102 875 767 657 564 340 211 188 118
3731 3802 3923 4045 4032 3939 3886 3892 3675 3545 3504 3326 3189 3135 3092 3068 3018 2952 2898 2792 2697 2607 2528 2508 2447 2331 2115 2004 1880 1813 1726 1618 1270 936 762 708 648 536 341 220 227 211
3887 4042 4228 4444 4388 4273 4111 4013 3788 3601 3532 3383 3273 3215 3174 3108 3056 2988 2916 2843 2797 2734 2664 2579 2439 2204 1962 1889 1826 1716 1607 1535 1382 1002 764 838 703 404 292 284 351 263
4230 4454 4615 4591 4485 4353 4210 4047 3828 3686 3551 3459 3348 3247 3194 3146 3065 2871 2657 2560 2482 2387 2251 2213 2045 1928 1851 1772 1704 1659 1568 1493 1347 961 950 745 514 427 361 397 646 859
4700 4707 4673 4608 4522 4430 4322 4180 4010 3825 3738 3596 3474 3367 3260 3069 2824 2754 2700 2616 2457 2319 2186 2016 1987 1891 1779 1691 1650 1599 1551 1425 1292 1111 887 527 460 496 467 454 691 866
4802 4732 4704 4593 4512 4467 4384 4302 4139 4023 3876 3750 3533 3244 2937 2857 2790 2731 2665 2554 2439 2295 2144 1973 1792 1593 1440 1453 1466 1442 1406 1302 1148 969 781 553 514 372 286 337 445 620

ECMWFNIL_con_mucape_024.txt.gz
CAPE
1800 1824 1954 2038 2060 2003 1986 1933 1866 1945 1995 2025 1957 1880 1809 1690 1608 1556 1432 1285 1190 1080 960 791 631 238 26 8 13 5 13 0 0 0 0 0 0 0 0 0 0 0
1974 2009 2109 2130 2091 2050 2031 2015 1918 1906 1882 1744 1678 1615 1538 1573 1556 1306 1273 1248 1191 978 851 891 782 528 1 13 8 3 14 3 0 15 0 0 0 0 0 0 0 0
2129 2147 2225 2242 2170 2122 2088 2109 2058 1983 1910 1776 1605 1498 1401 1482 1488 1311 1125 1096 1005 801 679 742 632 251 278 21 8 12 21 0 0 3 0 0 0 0 0 0 0 0
2180 2197 2268 2324 2252 2180 2196 2185 2061 1897 1784 1692 1618 1534 1348 1346 1350 1227 1103 1052 918 811 662 465 480 480 373 7 4 7 22 0 0 0 0 0 0 0 0 0 0 0
2089 2171 2240 2320 2308 2241 2170 2065 1910 1789 1738 1651 1556 1453 1285 1360 1236 1136 1071 1035 943 869 804 558 436 447 369 0 0 0 6 6 0 0 0 0 0 0 0 0 0 0
2103 2150 2216 2292 2320 2273 2149 2026 1896 1787 1743 1652 1503 1455 1355 1320 1302 1214 1176 1143 1038 935 897 834 559 519 483 301 0 0 1 0 0 0 0 0 0 0 0 0 0 0
2234 2230 2272 2285 2318 2292 2184 2073 2003 1799 1692 1734 1602 1529 1486 1398 1343 1276 1222 1203 1172 1068 866 907 869 768 608 411 0 0 0 0 0 0 0 0 0 0 0 0 0 0
2349 2350 2352 2349 2329 2323 2267 2116 2070 1971 1762 1796 1769 1666 1594 1558 1447 1373 1336 1309 1272 1175 986 794 781 766 628 40 0 0 0 0 0 0 0 0 0 0 0 0 0 0
2435 2440 2440 2430 2360 2349 2349 2235 2101 2062 1917 1854 1871 1831 1735 1684 1620 1524 1382 1392 1250 1061 978 841 700 626 563 229 14 2 0 4 1 0 0 0 0 0 0 0 0 0
2478 2492 2495 2484 2435 2378 2376 2347 2181 2101 2070 1953 1939 1930 1914 1843 1794 1683 1488 1268 1193 1095 1019 942 837 735 699 620 400 352 300 26 3 0 0 0 0 0 0 0 0 0
2510 2539 2535 2543 2506 2428 2374 2379 2311 2170 2124 2109 2050 2050 2047 2005 1924 1846 1720 1514 1354 1242 1157 1056 951 868 821 780 659 533 506 420 191 0 0 0 0 0 7 0 0 0
2547 2578 2586 2591 2562 2505 2436 2412 2395 2263 2171 2166 2128 2074 2063 2058 2019 1944 1842 1705 1581 1423 1188 1096 1035 986 926 870 805 726 664 588 457 260 0 0 0 0 42 220 28 0
2578 2607 2637 2636 2607 2580 2512 2445 2412 2362 2232 2190 2200 2155 2075 2064 2052 1985 1900 1835 1718 1608 1460 1296 1140 1043 994 965 931 893 837 752 621 460 240 15 157 302 222 196 159 0
2623 2641 2662 2660 2645 2624 2571 2477 2421 2399 2332 2227 2192 2208 2175 2099 2065 2027 1962 1873 1821 1738 1642 1564 1455 1370 1292 1226 1138 1050 973 894 776 644 493 298 451 456 362 234 154 0
2666 2664 2670 2675 2669 2646 2605 2528 2440 2395 2361 2288 2188 2188 2193 2182 2110 2052 2022 1967 1892 1841 1801 1748 1695 1646 1591 1481 1337 1211 1113 1004 937 840 709 584 790 747 586 410 204 0
2688 2688 2686 2689 2687 2655 2630 2576 2487 2384 2348 2312 2244 2188 2160 2151 2140 2122 2091 2071 2036 1997 1976 1943 1899 1850 1773 1645 1491 1339 1221 1126 1047 983 827 997 1075 938 594 431 400 270
2663 2684 2684 2689 2693 2668 2653 2604 2524 2419 2319 2265 2253 2226 2168 2122 2098 2123 2144 2144 2142 2130 2118 2078 2041 1982 1876 1755 1644 1527 1452 1383 1295 1207 1250 1327 1296 913 767 583 426 340
2673 2657 2666 2681 2687 2686 2676 2630 2583 2479 2370 2255 2178 2180 2181 2149 2101 2068 2085 2098 2114 2139 2153 2118 2060 1983 1910 1826 1755 1696 1636 1581 1592 1652 1581 1315 1366 1262 992 729 545 414
2720 2670 2660 2659 2680 2696 2681 2660 2610 2540 2425 2305 2197 2104 2112 2182 2204 2145 2079 2007 1968 1976 2037 2042 1998 1977 1948 1917 1911 1889 1854 2060 2126 2099 1740 1524 1564 1268 1160 946 589 476
2781 2728 2681 2655 2664 2684 2682 2686 2637 2590 2484 2369 2266 2178 2114 2181 2255 2284 2254 2192 2137 2088 2087 2079 2084 2087 2085 2082 2104 2238 2407 2464 2298 2080 1904 1589 1632 1408 1075 953 638 586
2812 2767 2711 2676 2655 2666 2709 2719 2698 2636 2532 2429 2323 2264 2218 2283 2348 2368 2370 2386 2407 2398 2347 2315 2306 2324 2378 2477 2592 2680 2738 2622 2436 2205 2038 1847 1731 1493 1317 953 792 540
2763 2769 2743 2692 2655 2647 2689 2749 2750 2723 2659 2574 2486 2413 2370 2367 2468 2469 2489 2501 2534 2564 2588 2597 2616 2682 2757 2827 2883 2862 2729 2558 2235 2134 2011 1847 1667 1462 1331 826 606 534
2745 2737 2726 2675 2638 2616 2639 2737 2810 2815 2779 2731 2686 2631 2569 2508 2612 2644 2655 2701 2735 2762 2805 2831 2809 2911 2966 2973 2808 2658 2496 2457 2154 1933 1791 1657 1500 1389 1017 846 657 497
2740 2769 2762 2720 2678 2634 2648 2728 2831 2865 2885 2900 2878 2858 2798 2735 2684 2752 2816 2888 2948 2991 3016 2986 2980 2989 2898 2737 2650 2632 2534 2193 1972 1842 1679 1520 1478 1532 1176 848 667 414
2625 2793 2856 2853 2838 2820 2781 2811 2886 2950 2979 3050 3076 3041 2980 2918 2838 2812 2888 2964 3037 3070 3033 2996 2971 2881 2796 2730 2656 2421 2045 1965 1919 1800 1613 1428 1390 1362 1222 836 533 514
2409 2734 2918 2995 3040 3045 2998 2992 3045 3075 3125 3183 3215 3188 3151 3075 2954 2868 2985 3041 3094 3095 3034 2946 2876 2742 2630 2356 2015 1956 1913 1909 1849 1695 1544 1423 1341 1323 1240 1068 554 371

ECMWFNIL_con_mucape_027.txt.gz
CAPE
1253 1218 1216 1191 1138 1152 1158 1290 1455 1585 1733 1953 2068 2134 2186 2220 2256 2372 2581 2566 2222 1771 1341 964 666 124 402 597 122 0 0 0 0 0 0 0 0 0 0 0 0 0
1310 1301 1299 1304 1300 1272 1214 1324 1470 1589 1678 1824 1974 2054 2124 2199 2270 2426 2579 2435 1964 1488 1317 1190 987 815 278 1 0 0 0 0 0 0 0 0 0 0 0 0 0 0
1383 1370 1364 1376 1389 1374 1346 1381 1487 1590 1653 1741 1880 1971 2045 2138 2279 2398 2446 2222 1747 1419 1322 1253 1189 1086 785 0 0 0 0 0 0 0 0 0 0 0 0 0 0 0
1462 1443 1425 1411 1402 1434 1452 1461 1508 1562 1652 1690 1769 1911 2006 2099 2252 2318 2240 1976 1603 1401 1322 1246 1170 1142 985 389 0 0 0 0 0 0 0 0 0 0 0 0 0 0
1535 1520 1489 1452 1418 1454 1525 1558 1583 1573 1581 1609 1623 1727 1885 2015 2104 2092 1959 1743 1517 1370 1261 1192 1138 1115 1026 715 419 369 89 0 0 0 0 0 0 0 0 0 0 0
1565 1558 1537 1511 1486 1522 1564 1612 1658 1672 1646 1614 1582 1620 1740 1844 1886 1822 1739 1608 1464 1364 1219 1117 1101 1123 1035 812 630 572 362 0 0 0 0 0 0 0 0 0 0 0
1626 1621 1616 1590 1596 1628 1630 1634 1659 1694 1714 1703 1659 1643 1682 1756 1802 1767 1640 1511 1429 1353 1232 1105 1092 1106 978 818 762 672 437 0 0 0 0 0 0 0 0 0 0 0
1661 1714 1711 1706 1721 1758 1763 1727 1698 1699 1701 1706 1695 1706 1716 1760 1800 1814 1686 1502 1394 1341 1249 1164 1094 1079 892 694 742 664 409 297 0 0 0 0 0 0 0 0 0 0
1648 1721 1791 1819 1818 1850 1880 1862 1816 1788 1771 1745 1737 1758 1791 1834 1827 1757 1639 1508 1414 1317 1248 1175 1120 1071 949 531 522 561 470 358 0 0 0 0 0 0 0 0 0 0
1699 1704 1768 1846 1882 1916 1951 1976 1944 1908 1870 1833 1806 1809 1821 1813 1760 1702 1597 1488 1406 1302 1201 1153 1118 1078 1016 706 354 337 362 373 426 413 300 8 7 8 0 0 0 0
1843 1786 1778 1813 1878 1932 1984 2016 2034 1992 1944 1921 1870 1828 1809 1782 1733 1695 1602 1473 1385 1290 1221 1182 1163 1108 1063 931 596 434 447 528 560 521 404 276 260 195 2 0 0 0
1981 1932 1888 1881 1897 1931 1979 2018 2043 2027 1990 1972 1922 1874 1846 1815 1772 1704 1610 1520 1407 1338 1296 1294 1301 1213 1147 1103 934 703 674 680 652 579 466 448 450 391 344 0 0 271
2050 2051 2022 2003 1998 2012 2016 2024 2045 2053 2023 2012 1994 1957 1889 1841 1813 1753 1658 1567 1506 1442 1424 1442 1450 1376 1266 1248 1182 969 801 774 743 650 515 544 573 540 469 386 280 444
2092 2122 2132 2113 2109 2112 2104 2095 2087 2090 2092 2062 2036 2018 1976 1927 1890 1829 1760 1679 1616 1590 1584 1587 1606 1543 1404 1360 1296 1183 1021 877 798 788 720 730 742 732 651 578 471 617
2135 2163 2196 2202 2203 2200 2203 2183 2160 2154 2154 2126 2084 2072 2038 2010 1964 1913 1876 1814 1766 1728 1723 1723 1743 1698 1553 1424 1340 1269 1180 1061 970 915 965 972 957 942 884 802 698 854
2191 2208 2239 2268 2278 2280 2288 2272 2250 2223 2212 2207 2175 2116 2091 2070 2047 2023 1980 1944 1921 1909 1914 1924 1902 1824 1734 1648 1559 1490 1387 1247 1154 1152 1184 1215 1163 1124 1065 946 979 1065
2273 2288 2294 2318 2344 2339 2351 2340 2322 2288 2266 2260 2251 2204 2175 2169 2146 2113 2083 2076 2077 2056 2039 2024 1990 1944 1905 1838 1807 1749 1657 1564 1514 1488 1519 1496 1380 1252 1119 1226 1269 1324
2344 2358 2363 2381 2388 2411 2406 2410 2393 2366 2325 2310 2309 2296 2277 2254 2240 2191 2163 2150 2148 2141 2123 2082 2043 2000 1960 1949 1910 1870 1796 1756 1734 1745 1783 1739 1610 1431 1594 1512 1467 1458
2400 2417 2446 2442 2449 2456 2466 2472 2460 2443 2399 2358 2370 2373 2350 2343 2302 2264 2258 2235 2216 2203 2188 2177 2151 2088 2038 2016 1994 1952 1934 1894 1918 1954 1940 1892 1719 1793 1833 1668 1538 1576
2463 2498 2529 2536 2509 2508 2520 2534 2511 2503 2485 2448 2412 2378 2372 2371 2350 2313 2292 2278 2276 2269 2264 2230 2217 2192 2168 2140 2105 2071 2059 2051 2079 2111 2070 1911 2084 2224 2137 2108 1988 1854
2568 2578 2596 2599 2589 2577 2577 2564 2556 2550 2539 2507 2443 2396 2385 2378 2361 2350 2325 2308 2300 2304 2304 2295 2296 2284 2270 2275 2269 2258 2251 2237 2221 2188 2147 2276 2376 2421 2313 2108 2080 1894
2636 2657 2652 2656 2653 2649 2621 2611 2606 2604 2584 2551 2496 2438 2376 2344 2344 2337 2357 2346 2339 2339 2321 2338 2331 2327 2335 2352 2372 2383 2364 2326 2235 2358 2406 2472 2611 2589 2519 2314 2126 1873
2672 2697 2702 2698 2685 2681 2665 2643 2650 2637 2618 2582 2546 2479 2414 2360 2319 2324 2344 2370 2402 2398 2402 2400 2379 2363 2362 2376 2390 2382 2342 2286 2558 2542 2612 2718 2735 2699 2604 2284 2087 1757
2676 2711 2717 2706 2690 2678 2682 2664 2681 2680 2659 2612 2582 2518 2460 2396 2340 2321 2350 2365 2413 2438 2458 2463 2444 2445 2431 2433 2412 2399 2376 2710 2784 2802 2937 2958 2866 2719 2550 2300 2069 1790
2631 2702 2738 2723 2704 2696 2664 2679 2675 2682 2678 2655 2623 2571 2504 2446 2406 2400 2417 2406 2410 2445 2500 2504 2512 2538 2552 2566 2593 2606 2730 2950 2992 3045 3084 2981 2824 2621 2352 2096 1889 1719
2559 2673 2740 2745 2742 2708 2698 2700 2687 2681 2681 2656 2658 2619 2589 2519 2497 2474 2445 2455 2476 2501 2515 2550 2591 2636 2669 2704 2740 2752 2996 3132 3119 3078 2975 2765 2588 2386 2154 1888 1695 1496

ECMWFNIL_con_mucape_030.txt.gz
CAPE
1226 1146 1096 1056 1067 1073 1080 1110 1169 1233 1290 1392 1604 1741 1901 2080 2119 2176 2234 2294 2356 2387 2425 2424 2475 2608 2316 1575 1287 834 116 63 64 5 0 0 0 0 0 0 0 0
1228 1194 1171 1128 1101 1096 1071 1061 1096 1141 1205 1265 1472 1649 1811 1965 2079 2164 2207 2269 2283 2358 2406 2416 2529 2637 2126 1284 910 526 45 44 399 405 0 0 0 0 0 0 0 0
1206 1207 1190 1168 1156 1136 1104 1080 1075 1116 1186 1234 1377 1620 1793 1925 2011 2104 2161 2228 2268 2290 2331 2439 2585 2561 1876 1207 631 233 49 17 451 24 6 0 0 0 0 0 0 0
1181 1203 1205 1200 1182 1157 1135 1112 1118 1120 1240 1284 1371 1599 1786 1916 1962 2041 2111 2191 2220 2226 2257 2444 2590 2351 1747 1167 585 479 441 416 14 4 16 4 0 0 0 0 0 0
1183 1194 1205 1209 1198 1177 1150 1133 1137 1142 1280 1350 1390 1583 1792 1830 1928 1997 2045 2155 2180 2203 2266 2472 2515 2183 1632 1090 769 680 587 474 424 2 4 13 4 0 0 0 0 0
1194 1190 1197 1207 1208 1187 1181 1156 1159 1193 1298 1326 1412 1562 1685 1765 1850 1920 1993 2082 2086 2194 2319 2453 2430 1996 1520 1099 956 900 838 655 427 3 1 8 11 1 0 0 0 0
1224 1217 1220 1213 1222 1209 1196 1201 1231 1266 1302 1355 1379 1477 1569 1688 1782 1835 1903 1966 2019 2068 2225 2407 2326 1839 1447 1178 1091 1045 986 868 604 4 3 6 8 1 0 2 1 0
1281 1264 1256 1242 1235 1236 1234 1269 1324 1359 1387 1408 1404 1402 1487 1615 1699 1793 1847 1886 1935 2020 2146 2258 2176 1794 1390 1224 1169 1129 1077 1007 848 545 352 8 2 5 2 3 2 0
1342 1332 1323 1311 1299 1291 1292 1320 1367 1416 1442 1449 1428 1384 1446 1526 1630 1708 1782 1817 1850 1898 1983 2036 1989 1777 1450 1205 1152 1118 1072 1088 962 680 448 326 406 4 1 1 1 1
1411 1424 1416 1415 1396 1375 1371 1378 1407 1442 1472 1488 1478 1441 1442 1496 1567 1627 1674 1703 1736 1772 1826 1854 1834 1732 1553 1338 1170 1103 1088 1098 1056 806 551 474 452 196 0 0 1 0
1458 1490 1509 1509 1500 1481 1472 1458 1467 1487 1504 1520 1543 1554 1525 1537 1563 1597 1621 1634 1661 1691 1727 1762 1780 1754 1641 1464 1330 1208 1133 1122 1088 866 596 482 463 414 14 0 0 0
1448 1500 1544 1572 1578 1573 1563 1546 1552 1565 1563 1570 1576 1600 1625 1617 1617 1626 1637 1649 1639 1630 1654 1703 1741 1734 1666 1528 1418 1304 1204 1153 1112 982 646 478 446 438 355 238 315 20
1462 1488 1544 1592 1628 1650 1632 1622 1636 1663 1660 1660 1642 1657 1660 1648 1628 1626 1625 1621 1619 1615 1636 1706 1744 1708 1628 1528 1453 1358 1254 1180 1132 1085 860 498 384 375 281 341 433 452
1579 1548 1554 1582 1637 1686 1705 1706 1728 1739 1754 1753 1753 1738 1735 1694 1662 1644 1652 1636 1623 1622 1655 1690 1717 1690 1626 1538 1460 1387 1292 1233 1201 1138 1024 832 586 398 389 478 522 580
1742 1741 1640 1634 1732 1685 1738 1780 1798 1816 1824 1832 1837 1834 1807 1785 1717 1708 1684 1675 1668 1656 1661 1654 1668 1667 1639 1569 1476 1395 1328 1302 1328 1271 1147 1055 932 743 572 630 695 696
1809 1862 1874 1850 1820 1800 1763 1790 1833 1850 1870 1888 1898 1894 1878 1850 1788 1749 1724 1687 1654 1652 1641 1650 1657 1652 1634 1580 1497 1418 1375 1376 1415 1428 1307 1164 1105 1047 926 786 859 909
1848 1912 1962 1970 1950 1835 1807 1808 1829 1861 1886 1921 1922 1923 1898 1884 1828 1792 1733 1714 1680 1637 1628 1614 1635 1638 1623 1606 1535 1466 1440 1463 1500 1521 1452 1300 1231 1214 1176 1082 1059 1150
1895 1948 2004 2044 2020 1958 1931 1897 1891 1897 1914 1929 1942 1928 1908 1887 1854 1806 1769 1736 1712 1670 1660 1609 1591 1617 1643 1612 1567 1538 1537 1566 1616 1650 1609 1474 1361 1312 1342 1351 1334 1347
1947 1990 2034 2075 2021 2020 2017 2010 1996 1986 1975 1971 1962 1944 1920 1893 1860 1832 1811 1785 1754 1744 1725 1689 1668 1639 1647 1638 1611 1606 1627 1660 1718 1744 1699 1616 1555 1531 1556 1548 1512 1528
2017 2043 2075 2099 2080 2050 2068 2088 2089 2088 2069 2047 2015 1976 1937 1910 1884 1863 1854 1836 1828 1810 1785 1760 1753 1741 1707 1683 1670 1680 1712 1754 1803 1801 1762 1712 1680 1644 1657 1642 1635 1645
2104 2124 2131 2125 2143 2121 2104 2136 2159 2163 2148 2123 2072 2022 1982 1953 1936 1923 1918 1911 1891 1865 1846 1828 1807 1793 1778 1769 1777 1798 1832 1871 1878 1850 1826 1803 1781 1745 1759 1747 1757 1805
2160 2184 2150 2142 2122 2154 2148 2178 2209 2228 2217 2184 2129 2082 2040 2014 2002 1972 1961 1946 1934 1924 1912 1916 1879 1854 1850 1865 1894 1911 1928 1947 1953 1940 1933 1910 1900 1865 1892 1932 1980 2039
2222 2264 2232 2215 2195 2196 2216 2239 2260 2278 2264 2228 2185 2138 2095 2074 2055 2035 2019 2006 1997 1981 1986 1982 1940 1922 1925 1937 1968 1979 1999 2014 2032 2036 2034 2031 2010 2013 2082 2190 2206 2246
2301 2330 2352 2361 2290 2288 2311 2312 2320 2318 2316 2283 2248 2200 2162 2134 2106 2099 2088 2054 2033 2038 2044 2036 2010 1988 1995 2009 2021 2049 2056 2088 2112 2126 2156 2136 2116 2092 2332 2418 2470 2438
2328 2370 2407 2421 2408 2382 2372 2370 2362 2371 2364 2336 2303 2258 2222 2196 2173 2156 2132 2113 2098 2082 2091 2060 2041 2030 2034 2057 2080 2093 2119 2143 2177 2225 2220 2208 2222 2247 2389 2632 2694 2649
2362 2412 2448 2405 2416 2416 2414 2435 2422 2400 2393 2372 2358 2319 2288 2254 2262 2221 2200 2162 2152 2137 2135 2118 2096 2067 2066 2080 2100 2128 2147 2165 2220 2282 2288 2306 2336 2507 2703 2734 2722 2682

ECMWFNIL_con_mucape_033.txt.gz
CAPE
2575 2503 2354 2310 2319 2266 2379 2429 2418 2522 2764 2677 2952 3110 3286 3514 3546 3428 3347 3201 2894 2751 2770 2838 2821 2843 2755 2809 2645 2492 2369 2189 1795 1531 1352 1110 912 600 680 585 672 556
2504 2462 2338 2321 2302 2342 2453 2400 2448 2434 2735 2842 2844 3093 3407 3576 3608 3453 3481 3379 3106 2688 2552 2548 2749 2800 2794 2562 2556 2452 2268 2016 1879 1417 1264 1209 1105 859 601 700 620 540
2449 2407 2333 2254 2195 2196 1913 2171 2344 2441 2509 2570 2697 2989 3195 3268 3338 3404 3434 3327 3080 2748 2444 2656 2573 2719 2740 2685 2491 2327 2267 1960 1747 1214 1245 1296 1111 1059 934 473 529 638
2405 2396 2233 2085 2086 2115 2036 2176 2305 2316 2242 2426 2508 2580 2750 2844 3062 3248 3382 3213 3138 3008 2770 2561 2313 2238 2563 2627 2487 2309 2270 1868 1660 1522 1350 1369 1293 1125 1026 830 535 493
2366 2376 2237 2187 2139 2212 2234 2200 1990 2104 2093 2209 2328 2448 2752 2932 3046 3004 3178 3112 3024 2930 2806 2591 2607 2277 2386 2492 2431 2340 2246 1795 1532 1546 1387 1379 1350 1092 924 833 675 510
2356 2372 2364 2298 2264 2333 2226 2100 2035 1992 2052 2010 2284 2350 2454 2812 2862 2856 3062 2898 2782 2734 2818 2784 2588 2328 2223 2370 2302 2276 2228 1689 1378 1367 1268 1268 1189 925 696 740 680 554
2283 2337 2316 2228 2254 2275 2202 2121 2120 2130 2057 2087 2330 2292 2318 2581 2788 2861 3066 2997 2769 2876 2960 2966 2864 2592 2230 2268 2247 2298 2172 1711 1532 1431 1304 1266 1240 1137 745 748 704 626
2065 2081 2155 2144 2104 2122 2212 2163 2191 2207 2184 2226 2327 2390 2406 2473 2802 2826 3021 3054 2904 3060 3084 3121 3049 2848 2359 2266 2228 2257 2173 1654 1602 1555 1436 1338 1317 1295 1041 762 808 818
2046 2139 2176 2182 2085 2039 2008 1998 2095 2150 2150 2275 2138 2108 2398 2406 2678 2702 3036 3126 2970 3112 3266 3250 3188 2881 2585 2566 2410 2227 2155 1634 1460 1556 1472 1384 1358 1269 1110 896 802 837
2227 2190 2049 1989 1966 1959 1905 1861 1882 2031 2174 2168 2068 2010 2305 2474 2622 2744 3053 3189 3027 3118 3248 3222 3207 3076 2889 2670 2588 2401 2149 2012 1676 1562 1534 1453 1400 1288 1091 956 833 873
2082 2088 2070 2011 1918 1880 1901 1841 1836 1880 2021 2030 2052 2017 2216 2450 2596 2785 3003 3071 2891 2999 3096 3108 3052 2950 2816 2607 2578 2506 2360 2158 1954 1702 1602 1545 1470 1405 1060 1080 906 906
2136 2006 2011 2005 1922 1899 1896 1880 1884 1906 2011 2062 2063 2096 2196 2272 2526 2610 2713 2906 2862 2869 2990 3056 3026 2900 2773 2681 2497 2422 2340 2173 2078 1861 1630 1584 1524 1456 1313 1108 1005 971
2096 2077 2111 2027 2080 1981 2004 2000 1946 1956 1998 2103 2080 2104 2143 2207 2286 2528 2586 2769 2871 2850 2852 2998 3006 2884 2767 2707 2596 2471 2338 2198 2014 1917 1726 1596 1524 1380 1240 1114 959 952
2095 2208 2287 2277 2190 2260 2230 2141 2064 2048 2143 2214 2231 2164 2153 2179 2212 2376 2551 2543 2745 2802 2802 2871 2917 2814 2740 2712 2636 2495 2326 2184 2008 1888 1773 1641 1502 1370 1185 934 914 880
2260 2334 2531 2504 2457 2523 2484 2385 2276 2284 2316 2372 2415 2302 2205 2228 2236 2291 2473 2491 2552 2692 2703 2664 2655 2616 2582 2598 2596 2531 2351 2136 2021 1883 1777 1662 1547 1356 1190 993 964 864
2577 2576 2756 2807 2637 2752 2792 2689 2472 2462 2386 2514 2636 2438 2400 2371 2384 2395 2420 2508 2508 2596 2620 2576 2482 2490 2094 1798 1914 2441 2374 2125 1994 1913 1796 1678 1600 1441 1118 1074 1056 994
2708 2711 2808 2792 2810 2838 2805 2832 2606 2620 2641 2770 2748 2652 2488 2548 2533 2497 2405 2448 2498 2531 2549 2468 2408 2308 1735 1574 1518 1549 2106 2191 2018 1930 1798 1690 1607 1553 1352 1184 1174 1120
2577 2823 2823 2836 2830 2833 2931 2886 2740 2690 2707 2793 2820 2765 2711 2693 2630 2594 2622 2466 2484 2518 2474 2460 2424 1912 1642 1562 1513 1484 1453 2050 2092 1994 1829 1718 1624 1528 1461 1250 1288 1257
2875 2989 2902 2928 2908 2820 2907 2911 2897 2885 2927 2965 2911 2917 2908 2894 2765 2639 2649 2599 2521 2601 2490 2450 2400 1871 1637 1579 1560 1526 1513 1585 2068 2024 1924 1799 1692 1602 1558 1534 1468 1366
3058 2934 2935 3010 2989 2940 2958 2961 2926 2920 2859 2835 2838 2910 2956 2929 2756 2730 2700 2742 2597 2564 2590 2551 2508 1966 1688 1620 1586 1571 1557 1537 1877 2045 1974 1926 1854 1759 1688 1702 1740 1510
3138 3090 3106 3128 3158 3085 3019 2937 2916 2916 2907 2849 2842 2926 2950 2872 2857 2665 2541 2575 2443 2520 2527 2567 2532 1979 1750 1689 1651 1610 1571 1547 1546 1980 2018 2002 1953 1839 1779 1710 1711 1623
3091 3190 3159 3184 3148 3127 3066 2999 2992 3034 3021 2989 2932 2978 2931 2892 2987 2738 2548 2601 2418 2410 2298 2274 2545 1988 1814 1727 1686 1662 1616 1571 1552 1788 1996 2007 1993 1867 1763 1736 1624 1689
3137 3206 3248 3176 3170 3148 3113 3084 3115 3161 3147 3085 3018 3023 3018 2926 2738 2583 2632 2773 2713 2454 2356 2460 2653 2331 1897 1775 1707 1679 1650 1629 1592 1648 1886 1768 1998 1927 1803 1655 1724 1771
3258 3074 3295 3238 3254 3215 3213 3168 3232 3247 3240 3062 2980 2927 2929 2842 2827 2728 2590 2545 2444 2589 2587 2566 2588 2445 1998 1844 1762 1701 1672 1659 1658 1656 1676 1725 1863 1682 1785 1733 1817 1849
3134 3013 2833 3331 3354 3312 3233 3282 3416 3447 3267 3239 3095 3095 3023 3004 2806 2634 2576 2604 2782 2746 2388 2374 2746 2664 2176 1950 1840 1792 1750 1726 1714 1713 1699 1885 1748 1732 1746 1806 1888 1908
3396 3226 3076 3099 3163 3306 3344 3436 3436 3270 3323 3162 2968 2960 3038 3088 2907 2702 2672 2907 2762 2543 2493 2420 2602 2835 2308 2086 1934 1884 1850 1808 1811 1800 1759 1882 1898 1744 1760 1772 1891 1972

ECMWFNIL_con_mucape_036.txt.gz
CAPE
3216 3282 3358 3626 3537 3122 3060 3252 3189 3254 3250 3010 3012 3161 2958 3302 3408 3404 3652 3834 3904 3612 3479 3325 3113 3069 3034 2976 3232 3153 3099 3104 2685 2199 2033 1684 1436 762 454 368 330 423
3029 3204 3420 3405 3548 3447 3222 3291 3449 3353 3529 3429 3040 3010 3316 3298 3801 3668 3879 3974 4075 3868 3635 3133 2975 2996 2799 2720 3221 3134 3166 3052 2859 2309 1938 1798 1338 622 433 545 461 532
3203 3182 3209 3299 3387 3555 3098 3301 3520 3508 3422 3479 3227 3141 3395 3542 3835 4011 4006 4063 3860 3550 3701 3492 3025 2836 2729 2840 3067 3123 2906 3144 2864 2064 1961 1791 1144 624 484 506 387 458
3192 3204 3084 3233 3578 3649 3393 3280 3447 3559 3309 3405 3338 3076 3067 3360 3690 4190 4322 4182 3904 3724 3338 3462 3139 2837 2810 2783 3134 3080 3052 3122 2780 2375 1962 1833 1358 769 677 535 580 572
3011 3131 3200 3187 3513 3648 3650 3481 3311 3404 3317 3177 3250 3179 3189 3380 3757 3930 4067 4221 4082 3849 3596 3528 3551 3132 3010 2913 3071 3063 2806 2897 2885 2821 2370 1890 1695 1086 906 742 775 821
3566 3386 3290 3351 3552 3704 3573 3517 3468 3280 3345 2974 3048 3090 3174 3420 3595 3459 3798 3925 3994 3413 3267 3315 3574 3393 3259 3111 2966 2950 2708 2141 2366 2726 2396 2026 1931 1324 1063 1009 1053 967
3541 3569 3573 3693 3833 3696 3582 3566 3513 3243 3166 3056 3136 3191 3227 3346 3567 3564 3540 3883 3646 3682 3314 3255 3623 3538 3230 3158 3090 3002 2823 2843 2710 2327 2448 2167 2098 1591 1244 1060 1268 1034
3553 3710 3809 3737 3597 3543 3515 3404 3395 3403 3368 3327 3000 3290 3225 3243 3678 3672 3542 3761 3631 3743 3669 3481 3756 3784 3382 3312 3334 3250 3136 2911 2832 2425 2448 2425 2258 1807 1646 1313 1424 1232
3439 3553 3638 3637 3444 3436 3234 3241 3313 3396 3261 3229 2975 2986 3308 3295 3488 3539 3756 3818 3809 3700 3889 3675 3846 3779 3540 3491 3491 3422 3314 3108 2925 2785 2647 2654 2423 2013 1844 1653 1466 1398
3441 3416 3315 3451 3318 3213 3111 3122 3144 3265 3290 3186 3071 2773 3120 3400 3337 3488 3770 3987 4066 3878 4008 4005 4076 3861 3541 3450 3632 3624 3559 3571 3528 3413 3101 2972 2526 2168 1931 1843 1626 1478
3183 3223 3146 3243 3110 3006 2989 2988 2968 2982 3123 3134 3062 2868 2843 3330 3386 3490 3767 4113 4105 4050 4077 4170 4123 4026 3700 3409 3596 3629 3775 3932 4018 3803 3568 3311 2732 2358 1993 2075 1898 1510
3165 3041 2967 3022 3051 2923 2840 2842 2740 2737 2830 3090 3108 2968 2899 2909 3426 3443 3554 3985 4216 4207 4173 4326 4323 4230 3939 3739 3602 3637 3828 3756 3916 3844 3570 3421 3078 2587 2351 2212 2184 1805
3003 3084 3003 2834 2955 2852 2731 2688 2625 2628 2601 2841 3034 3035 2964 2796 2988 3489 3536 3785 4210 4267 4161 4316 4399 4337 4379 4277 3897 3755 3936 3910 3599 3868 3659 3517 3292 2822 2498 2353 2218 2076
2998 3148 3199 3102 2960 3072 2996 2896 2835 2694 2818 2831 2994 3047 2920 2810 2805 3196 3573 3643 4083 4232 4182 4248 4392 4333 4414 4475 4358 3943 3819 4041 3794 3744 3730 3585 3431 3116 2771 2468 2441 2291
3182 3173 3213 3301 3184 3345 3321 3166 2971 3035 2943 2924 3055 3103 3031 2895 2858 2930 3455 3730 3875 4102 4112 4090 4126 4228 4215 4358 4378 4159 3794 3785 3902 3735 3713 3635 3510 3259 3024 2733 2622 2511
3396 3309 3454 3509 3436 3465 3507 3402 3151 3129 2941 3014 3063 3171 3261 3122 3090 3085 3161 3598 3821 3990 4131 3984 3955 4036 3813 3561 3626 4001 3966 3743 3781 3837 3696 3555 3592 3439 3147 3003 2748 2576
3573 3559 3631 3696 3671 3644 3690 3631 3380 3273 3235 3288 3299 3346 3394 3377 3252 3151 3061 3275 3639 3818 3930 3883 3888 3884 3356 3182 3112 3136 3694 3972 3739 3828 3822 3643 3533 3585 3390 3122 2996 2800
3716 3908 3902 3990 3862 3811 3806 3793 3617 3358 3399 3493 3453 3453 3651 3467 3334 3275 3384 3181 3379 3688 3705 3866 3904 3328 3074 2938 2750 2637 2764 3584 3789 3711 3692 3622 3524 3478 3462 3290 3141 2945
4066 4102 4146 4155 4146 3970 4015 3935 3888 3641 3565 3492 3481 3633 3679 3718 3626 3531 3467 3392 3393 3637 3700 3677 3800 3292 2922 2716 2542 2354 2242 2483 3327 3663 3554 3503 3447 3470 3469 3455 3300 3074
4303 4234 4364 4305 4378 4222 4178 4046 4019 3836 3628 3526 3542 3707 3818 3944 3682 3661 3672 3705 3587 3627 3758 3805 3840 3266 2921 2579 2371 2202 2059 2011 2826 3212 3420 3290 3364 3339 3386 3411 3428 3287
4375 4207 4388 4461 4475 4325 4295 4243 4185 3988 3812 3597 3528 3633 3885 3899 3759 3740 3730 3782 3802 3641 3715 3808 3767 3278 3041 2702 2359 2118 1954 1842 2454 2791 3016 3124 3120 3062 3080 3265 3360 3314
4241 4266 4207 4151 4235 4294 4302 4242 4172 4158 4014 3810 3586 3609 3778 3830 3879 3803 3905 3753 3624 3484 3626 3506 3682 3131 2992 2800 2514 2228 1968 1812 2132 2642 2858 3010 3002 2564 2547 2698 2899 3235
4272 4117 4039 4123 4159 4170 4079 4004 4068 4105 4033 3941 3792 3722 3758 3860 3722 3624 3589 3462 3440 3569 3258 3344 3620 3658 2937 2713 2559 2346 2110 1910 2012 2408 2738 2866 2781 2642 2576 2596 2575 2698
4238 4116 4206 4282 4234 4235 4163 4054 4092 4092 4172 4036 4001 3909 3789 3917 3888 3708 3763 3781 3734 3474 3243 3431 3526 3504 3026 2656 2482 2342 2197 2031 2167 2422 2654 2649 2514 2540 2509 2433 2377 2223
4235 4302 4455 4395 4420 4405 4257 4240 4138 4171 4162 4126 4013 3969 3910 3933 3862 3892 3892 3664 3372 3395 3134 3201 3521 3410 3065 2772 2545 2459 2300 2152 2340 2469 2581 2535 2310 2357 2470 2350 2486 2318
4334 4428 4413 4351 4421 4498 4400 4397 4365 4247 4254 4171 4086 3870 3807 3824 3764 3745 3758 3609 3507 3246 3179 3176 3147 3725 3038 2922 2748 2558 2374 2205 2536 2590 2584 2459 2420 2329 2555 2558 2493 2747

ECMWFNIL_con_mucape_039.txt.gz
CAPE
3562 3486 3459 3208 3222 3071 2839 3243 3645 3782 3610 2888 2981 3230 2937 2778 2825 2270 2342 2656 3440 3641 3444 3500 3770 3858 3641 3500 3534 3444 3033 2905 2648 2274 2161 1482 1322 1623 1415 727 480 354
3662 3846 3912 3786 3733 3497 3381 3167 3670 3734 3714 3402 2612 2723 3142 2900 2986 2628 2612 2810 3175 3678 3606 3467 3697 3964 3972 3486 3691 3494 3554 3220 3157 2464 2248 1799 1562 1597 1428 977 599 478
3787 4005 4052 3820 3497 3601 3376 3364 3430 3597 3477 3520 3039 2714 2864 3044 3014 3292 3083 2872 3041 3326 3495 3263 3255 3592 3557 3150 3428 3377 3456 3462 3279 2505 2441 2135 1139 1520 1519 793 530 563
3870 3930 3771 3472 3410 3645 3787 3568 3500 3632 3459 3536 3446 2876 2588 2705 3019 3284 3426 3605 3430 3359 3264 3241 3131 3123 3393 3159 3312 3478 3237 3460 3223 2982 2400 2082 1377 1580 1401 824 595 646
3834 3814 3636 3666 3632 3348 3736 3783 3429 3525 3575 3435 3386 3359 2991 2857 3098 3230 3716 3776 3730 3625 3367 3278 3261 3094 3316 3202 3192 3316 3336 3130 2955 3013 2676 1891 1553 1644 1553 955 911 780
3817 3904 3858 3798 3491 3530 3608 3804 3888 3472 3657 3238 3318 3449 3313 3144 3128 3351 3564 3589 3892 3590 2930 2966 3291 2975 3094 3347 3256 3170 3014 2822 2590 2848 2416 2113 1711 1654 1490 1085 968 984
3753 3947 3733 3596 3461 3620 3785 4107 4143 3768 3566 3565 3300 3439 3353 3339 3321 3407 3460 3627 3539 3760 2970 2827 3396 3333 3056 3403 3550 3348 3130 2970 2462 2750 2531 2047 2030 1929 1731 1228 1069 1075
3810 3929 3822 3717 3534 3609 3924 3932 3994 4093 3909 3845 3278 3487 3477 3430 3595 3514 3530 3533 3593 3842 3550 3043 3497 3607 3162 3323 3514 3631 3193 2995 2815 2725 2581 2371 2152 2231 2202 1589 1364 1277
3805 4030 3932 3579 3515 3185 3615 3647 3859 4227 4153 3929 3578 3394 3637 3540 3550 3670 3830 3721 3720 3800 3990 3471 3600 3630 3536 3618 3720 3762 3472 3150 2955 3010 2860 2616 2343 2328 2301 2011 1505 1607
3911 3839 3305 3389 3321 3121 3432 3341 3130 3832 4258 3978 3868 3059 3256 3727 3546 3679 4050 4130 3732 3705 3894 3908 3661 3780 4006 3721 3795 3848 3786 3643 3322 3242 3149 2965 2635 2468 2443 2406 1872 1797
3890 3516 3535 3417 3129 2956 2976 2896 2921 3303 3734 3862 3695 3106 2599 3460 3772 3784 4150 4247 3992 3774 3850 4072 4016 4067 4185 3874 3701 3806 3955 3865 3732 3621 3502 3162 2892 2723 2585 2601 2238 1920
3892 3777 3655 3513 3242 2940 2811 2753 2792 2873 2992 3650 3630 3304 2861 2604 3609 3814 3843 4203 4344 4142 3932 4101 4287 4208 4403 4242 3627 3643 3897 3933 3853 3696 3586 3536 3311 2991 2988 2824 2472 2178
3871 3934 3753 3495 3564 3064 2832 2783 2648 2498 2539 3037 3666 3606 3164 2544 2876 3858 3872 4192 4485 4444 4224 4280 4309 4354 4567 4524 3947 3598 3760 3988 3860 3809 3655 3783 3701 3329 3147 2846 2554 2454
3806 3893 4127 3982 3788 4088 3486 2954 2698 2516 2659 2873 3514 3635 3392 3023 2405 3259 3929 4007 4425 4682 4530 4418 4468 4493 4576 4636 4368 3609 3455 3877 3999 3772 3669 3871 4029 3710 3257 2862 2685 2499
4281 4076 4295 4297 4236 4674 4314 3657 3157 3040 3052 3036 3303 3619 3472 3208 2707 2398 3649 4078 4209 4777 4855 4431 4336 4586 4601 4660 4622 4032 3534 3697 4124 3967 3498 3568 3958 3681 3408 3076 2847 2626
4685 4691 4604 4645 4489 4811 4834 4373 3616 3431 3105 2987 3142 3319 3688 3554 3422 2888 2778 3800 4175 4630 4821 4658 4449 4444 4278 4061 4257 4555 3985 3613 3805 3978 3705 3436 3793 3812 3573 3286 2993 2804
4729 4752 4898 4895 4798 4661 4713 4738 4343 3829 3905 4133 3946 3705 3928 4420 3882 3290 2853 3160 4004 4392 4738 4860 4782 4537 4162 3935 4053 4161 4416 4162 3895 4072 4044 3772 3694 3937 3784 3434 3253 3020
4859 5036 5100 5124 5020 4809 4841 4834 4507 4123 4221 4283 3834 3611 4497 3908 3801 3757 3828 3172 3594 4156 4476 4728 4806 4283 4146 3965 3918 3988 4082 4332 4141 3868 3985 4077 3778 3697 3929 3850 3655 3330
5138 5091 5161 5209 5271 5103 4977 4959 4800 4515 4280 4147 3896 3992 3952 4307 4540 4090 4035 3727 3618 4236 4301 4535 4731 4191 3918 3885 3798 3779 3760 3783 4109 4022 3786 4084 4071 3887 3850 4021 3746 3500
5322 5227 5196 5241 5389 5301 5060 5068 4993 4764 4298 4008 4044 4292 4243 4384 4190 4362 4335 4526 4166 4196 4491 4523 4716 4168 3948 3709 3616 3546 3517 3426 3787 3944 3915 3935 4184 4046 3817 3988 4003 3724
5363 5354 5278 5346 5520 5477 5259 5177 5129 5033 4562 4123 4011 4170 4245 4445 4434 4409 4383 4474 4224 3921 4040 4339 4495 4121 4080 3774 3436 3322 3237 3101 3661 3623 3888 3990 4030 4213 4087 3856 3911 3893
5246 5474 5465 5445 5589 5501 5302 5182 5230 5157 4860 4469 4223 4252 4284 4310 4575 4408 4358 4330 4405 4267 3844 3964 4200 3837 3937 3882 3573 3207 3076 2965 3444 3676 3639 3871 4113 4160 4246 4148 3950 3942
5269 5493 5542 5578 5701 5505 5277 5164 5098 5202 5094 4760 4220 4145 4305 4376 4512 4538 4641 4434 4408 4502 4364 4083 4071 4105 3699 3749 3683 3400 3033 2840 3262 3522 3609 3696 3965 4143 4178 4222 4000 4040
5517 5573 5580 5568 5610 5598 5360 5137 5109 5267 5198 4861 4530 4307 4214 4383 4446 4570 4641 4496 4383 4352 4324 4380 4077 4707 3671 3646 3572 3466 3206 2906 3294 3503 3593 3653 3695 3950 3934 3768 3863 3465
5534 5576 5534 5573 5579 5665 5463 5335 5288 5282 5183 4999 4678 4519 4303 4421 4273 4386 4631 4564 4390 4497 3980 3866 4262 4181 3923 3656 3519 3417 3275 3131 3382 3485 3527 3612 3635 3708 3843 3847 3789 3330
5414 5679 5616 5472 5569 5730 5659 5594 5466 5279 5278 5178 4915 4591 4372 4191 4108 4113 4466 4484 4374 4001 3983 3954 4177 4640 3710 3664 3666 3501 3308 3184 3520 3505 3478 3521 3626 3604 3756 3825 3894 3652

ECMWFNIL_con_mucape_042.txt.gz
CAPE
3451 3660 3606 3196 2902 2755 2694 3398 3620 3593 3710 3376 3534 3469 3321 3320 3135 3073 2934 3615 3995 3868 3856 4272 4217 4420 4044 4036 4037 3882 4013 3525 3030 3675 3237 2653 2052 1558 1610 1502 1039 571
3489 3713 3614 3327 3116 3047 3033 3164 3732 3864 4086 4085 3631 3731 3846 3729 3302 3270 3379 3469 3946 3829 3907 4065 4304 4417 4117 3692 4090 3997 4154 4023 3807 2986 3152 2840 2280 1576 1498 1684 1305 720
3427 3579 3691 3402 3080 3266 2500 2930 3429 4085 4284 4133 3898 4013 4078 3777 3521 3252 3561 3320 3648 3534 4056 3920 4118 4467 4298 4143 4268 4114 4129 4074 3560 2838 2989 2790 2126 1949 1700 1326 1298 1021
3315 3349 3301 3047 3028 3065 2839 2801 3062 3748 3791 4082 3725 3369 3511 3236 3240 3478 3383 3636 3359 3643 3950 3968 3783 3949 4404 4317 4399 4171 4092 4198 3755 3646 3294 3182 2487 2028 1888 1955 1407 1002
3335 3470 3233 3163 3153 3253 3008 2895 2594 3187 3425 3619 3810 3435 3084 3318 3585 3524 3454 3568 3664 3750 4141 4109 4052 3971 4310 4222 4152 4106 3727 4252 3973 3976 3671 3340 2741 2350 2103 1919 1836 1138
3345 3292 3432 3431 3529 3788 3714 3212 3110 2821 3069 3110 3722 3596 3325 3261 3843 3268 3540 3436 3484 3378 3410 3846 3943 3659 4055 4130 4013 3930 3498 3448 3681 3937 3705 3441 2613 2088 1750 2062 1883 1645
3538 3604 3480 3686 3805 3774 3716 3518 3337 3177 3120 3225 3517 3644 3480 3105 3286 3340 3511 3609 3173 3108 3218 3451 3691 3548 3638 3836 3863 3772 3713 3632 3586 3803 3575 3371 2897 2218 1681 2123 1928 1578
3369 3457 3567 3596 3573 3455 3421 3595 3753 3624 3428 3566 3477 3684 3712 3305 3126 3089 3532 3816 3656 3650 3595 3644 3849 3839 3650 3767 3801 3801 3607 3609 3598 3724 3447 3179 2833 2569 2156 1996 2039 1656
3539 3536 3581 3479 3142 3130 2943 2858 3459 3693 3543 3648 3334 3203 3676 3557 3435 2931 3195 3829 3811 4102 4110 3772 3959 3868 3490 3480 3772 3787 3576 3169 3109 3581 3318 3052 2751 2545 2493 2209 2044 1773
3632 3526 3396 3340 2985 3315 3057 2679 2802 2963 3522 3558 3331 3167 3449 3590 3681 3404 3578 3868 3954 4097 4308 3946 3859 3876 3587 3406 3749 3853 3751 3559 3263 3166 3395 3104 2741 2543 2378 2379 2172 1899
3266 3417 3495 3312 3241 2934 3059 2586 2329 3076 3328 3292 3183 3019 3354 3570 3657 3831 3991 4098 3965 4097 4411 4215 3800 3822 3688 3376 3560 3825 3854 3730 3514 3332 3278 3210 2847 2609 2352 2428 2393 2044
3686 3062 3034 3362 3196 2689 2730 2358 2352 2728 3010 3738 3595 3450 3191 3265 3747 3703 3978 4252 4004 3901 4182 4360 4068 3908 3814 3615 3378 3579 3889 3813 3671 3489 3364 3354 3201 2898 2660 2580 2591 2361
3421 3234 3348 3288 3295 2700 2515 2530 2589 2492 2663 3133 3416 3515 3116 2941 3531 3702 3654 4242 4282 4034 3923 4168 4246 4061 4009 3968 3736 3695 3997 3986 3764 3715 3412 3405 3451 3198 2886 2708 2657 2607
3665 3596 3478 3570 3193 3082 2880 2653 2598 2497 2692 3111 3846 3795 3425 2973 2809 3649 3702 3936 4375 4263 4131 4076 4254 4245 4217 4284 4182 4031 4054 4080 3974 3869 3631 3579 3539 3447 3093 2761 2697 2698
3798 3826 3637 3538 3434 3386 3182 2920 2700 2762 2796 2817 3592 3743 3340 3139 2800 2523 3715 3815 4082 4444 4294 4067 4054 4166 4125 4275 4358 4276 4110 4031 4051 3952 3882 3762 3734 3594 3424 3118 2931 2726
4292 4149 3945 3773 3579 3704 3456 3190 2918 2860 2725 2824 3081 3629 3671 3662 3290 2773 2894 3887 3990 4413 4540 4296 4036 4022 3803 3819 3986 4195 4081 3720 3851 3961 3913 3813 3814 3756 3660 3540 3247 2867
4632 4504 4404 4224 3945 3906 4013 3603 3222 3111 2975 3072 3134 3265 3590 4116 3988 3603 2770 3111 3991 4117 4523 4520 4287 4029 3772 3698 3732 3788 3943 3705 3651 4032 3986 3887 3906 3948 3881 3727 3559 3249
4799 4810 4769 4776 4506 4287 4366 4216 3697 3345 3327 3350 3299 3284 3635 4064 4144 3961 3553 2814 3440 3958 4122 4469 4458 4000 3826 3883 3791 3773 3694 3637 3477 3684 4023 3978 3804 3807 3880 3772 3685 3460
5077 5043 4980 4996 4969 4684 4609 4688 4393 3802 3604 3604 3507 3534 3692 4051 4240 4108 3939 3442 3098 4051 4251 4448 4699 4385 4094 4014 3926 3854 3770 3531 3562 3440 3651 3919 3806 3520 3480 3717 3705 3613
5356 5234 5136 5174 5307 5211 4991 4987 4816 4320 3852 3859 3832 3836 3817 3982 4143 4227 4068 3974 3574 3673 4203 4430 4676 4570 4330 4100 3971 3846 3734 3423 3536 3582 3411 3573 3879 3712 3341 3409 3747 3668
5537 5361 5284 5340 5566 5539 5274 5160 5102 4750 4359 4113 4098 4148 3986 4120 4125 4212 4323 4170 4053 3773 3978 4363 4457 4514 4540 4368 4010 3864 3721 3513 3418 3607 3682 3737 3791 3892 3732 3412 3614 3808
5694 5558 5504 5438 5584 5674 5418 5161 5136 5090 4807 4458 4203 4197 4182 4195 4377 4217 4308 4395 4362 4198 3915 4191 4344 4186 4443 4489 4384 4047 3746 3615 3288 3592 3634 3790 3918 3904 3973 3876 3600 3659
5764 5753 5795 5742 5756 5800 5561 5217 5163 5336 5182 4808 4408 4272 4319 4347 4433 4343 4309 4450 4602 4563 4276 3947 4090 3935 4080 4373 4441 4379 4060 3710 3413 3584 3624 3677 3896 3995 4051 4128 4004 3758
5782 5820 5877 5893 5977 6093 5920 5488 5363 5463 5380 5003 4594 4368 4387 4429 4466 4495 4454 4466 4455 4578 4427 4342 4201 3996 3678 3916 4241 4335 4255 4060 3638 3530 3719 3638 3626 3870 4067 4109 4122 3786
5722 6012 6109 5989 5950 6071 6185 5897 5701 5614 5544 5287 4881 4573 4321 4534 4478 4479 4537 4583 4526 4561 4312 4267 4314 4093 3741 3669 3888 4167 4237 4176 3996 3699 3728 3768 3653 3680 3919 4136 4230 3971
5490 5905 6198 6117 6048 6245 6310 6150 5889 5810 5754 5651 5145 4532 4223 4174 4350 4439 4660 4766 4522 4378 4416 4246 4290 4440 3942 3799 3668 3720 3985 4083 4049 3884 3708 3817 3884 3791 3719 3814 4101 4368

ECMWFNIL_con_mucape_045.txt.gz
CAPE
1908 1961 2098 2186 2084 2038 2387 2155 2120 1931 2287 2018 2505 2445 2409 2322 2170 2209 2387 2686 2936 2936 3167 3370 3337 3282 3143 2951 2974 2692 2766 2666 2598 2429 2471 1929 1418 958 951 978 501 286
1969 1985 2094 2132 2073 2098 2361 2412 2280 2128 2126 2525 2158 2497 2606 2532 2493 2176 2278 2791 2991 2940 3018 3305 3133 3332 3307 2981 3020 2890 2752 2611 2592 2574 2368 2356 1790 1239 1120 838 800 343
2002 2043 2062 2124 2061 2009 2081 2483 2452 2244 2154 2352 2663 2450 2582 2753 2623 2385 2190 2760 3009 2985 2922 3184 3172 3144 3388 3087 2838 2772 3046 2595 2664 2660 2368 2419 2026 1514 1024 1157 883 854
2056 2056 2083 2148 2104 1997 1918 2042 2589 2538 2383 2393 2642 2821 2669 2705 2689 2461 2219 2825 2975 3002 2931 2934 3281 3173 3280 3088 2993 2811 2832 2906 2658 2682 2399 2320 2019 1705 1131 1225 1045 946
2141 2140 2157 2139 2156 2047 1928 1809 2034 2689 2697 2698 2706 2947 2973 2742 2692 2518 2514 2491 2761 2912 2922 2860 3031 3280 3285 3152 3176 2893 2896 3043 2732 2716 2406 2224 1971 1715 1224 1099 1230 1070
2088 2130 2209 2246 2219 2111 2027 1852 1794 2180 2819 2968 2970 2962 3157 2997 2723 2634 2388 2716 2719 2830 2903 2951 2918 3172 3367 3267 3352 3059 3027 3055 3044 2762 2582 2333 2113 1748 1334 1100 1255 1264
2015 2028 2154 2278 2303 2212 2128 2015 1835 1857 2365 2870 3150 3044 2953 3218 2960 2727 2461 2443 2742 2819 2930 3045 3000 3065 3380 3361 3381 3335 3086 3222 3174 2876 2888 2536 2297 1979 1588 1292 1120 1299
2000 1970 2036 2186 2271 2237 2201 2159 2016 1887 1962 2368 2908 3179 2923 2768 3021 2911 2642 2306 2519 2720 2902 3101 3121 3082 3279 3408 3351 3345 3241 3124 3200 3142 2888 2908 2590 2223 1918 1557 1194 1188
2094 2020 2012 2108 2202 2224 2238 2244 2152 2021 1970 2144 2376 2937 3090 2787 2504 2721 2772 2490 2352 2525 2693 3038 3179 3118 3145 3334 3352 3269 3245 3083 3012 3145 3075 2902 2837 2503 2128 1811 1437 1326
2234 2145 2091 2122 2153 2171 2256 2334 2339 2170 2089 2158 2266 2492 3012 3033 2695 2365 2752 2792 2546 2432 2480 2729 3080 3134 3080 3149 3260 3226 3141 3042 2896 2939 3035 2928 2803 2644 2300 1959 1640 1404
2402 2264 2178 2149 2160 2153 2196 2336 2458 2458 2310 2282 2371 2411 2665 2976 2938 2573 2356 2809 2834 2616 2497 2508 2821 3041 3034 2997 3071 3110 3047 2934 2815 2770 2927 2915 2754 2598 2392 2066 1765 1507
2565 2396 2273 2198 2154 2162 2241 2338 2391 2529 2610 2483 2497 2552 2571 2775 2914 2813 2465 2383 2862 2912 2786 2618 2682 2903 2938 2900 2897 2974 2966 2872 2737 2632 2722 2870 2766 2568 2382 2190 1879 1578
2690 2517 2340 2288 2241 2154 2169 2289 2295 2328 2587 2678 2582 2595 2602 2704 2856 2891 2752 2441 2412 2847 3038 2992 2818 2854 2946 2895 2808 2839 2896 2846 2732 2605 2512 2669 2764 2612 2388 2179 1966 1752
2724 2615 2468 2360 2278 2225 2180 2205 2183 2096 2225 2578 2644 2558 2524 2546 2797 2883 2892 2728 2432 2493 2804 3120 3150 2963 2916 2932 2809 2712 2834 2861 2794 2684 2551 2473 2633 2685 2508 2258 2020 1857
2661 2605 2551 2460 2398 2284 2212 2258 2281 2099 2006 2204 2498 2490 2390 2361 2531 2854 2864 2868 2834 2678 2620 2837 3193 3221 3009 2918 2863 2704 2698 2893 2896 2819 2715 2594 2528 2612 2629 2497 2248 2018
2635 2555 2535 2520 2533 2417 2296 2226 2256 2190 1958 2044 2498 2531 2375 2324 2306 2566 2878 2866 2930 2997 2892 2832 2975 3254 3222 2986 2880 2783 2684 2777 2944 2938 2878 2762 2631 2561 2599 2592 2462 2274
2738 2630 2575 2537 2590 2600 2476 2280 2153 2096 1983 1946 2305 2732 2696 2622 2517 2370 2643 2910 2869 3023 3156 3044 2949 3009 3248 3256 3041 2895 2776 2752 2898 3020 2981 2942 2824 2672 2599 2638 2626 2486
3067 2876 2819 2643 2547 2654 2637 2409 2149 1994 1956 2014 2113 2619 2894 2844 2792 2624 2470 2796 2965 2947 3139 3256 3159 3008 3051 3282 3284 3120 2942 2874 2934 3056 3118 3076 3020 2906 2768 2694 2720 2704
3449 3092 3054 2925 2660 2619 2664 2569 2306 2069 1992 2020 2110 2346 2900 3059 3001 2902 2702 2526 2947 3108 3101 3262 3311 3227 3156 3199 3321 3304 3173 2993 2991 3048 3168 3195 3158 3099 3008 2911 2836 2826
3658 3412 3201 3167 2998 2730 2680 2679 2504 2225 2060 2071 2139 2184 2497 3011 3140 3072 2983 2779 2636 3036 3216 3230 3384 3436 3385 3291 3287 3337 3320 3184 2978 3032 3062 3151 3211 3165 3114 3069 3021 2963
3793 3601 3362 3334 3261 3052 2815 2779 2720 2498 2215 2130 2168 2229 2284 2538 2944 3136 3146 3114 2929 2704 3060 3329 3400 3541 3592 3500 3382 3343 3345 3325 3094 3010 2978 2952 3028 3139 3113 3047 3033 3034
3903 3759 3605 3540 3522 3429 3171 2977 2951 2844 2551 2290 2224 2268 2336 2372 2506 2804 3126 3239 3220 3077 2844 2956 3396 3530 3678 3715 3629 3498 3389 3325 3180 3040 2961 2858 2778 2820 3037 3056 2982 2975
4007 3906 3784 3734 3726 3742 3624 3349 3200 3188 3038 2725 2446 2352 2410 2502 2538 2595 2779 3070 3246 3267 3152 2936 2911 3398 3705 3789 3820 3746 3634 3477 3330 3180 3045 2950 2825 2714 2743 2937 3052 2979
4113 4063 3961 3910 3910 3953 3910 3781 3575 3487 3482 3296 2939 2668 2590 2644 2698 2758 2826 2954 3137 3268 3274 3195 3010 2924 3409 3858 3967 3951 3859 3737 3642 3516 3417 3252 3064 2949 2864 2834 2939 3116
4309 4233 4140 4061 4060 4073 4110 4096 3986 3864 3830 3798 3523 3175 2939 2940 3082 3079 3085 3126 3208 3306 3416 3407 3317 3190 3093 3304 3829 4101 4143 4084 3959 3855 3714 3618 3545 3466 3304 3111 3074 3162
4584 4497 4365 4264 4207 4213 4292 4321 4276 4198 4169 4180 4032 3724 3431 3275 3391 3505 3508 3470 3466 3473 3518 3612 3608 3575 3510 3403 3342 3673 4092 4246 4236 4145 4056 3957 3866 3769 3683 3585 3463 3304

ECMWFNIL_con_mucape_048.txt.gz
CAPE
1043 959 1026 992 1169 1313 1045 902 1132 1255 1083 1205 1618 1818 1933 1973 1882 1898 2020 2078 2420 2638 2728 2885 3016 3126 3110 2956 2838 2927 2951 2804 2645 2530 2378 2008 1790 1617 1174 536 466 0
1097 946 1048 1103 1021 1236 1330 1009 1046 1310 1359 1183 1572 1796 1923 2007 1988 1937 1960 1985 2302 2575 2684 2857 2987 3054 3081 3037 2909 2873 2844 2794 2686 2568 2477 2143 1708 1514 1312 661 147 9
1120 1000 1004 1156 1169 1122 1337 1376 1172 1209 1461 1489 1537 1826 1923 2014 2034 1946 1980 1963 2134 2450 2584 2804 2979 3064 3085 3065 3023 2918 2715 2755 2729 2650 2511 2319 2052 1822 1439 1033 531 32
1148 1135 1090 1163 1261 1249 1238 1521 1490 1348 1295 1609 1695 1872 1963 2028 2028 1952 1926 2345 2099 2334 2506 2723 2938 3069 3150 3163 3105 2942 2745 2612 2690 2677 2544 2320 2156 2027 1611 1189 650 634
1182 1222 1215 1228 1331 1406 1390 1500 1668 1608 1461 1414 1728 1903 2087 2145 2100 2008 1892 2018 2214 2308 2440 2595 2830 2947 3100 3193 3168 2995 2756 2647 2518 2508 2414 2292 2189 2085 1837 1436 1005 706
1251 1254 1298 1313 1372 1484 1531 1552 1736 1798 1691 1526 1585 1992 2103 2265 2231 2148 2007 1900 2197 2388 2464 2513 2684 2851 2922 3057 3066 2916 2783 2724 2537 2319 2343 2257 2221 2169 1981 1679 1418 1087
1396 1381 1388 1394 1390 1442 1522 1562 1676 1932 1918 1771 1662 1909 2184 2263 2358 2269 2177 2020 2033 2371 2513 2547 2577 2745 2840 2884 2906 2849 2774 2778 2646 2408 2384 2289 2252 2262 2099 1841 1649 1410
1495 1522 1522 1499 1462 1448 1455 1468 1530 1768 2077 2028 1864 1849 2209 2307 2280 2371 2342 2253 2151 2194 2466 2574 2593 2628 2782 2830 2805 2764 2737 2714 2652 2498 2459 2373 2307 2317 2231 2064 1824 1593
1591 1612 1616 1591 1563 1526 1511 1466 1426 1447 1756 2187 2162 2038 2120 2360 2364 2254 2280 2350 2328 2292 2318 2488 2599 2605 2662 2811 2814 2774 2727 2660 2601 2576 2520 2453 2396 2342 2288 2182 2006 1771
1743 1669 1656 1666 1643 1635 1599 1573 1485 1402 1371 1742 2253 2329 2269 2316 2461 2451 2322 2238 2232 2290 2326 2392 2507 2578 2579 2693 2793 2785 2764 2704 2668 2644 2581 2488 2414 2327 2267 2228 2097 1895
1841 1759 1690 1675 1686 1689 1688 1653 1586 1501 1403 1396 1685 2229 2475 2437 2439 2556 2532 2410 2272 2202 2279 2391 2469 2545 2578 2606 2745 2794 2785 2755 2713 2697 2692 2608 2482 2402 2299 2163 2045 1875
1827 1778 1730 1692 1678 1683 1721 1727 1688 1603 1516 1462 1443 1674 2203 2550 2518 2475 2591 2626 2524 2411 2308 2324 2447 2570 2613 2625 2718 2837 2838 2808 2769 2720 2721 2741 2660 2494 2402 2232 2011 1836
1861 1806 1764 1722 1694 1684 1673 1706 1724 1712 1659 1583 1532 1521 1684 2190 2589 2554 2444 2557 2718 2717 2633 2512 2383 2514 2654 2679 2703 2808 2891 2878 2839 2786 2718 2706 2745 2707 2550 2398 2194 1965
2027 1939 1869 1802 1749 1703 1654 1637 1686 1732 1751 1720 1647 1604 1604 1729 2156 2544 2555 2419 2435 2601 2689 2628 2509 2398 2558 2698 2702 2730 2844 2904 2893 2832 2755 2668 2647 2684 2664 2564 2413 2202
2235 2149 2055 1957 1875 1785 1709 1653 1635 1683 1755 1788 1768 1714 1681 1717 1817 2161 2486 2535 2402 2330 2455 2533 2484 2402 2352 2560 2692 2710 2729 2820 2860 2834 2764 2680 2600 2558 2566 2557 2488 2362
2328 2297 2236 2140 2044 1938 1829 1737 1658 1657 1705 1797 1870 1852 1787 1775 1814 1939 2221 2456 2503 2435 2356 2432 2522 2470 2385 2362 2528 2638 2674 2698 2739 2764 2758 2679 2573 2474 2454 2473 2464 2377
2542 2416 2377 2296 2203 2077 1964 1856 1757 1689 1703 1742 1836 1966 1950 1884 1896 1950 2094 2288 2437 2476 2418 2344 2416 2596 2598 2488 2458 2543 2583 2604 2635 2679 2703 2680 2601 2482 2366 2352 2397 2397
2818 2743 2627 2468 2348 2234 2100 1982 1876 1763 1715 1738 1755 1872 2044 2064 2024 2032 2106 2255 2398 2475 2473 2408 2346 2379 2623 2743 2673 2597 2571 2556 2578 2614 2651 2653 2622 2546 2439 2319 2276 2319
3166 3150 3094 2990 2810 2582 2305 2134 2004 1885 1768 1728 1749 1774 1918 2109 2157 2133 2128 2187 2353 2500 2554 2568 2511 2428 2426 2652 2858 2843 2752 2679 2607 2605 2629 2663 2656 2625 2558 2459 2342 2258
3518 3478 3454 3389 3265 3071 2797 2446 2195 2028 1882 1796 1765 1739 1743 1922 2121 2187 2156 2119 2172 2342 2515 2603 2663 2661 2624 2567 2684 2900 2974 2929 2805 2679 2634 2633 2673 2703 2679 2624 2543 2445
3763 3714 3659 3600 3513 3398 3202 2883 2479 2209 2048 1900 1836 1795 1747 1781 1986 2104 2148 2140 2109 2138 2290 2472 2578 2690 2795 2797 2745 2756 2928 3028 2974 2851 2766 2698 2672 2719 2771 2756 2725 2667
3888 3842 3796 3736 3673 3584 3445 3233 2916 2478 2197 2052 1908 1841 1810 1778 1871 2066 2181 2204 2185 2114 2121 2268 2465 2602 2762 2893 2933 2897 2866 2958 2996 2935 2865 2814 2779 2749 2784 2829 2847 2838
3946 3916 3877 3845 3783 3687 3551 3379 3176 2904 2488 2217 2085 1944 1840 1817 1828 1990 2234 2372 2416 2389 2301 2272 2400 2592 2751 2866 2987 3036 3010 2977 2966 2949 2912 2889 2870 2850 2828 2836 2899 2944
3958 3950 3932 3887 3828 3732 3616 3468 3299 3102 2846 2460 2277 2132 1983 1864 1832 1878 2082 2348 2519 2593 2582 2522 2450 2530 2784 2956 3016 3107 3143 3107 3042 2966 2920 2882 2884 2898 2893 2873 2861 2893
3916 3963 3944 3901 3835 3769 3648 3536 3402 3206 3002 2771 2517 2296 2168 2012 1904 1908 1969 2123 2364 2599 2753 2787 2752 2696 2688 2922 3138 3223 3258 3244 3187 3104 3034 3005 2989 3002 2992 2995 2991 2945
3781 3877 3907 3907 3858 3756 3658 3571 3451 3304 3119 2955 2764 2557 2364 2223 2090 1998 2022 2094 2170 2328 2537 2763 2900 2955 2948 2916 3008 3239 3367 3403 3368 3306 3268 3236 3216 3204 3194 3194 3203 3231

ECMWFNIL_con_mucape_051.txt.gz
CAPE
1087 1068 1028 986 964 952 904 851 781 452 417 945 1336 1558 1698 1744 1732 1759 1803 1796 1790 1900 2084 2233 2444 2623 2692 2741 2757 2808 2831 2785 2746 2716 2764 2704 2530 2302 2135 1790 1390 1074
1130 1092 1068 1025 968 958 941 871 828 776 391 570 1093 1340 1548 1669 1694 1693 1772 1808 1814 1893 2025 2206 2384 2571 2694 2746 2803 2871 2896 2826 2797 2746 2714 2516 2418 2385 2315 1998 1532 1027
1168 1135 1092 1047 981 951 994 956 892 876 813 451 841 1194 1416 1599 1688 1670 1694 1787 1828 1903 2051 2184 2311 2465 2612 2720 2815 2902 2948 2840 2740 2752 2730 2683 2573 2518 2458 2149 1663 1148
1198 1158 1128 1084 1026 948 961 1026 986 961 935 885 795 1066 1331 1583 1691 1710 1690 1919 1779 1878 2056 2208 2315 2425 2518 2629 2733 2812 2876 2838 2745 2704 2721 2702 2659 2588 2532 2308 1743 1382
1248 1213 1155 1081 1037 956 893 1046 1069 1016 1012 1029 984 1008 1322 1542 1688 1718 1722 1729 1753 1803 1979 2172 2324 2433 2523 2582 2634 2675 2725 2782 2788 2770 2717 2672 2661 2606 2548 2427 2205 1945
1254 1224 1175 1102 1040 984 886 974 1147 1101 1010 980 1128 1144 1336 1497 1646 1688 1713 1731 1778 1802 1851 2032 2226 2382 2507 2584 2609 2604 2628 2698 2771 2828 2804 2716 2648 2618 2607 2492 2335 2199
1197 1187 1176 1126 1047 969 919 916 1038 1205 1163 1039 1071 1307 1428 1542 1625 1677 1709 1705 1767 1816 1819 1912 2068 2254 2413 2540 2620 2623 2640 2680 2760 2850 2853 2810 2660 2568 2573 2525 2389 2233
1149 1136 1147 1151 1114 1026 954 979 983 1105 1273 1262 1165 1247 1555 1644 1669 1706 1719 1708 1704 1771 1850 1884 1978 2116 2298 2452 2558 2630 2659 2690 2729 2828 2877 2844 2717 2578 2482 2439 2353 2236
1172 1144 1151 1145 1120 1075 1021 1042 1074 1098 1216 1376 1374 1286 1474 1722 1794 1806 1808 1775 1708 1700 1805 1918 1987 2046 2174 2339 2447 2516 2582 2616 2636 2694 2751 2732 2678 2574 2516 2378 2273 2208
1213 1187 1168 1155 1149 1144 1111 1099 1140 1172 1285 1446 1504 1456 1411 1624 1779 1872 1923 1915 1850 1775 1745 1860 1990 2062 2106 2225 2357 2434 2487 2534 2580 2606 2637 2637 2577 2539 2511 2423 2301 2221
1216 1220 1214 1201 1194 1190 1177 1158 1171 1213 1275 1477 1628 1655 1582 1560 1724 1835 1907 1954 1949 1898 1840 1814 1912 2052 2126 2170 2265 2372 2437 2470 2516 2546 2552 2540 2524 2499 2474 2416 2313 2212
1285 1262 1264 1265 1262 1248 1238 1218 1219 1218 1253 1352 1573 1766 1806 1723 1704 1861 1939 1962 1983 1992 1958 1914 1900 2005 2149 2214 2251 2327 2413 2462 2474 2476 2464 2458 2454 2453 2426 2386 2324 2198
1410 1372 1341 1342 1352 1344 1324 1299 1273 1272 1262 1268 1344 1570 1812 1907 1888 1868 1966 2018 1995 1985 1999 2010 2009 2026 2096 2204 2273 2302 2366 2442 2471 2464 2435 2407 2404 2405 2396 2371 2327 2243
1562 1519 1461 1440 1426 1436 1418 1392 1362 1340 1336 1302 1265 1294 1449 1770 1994 2025 2018 2044 2075 2035 1990 1942 1955 2015 2091 2163 2228 2274 2320 2382 2433 2450 2443 2421 2389 2379 2387 2380 2356 2304
1671 1668 1638 1579 1541 1500 1494 1474 1453 1432 1418 1392 1344 1298 1265 1338 1615 1950 2082 2106 2110 2116 2106 2056 1971 1942 1983 2080 2182 2251 2285 2333 2384 2429 2447 2445 2427 2406 2382 2383 2389 2377
1768 1780 1764 1747 1692 1637 1575 1535 1523 1516 1503 1472 1433 1385 1341 1298 1285 1455 1796 2034 2112 2129 2143 2168 2161 2083 2016 2027 2125 2239 2308 2332 2356 2408 2455 2469 2461 2432 2412 2396 2396 2414
1913 1890 1869 1845 1817 1762 1711 1744 1637 1555 1539 1526 1510 1473 1437 1382 1332 1309 1374 1626 1951 2091 2123 2124 2204 2264 2250 2186 2185 2253 2315 2361 2379 2415 2455 2511 2508 2486 2444 2408 2400 2402
2089 2047 2002 1965 1913 1872 1890 1937 1886 1732 1570 1537 1542 1535 1524 1490 1469 1428 1380 1388 1554 1854 2064 2118 2121 2171 2296 2375 2391 2379 2380 2381 2394 2408 2426 2470 2511 2519 2504 2456 2411 2383
2243 2196 2148 2094 2048 2023 2133 2195 2177 2056 1886 1653 1532 1540 1556 1584 1594 1565 1539 1484 1478 1568 1778 2009 2109 2124 2154 2265 2379 2419 2426 2432 2396 2398 2412 2407 2435 2478 2500 2491 2455 2416
2400 2355 2306 2281 2254 2288 2358 2385 2379 2339 2247 2084 1853 1572 1554 1586 1626 1648 1644 1618 1597 1584 1633 1763 1955 2073 2151 2188 2246 2320 2377 2390 2380 2352 2346 2360 2376 2416 2446 2461 2472 2448
2575 2532 2515 2496 2492 2506 2565 2637 2716 2726 2660 2526 2332 2121 1819 1553 1630 1697 1738 1752 1731 1703 1699 1734 1828 1969 2120 2201 2224 2253 2328 2407 2424 2374 2322 2322 2348 2375 2404 2420 2439 2451
2715 2691 2668 2666 2645 2716 2820 2900 2979 3044 3085 3027 2860 2618 2406 2164 1890 1673 1731 1808 1848 1860 1850 1825 1843 1944 2101 2205 2266 2305 2310 2321 2404 2436 2426 2389 2377 2403 2416 2436 2449 2480
2935 2876 2843 2815 2894 2953 3031 3102 3172 3234 3289 3302 3260 3094 2854 2594 2320 2023 1784 1770 1869 1942 1949 1933 1918 1951 2066 2209 2328 2396 2415 2398 2394 2387 2397 2416 2441 2463 2485 2501 2528 2552
3248 3179 3027 3053 3085 3130 3194 3284 3332 3380 3449 3471 3452 3335 3164 2948 2694 2416 2127 1874 1805 1882 1936 1975 1996 2010 2017 2075 2237 2396 2483 2514 2522 2502 2476 2448 2458 2481 2517 2555 2591 2641
3508 3434 3358 3304 3232 3324 3388 3433 3466 3511 3540 3558 3567 3510 3411 3235 3000 2759 2484 2185 1927 1804 1847 1926 1981 2010 2034 2051 2082 2196 2334 2451 2498 2507 2484 2476 2490 2505 2516 2545 2602 2647
3718 3673 3602 3570 3558 3556 3568 3584 3589 3608 3633 3641 3613 3569 3536 3425 3281 3091 2867 2601 2283 1962 1828 1894 1967 2012 2057 2074 2097 2096 2171 2286 2381 2413 2420 2460 2497 2522 2538 2574 2606 2649

ECMWFNIL_con_mucape_054.txt.gz
CAPE
694 667 670 660 697 742 769 800 862 914 960 1007 1241 1395 1520 1617 1588 1661 1708 1708 1681 1788 1850 1876 2119 2277 2415 2459 2516 2518 2596 2595 2608 2654 2688 2650 2637 2666 2728 2662 2473 2209
746 780 869 719 730 752 788 819 859 884 922 934 1073 1270 1401 1506 1547 1614 1644 1669 1715 1770 1800 1897 2042 2212 2341 2435 2424 2490 2506 2502 2566 2617 2714 2732 2631 2586 2649 2671 2588 2412
834 818 794 756 765 786 822 860 874 882 886 902 892 1041 1260 1490 1497 1556 1607 1615 1621 1718 1740 1889 2030 2210 2295 2377 2403 2452 2514 2462 2464 2555 2675 2778 2696 2631 2648 2589 2499 2450
951 938 913 874 834 829 860 879 892 888 876 882 871 824 1118 1434 1457 1522 1583 1935 1603 1657 1755 1860 2044 2156 2295 2366 2395 2419 2455 2498 2479 2485 2642 2755 2750 2666 2674 2680 2652 2608
1041 1032 1008 975 932 903 892 886 908 907 892 874 845 788 1098 1347 1436 1456 1517 1637 1663 1647 1714 1882 2001 2112 2252 2336 2363 2433 2394 2430 2409 2488 2588 2690 2759 2732 2695 2674 2700 2692
1074 1074 1063 1038 1002 980 941 925 918 924 927 894 852 789 888 1161 1373 1421 1443 1488 1603 1630 1690 1815 1990 2118 2203 2334 2363 2398 2426 2398 2404 2394 2470 2562 2637 2706 2713 2708 2723 2699
1086 1092 1093 1066 1032 996 976 958 955 950 936 917 867 824 815 1060 1282 1394 1438 1472 1542 1619 1630 1711 1897 2073 2218 2353 2401 2428 2425 2419 2404 2284 2350 2416 2482 2595 2695 2733 2769 2755
1081 1084 1096 1094 1060 1041 1010 1007 1000 968 952 920 877 863 842 1023 1187 1326 1420 1446 1500 1575 1629 1657 1785 1962 2131 2333 2419 2453 2440 2371 2365 2326 2306 2322 2346 2447 2553 2660 2744 2726
1107 1103 1114 1111 1086 1064 1058 1053 1034 1018 979 920 888 869 1007 1058 1131 1221 1372 1428 1446 1522 1584 1633 1710 1849 2011 2236 2358 2437 2479 2449 2460 2448 2393 2360 2321 2384 2445 2506 2606 2653
1147 1146 1137 1133 1125 1106 1108 1085 1059 1029 1000 934 915 876 1025 1204 1199 1229 1320 1401 1421 1475 1495 1625 1694 1775 1897 2073 2266 2369 2425 2464 2504 2479 2478 2458 2432 2388 2378 2396 2453 2501
1188 1171 1164 1162 1157 1168 1160 1118 1082 1033 978 1008 1084 1026 974 1140 1339 1358 1373 1413 1446 1478 1488 1537 1660 1752 1868 1952 2127 2244 2338 2401 2444 2461 2479 2478 2480 2460 2376 2384 2396 2414
1212 1199 1182 1169 1168 1175 1177 1140 1082 1030 988 982 1117 1193 1179 1139 1250 1409 1498 1526 1542 1563 1554 1535 1573 1686 1812 1921 2009 2136 2258 2333 2383 2424 2426 2449 2452 2450 2419 2365 2378 2369
1189 1194 1179 1159 1159 1152 1133 1110 1079 1039 997 987 1171 1188 1235 1259 1235 1327 1524 1600 1636 1666 1670 1657 1597 1613 1748 1872 1962 2097 2216 2310 2365 2396 2416 2418 2427 2413 2328 2335 2356 2356
1124 1141 1140 1132 1118 1116 1113 1091 1062 1046 1033 1018 1171 1235 1263 1302 1331 1315 1409 1568 1624 1645 1724 1745 1708 1683 1702 1812 1937 2041 2155 2217 2323 2377 2398 2399 2427 2406 2381 2314 2330 2342
1080 1092 1110 1106 1103 1108 1114 1100 1089 1078 1064 1056 1086 1220 1296 1362 1430 1475 1453 1480 1586 1667 1704 1730 1740 1756 1766 1799 1876 2008 2138 2208 2258 2333 2398 2424 2434 2404 2397 2416 2407 2413
1099 1129 1124 1139 1154 1162 1160 1139 1123 1116 1111 1114 1110 1115 1218 1326 1417 1539 1614 1604 1641 1689 1744 1764 1778 1797 1759 1734 1757 1963 2048 2160 2208 2263 2323 2384 2410 2422 2421 2396 2410 2343
1265 1296 1270 1192 1211 1203 1190 1188 1183 1178 1180 1180 1171 1170 1168 1179 1302 1323 1472 1650 1742 1770 1805 1840 1870 1854 1747 1755 1787 1814 1922 2113 2175 2234 2278 2384 2400 2402 2414 2464 2458 2467
1362 1423 1437 1405 1269 1254 1243 1238 1242 1251 1267 1266 1260 1292 1272 1215 1201 1192 1264 1354 1516 1702 1818 1859 1924 1825 1832 1842 1827 1822 1832 1966 2146 2182 2230 2296 2375 2456 2461 2502 2514 2496
1488 1533 1558 1551 1505 1373 1339 1334 1346 1359 1374 1389 1396 1417 1458 1472 1357 1260 1238 1210 1190 1375 1512 1730 1889 1788 1836 1893 1927 1926 1919 1907 1920 2141 2237 2273 2370 2396 2464 2494 2511 2493
1638 1632 1646 1648 1633 1530 1508 1492 1484 1495 1499 1515 1527 1542 1616 1636 1603 1451 1339 1318 1287 1246 1337 1407 1566 1635 1722 1814 1892 1949 1993 2006 1999 1976 2192 2276 2351 2403 2483 2511 2528 2530
1819 1794 1769 1754 1698 1661 1664 1662 1655 1647 1651 1667 1668 1722 1805 1848 1815 1737 1608 1456 1384 1338 1307 1269 1341 1319 1492 1668 1783 1864 1942 2002 2060 2056 2035 2212 2351 2398 2443 2473 2511 2545
1992 1961 1934 1920 1811 1790 1803 1808 1807 1807 1821 1811 1925 2031 2087 2123 2113 2052 1961 1834 1668 1516 1425 1389 1486 1316 1318 1419 1592 1751 1851 1930 2001 2053 2044 2052 2197 2310 2395 2465 2486 2527
2175 2136 2118 2089 1977 1958 1972 1976 1969 1970 1970 2104 2284 2365 2463 2458 2426 2400 2307 2212 2084 1926 1800 1587 1597 1514 1459 1427 1451 1564 1697 1826 1902 1944 1957 1962 1973 2127 2263 2352 2413 2468
2359 2326 2297 2274 2155 2153 2144 2130 2154 2307 2413 2540 2621 2719 2782 2787 2785 2794 2712 2567 2420 2275 2142 1977 1796 1632 1568 1558 1546 1550 1616 1700 1784 1819 1861 1891 1921 1980 2157 2274 2379 2180
2527 2498 2460 2364 2301 2439 2531 2611 2702 2762 2812 2857 2902 2945 2990 3030 3083 3081 3028 2926 2787 2636 2451 2301 2151 1988 1804 1655 1649 1670 1693 1716 1751 1795 1827 1858 1924 1978 2041 2207 2325 2278
2694 2698 2540 2635 2763 2872 2910 2983 3004 3022 3055 3083 3098 3117 3137 3178 3227 3260 3272 3245 3138 2983 2818 2657 2488 2332 2152 1967 1784 1774 1799 1810 1835 1878 1882 1898 1969 2040 2139 2162 2245 2375

ECMWFNIL_con_mucape_057.txt.gz
CAPE
1652 1583 1474 1526 1637 1569 1748 1937 1848 2019 2338 2179 2407 2499 2757 3049 3177 3199 3239 3280 3344 3293 3336 3415 3423 3411 3339 3524 3586 3371 3306 3420 3152 3286 3461 3456 3448 3306 3192 3187 3209 3172
1689 1641 1578 1529 1730 1885 2046 1907 2003 1996 2345 2498 2392 2611 2974 3105 3133 3043 3173 3196 3281 3169 3353 3314 3383 3410 3428 3266 3654 3475 3466 3236 3228 3474 3683 3566 3577 3423 3249 3312 3193 3213
1673 1658 1656 1548 1490 1573 1334 1680 1940 1991 2051 2102 2304 2655 2751 2802 2827 3014 3045 3140 3126 2971 3248 3376 3317 3452 3393 3507 3770 3620 3313 3445 3343 3331 3663 3818 3602 3435 3571 3054 3152 3167
1702 1685 1516 1386 1400 1489 1474 1733 1901 1892 1756 1990 2059 2131 2334 2329 2588 2809 2973 3026 3148 3198 3197 3252 3166 3180 3420 3496 3724 3544 3425 3632 3489 3597 3745 3719 3779 3659 3586 3545 3346 3224
1713 1706 1574 1546 1508 1678 1745 1743 1501 1643 1628 1698 1780 2001 2380 2525 2659 2589 2742 2954 3079 3138 3256 3271 3296 3239 3461 3523 3620 3558 3449 3571 3605 3671 3722 3693 3921 3882 3678 3735 3768 3615
1761 1799 1801 1754 1726 1894 1744 1653 1580 1590 1623 1574 1772 1767 1925 2331 2408 2401 2560 2610 2688 2741 2669 2894 3122 3120 3257 3454 3570 3498 3430 3295 3252 3489 3683 3489 3531 3521 3415 3564 3819 3728
1759 1855 1807 1743 1782 1834 1724 1690 1730 1721 1617 1603 1833 1760 1739 1949 2226 2358 2528 2575 2414 2586 2520 2803 3190 3145 3212 3394 3581 3670 3656 3719 3587 3411 3521 3494 3702 3826 3533 3620 3776 3780
1748 1739 1777 1741 1709 1730 1781 1762 1810 1848 1813 1811 1866 1876 1805 1750 2051 2144 2381 2475 2364 2573 2797 2848 3196 3421 3229 3247 3479 3621 3619 3609 3642 3641 3295 3577 3858 3919 3889 3809 3806 3911
1786 1875 1882 1878 1740 1748 1686 1647 1777 1835 1828 1857 1680 1682 1844 1723 1906 1924 2315 2598 2462 2574 2942 2920 3150 3153 3162 3231 3388 3607 3686 3522 3504 3686 3635 3630 3767 3832 3757 3892 3846 3819
1980 1928 1804 1802 1712 1729 1703 1637 1640 1755 1863 1776 1663 1624 1773 1847 1883 1987 2328 2720 2604 2732 2894 2889 2964 3007 3063 3205 3414 3560 3653 3756 3787 3812 3803 3725 3650 3666 3678 3826 3768 3824
1888 1870 1842 1812 1727 1688 1733 1680 1655 1670 1787 1735 1664 1608 1726 1888 2049 2116 2368 2695 2428 2580 2746 2843 2851 3000 3082 2936 3064 3246 3450 3458 3632 3821 3846 3816 3770 3773 3737 3811 3836 3683
1902 1821 1792 1791 1750 1736 1733 1724 1700 1680 1726 1756 1708 1709 1749 1801 2024 2118 2189 2488 2466 2496 2668 2867 2925 3026 3102 3034 2843 2983 3262 3271 3400 3662 3621 3748 3785 3781 3813 3869 3697 3810
1854 1832 1855 1798 1847 1786 1788 1792 1739 1697 1672 1745 1735 1764 1779 1796 1852 2110 2220 2319 2571 2576 2545 2787 2926 2951 3083 3138 3042 3065 3210 3338 3191 3407 3511 3573 3674 3575 3544 3611 3714 3688
1869 1892 1933 1934 1910 2005 1979 1844 1784 1739 1780 1766 1851 1841 1803 1806 1824 1918 2228 2287 2407 2548 2612 2722 2904 2892 3028 3129 3126 3077 3157 3244 3321 3294 3370 3477 3543 3560 3453 3376 3514 3586
2015 2000 2074 2107 2115 2234 2191 2065 1912 1876 1863 1882 1935 1926 1844 1865 1884 1878 2063 2264 2261 2489 2589 2617 2653 2735 2727 2936 3044 3109 3084 2997 3216 3334 3294 3337 3469 3459 3513 3598 3519 3428
2238 2206 2260 2336 2320 2519 2443 2289 2030 1982 1887 1953 2003 2004 1992 1977 1994 2007 2011 2132 2281 2454 2594 2601 2594 2639 2571 2237 2426 2888 3115 2958 3062 3311 3318 3236 3410 3571 3468 3486 3538 3491
2524 2551 2526 2478 2447 2458 2434 2415 2163 2092 2061 2130 2107 2091 2089 2176 2172 2096 2060 2069 2178 2273 2418 2456 2517 2526 2222 1981 1866 1892 2536 3086 3142 3300 3392 3370 3324 3488 3549 3412 3436 3549
2290 2395 2396 2498 2510 2452 2485 2397 2218 2152 2167 2239 2226 2178 2298 2239 2301 2196 2283 2136 2088 2188 2239 2354 2479 2209 2006 1830 1708 1657 1682 2502 2874 3035 3038 3232 3322 3261 3353 3401 3446 3434
2313 2520 2483 2452 2466 2433 2435 2442 2408 2334 2308 2323 2200 2195 2231 2370 2295 2200 2288 2315 2242 2393 2360 2309 2440 2169 1901 1738 1652 1588 1603 1729 2392 2792 2904 3038 3200 3334 3323 3418 3533 3491
2564 2498 2457 2492 2526 2517 2518 2489 2460 2416 2268 2133 2141 2242 2329 2400 2223 2281 2363 2507 2463 2465 2564 2516 2444 2262 1980 1760 1638 1602 1610 1615 2230 2486 2820 3022 3148 3212 3306 3336 3461 3556
2502 2489 2549 2586 2636 2576 2547 2522 2468 2440 2322 2210 2176 2271 2439 2462 2338 2312 2368 2444 2457 2359 2444 2510 2346 2140 2025 1825 1698 1648 1631 1668 1967 2453 2684 2988 3122 3256 3347 3298 3329 3502
2487 2588 2665 2725 2692 2602 2588 2583 2558 2592 2568 2462 2366 2346 2391 2371 2476 2369 2422 2493 2502 2419 2306 2296 2257 1769 1732 1709 1679 1657 1653 1662 1692 2430 2688 2796 3010 3216 3288 3376 3420 3451
2522 2609 2742 2773 2776 2697 2639 2602 2642 2689 2689 2650 2557 2467 2474 2493 2533 2501 2544 2583 2562 2488 2446 2397 2379 2032 1617 1482 1433 1462 1513 1548 1753 2284 2647 2834 2932 3093 3260 3338 3424 3556
2721 2731 2804 2775 2813 2829 2771 2698 2712 2733 2722 2708 2626 2517 2491 2583 2602 2603 2613 2608 2532 2536 2479 2566 2478 2346 1877 1727 1627 1527 1386 1491 2051 2343 2634 2836 2952 3141 3239 3356 3434 3018
3023 2998 2945 2919 3017 2954 2854 2885 2931 2922 2835 2893 2745 2644 2639 2758 2624 2648 2689 2712 2618 2526 2279 2307 2528 2391 2151 2104 2034 1938 1771 1759 2177 2345 2558 2756 2807 2987 3198 3266 3368 3088
3094 3162 3100 2982 3106 3068 3029 3101 3134 3039 3064 3058 2847 2704 2733 2787 2766 2722 2754 2792 2645 2485 2522 2553 2529 2535 2489 2409 2343 2243 2091 1942 2197 2381 2491 2651 2823 2753 2960 3221 3258 3398

ECMWFNIL_con_mucape_060.txt.gz
CAPE
2265 2236 2222 2209 2082 1696 1556 1737 1608 1589 1866 1478 1656 2082 2109 2365 2554 2153 2546 2766 3022 3172 3162 3284 3353 3364 2969 2880 3028 2874 2747 2866 2582 2234 2664 2756 3174 3369 3377 3396 3612 3463
2242 2238 2162 2131 2187 2100 1907 1893 2006 1680 2129 2174 1536 1636 2356 2388 2874 2749 2714 3082 3088 3010 3115 3018 3294 3280 3034 2469 3012 3005 3010 3003 3152 2357 2660 2900 3029 3090 3129 3258 3187 3441
2372 2369 2252 2113 2059 2222 1765 1904 2119 2061 1910 2140 1892 1819 2214 2791 2903 3302 3076 2963 2745 2304 2750 3152 3025 3254 2987 2785 2982 3074 2783 3199 3280 2445 2662 2974 2658 2780 3003 2836 3035 3025
2589 2485 2346 2185 1938 2113 2018 1959 2216 2244 1704 1952 2016 1824 1868 1981 2628 3070 3344 3206 2821 2750 2564 2676 2733 2564 2953 2903 3124 2907 2795 3181 2957 3139 3039 3000 2974 2624 2786 2884 2735 2791
2757 2598 2482 2364 2121 2122 2290 2065 2104 2162 1873 1508 1828 1952 2243 2334 2538 2713 3060 3361 3286 2908 2948 2995 3114 2841 2905 2924 3006 2936 2614 2866 3035 3334 3402 3466 3249 2975 2767 2642 2796 2643
2773 2513 2568 2650 2416 2332 2346 2338 2180 2053 2200 1520 1968 2044 2200 2667 2631 2528 2548 2792 3094 2814 2153 2471 2732 2721 2496 2844 3020 2906 2470 2356 2394 3226 3405 3599 3135 2449 2574 2565 2973 3103
2911 2892 2859 2689 2531 2433 2439 2443 2329 2291 2321 2100 2070 2228 2194 2541 2921 2793 2530 2714 2738 2693 2335 2166 2703 2589 2361 2578 3067 3262 3061 2979 2768 2972 3357 3292 3462 3111 2520 2680 3137 3388
2810 2862 2915 2723 2546 2456 2496 2491 2536 2611 2490 2471 2152 2415 2431 2462 2942 2838 2668 2678 2697 2781 2930 2672 2831 3353 2724 2421 2777 3216 3224 2769 3002 3323 3460 3536 3467 3617 3413 3023 3235 3912
2726 2868 2847 2744 2538 2392 2390 2458 2675 2640 2488 2442 2287 2266 2678 2545 2655 2661 2801 2954 2905 2888 3163 3164 3218 3420 3352 2724 2791 3198 3447 2792 2538 2994 3402 3428 3405 3726 3596 3453 3480 3778
2751 2746 2629 2661 2456 2373 2344 2441 2411 2462 2527 2497 2393 2202 2420 2734 2531 2587 2882 3229 3288 3204 3211 3432 3414 3361 3369 3045 3091 3289 3414 3434 3155 3119 3255 3316 3197 3113 3198 3400 3282 3667
2704 2612 2692 2672 2518 2223 2256 2328 2209 2200 2451 2547 2439 2257 2201 2678 2726 2735 2945 3273 3351 3403 3372 3490 3577 3670 3493 2818 2798 3081 3244 3060 3103 3332 3549 3559 3412 3317 3222 3231 3269 3350
2682 2593 2565 2620 2547 2294 2215 2184 2144 2079 2348 2578 2537 2384 2248 2327 2840 2824 2788 3249 3517 3519 3478 3654 3678 3676 3633 3188 2456 2578 3027 3030 2861 3251 3338 3595 3500 3312 3276 3500 3425 3516
2648 2583 2522 2448 2576 2354 2218 2250 2172 2042 2090 2447 2594 2474 2326 2187 2438 2900 2953 3046 3541 3577 3360 3635 3814 3707 3745 3772 3210 2658 2827 3204 2733 2731 3036 3230 3443 3195 2872 2944 3364 3655
2635 2648 2617 2627 2652 2750 2586 2356 2305 2119 2234 2370 2691 2631 2374 2157 2178 2523 2993 3044 3288 3494 3424 3446 3775 3837 3868 3938 3858 3201 2849 3159 3381 2970 2638 2848 3196 3213 2918 2509 2720 3187
2769 2748 2766 2887 2923 3092 2934 2699 2517 2476 2433 2545 2789 2765 2435 2198 2153 2229 2710 3057 3111 3323 3350 3265 3369 3618 3632 3867 3914 3809 3284 2840 3250 3324 3061 2690 2830 2900 3155 3344 2956 2494
3016 2998 3039 3060 3102 3232 3258 3071 2769 2786 2606 2747 2846 2886 2747 2530 2441 2441 2476 2868 3134 3312 3390 3319 3249 3372 3385 3040 3332 3641 3644 2829 2939 3363 3463 3129 3086 3142 2885 2861 3015 3033
3128 3160 3252 3348 3349 3402 3416 3346 3086 2910 2853 3040 3037 3084 3047 2986 2867 2737 2615 2599 2942 3276 3396 3321 3222 3156 2863 2697 2770 2896 3489 3816 3402 3342 3677 3935 3666 3636 3558 3045 2744 2804
3236 3390 3432 3456 3499 3559 3663 3580 3275 3124 3127 3200 3167 3158 3298 3142 3090 3029 3010 2723 2765 3012 3112 3228 3280 2871 2652 2550 2430 2456 2672 3294 3690 3537 3374 3650 3803 3600 3566 3370 3288 2977
3459 3568 3630 3671 3737 3731 3819 3728 3492 3336 3268 3215 3192 3265 3343 3444 3339 3272 3240 3101 2845 2952 2948 3012 3237 2770 2579 2422 2243 2100 2019 2210 2678 2968 3128 3248 3483 3777 3849 3814 3676 3632
3634 3691 3762 3831 3894 3919 3942 3870 3655 3501 3286 3194 3252 3372 3408 3572 3355 3334 3367 3450 3257 3104 3156 3121 3175 2706 2555 2363 2159 1973 1858 1780 2428 2485 2710 2975 3364 3611 3822 3977 4169 4158
3780 3854 3866 3929 3953 3950 3916 3865 3895 3699 3394 3246 3225 3299 3487 3596 3616 3466 3462 3598 3552 3321 3256 3152 3120 2586 2506 2409 2183 1947 1768 1631 2354 2510 2654 2838 3100 3487 3844 4004 4168 4358
3786 3849 3877 3890 3989 3945 3869 3820 3802 3756 3676 3348 3200 3245 3415 3500 3626 3522 3594 3622 3619 3524 3269 3238 3074 2518 2504 2411 2279 2072 1832 1604 2220 2642 2749 2883 3110 3299 3691 4047 4237 4225
3625 3784 3823 3818 3858 3833 3778 3771 3742 3812 3733 3589 3421 3321 3311 3392 3585 3485 3562 3492 3509 3633 3565 3529 3355 3220 2481 2334 2222 2116 1937 1875 2322 2543 2835 3121 3193 3330 3625 3880 4108 4326
3633 3624 3693 3706 3776 3822 3819 3638 3754 3785 3868 3657 3507 3433 3236 3341 3450 3579 3623 3496 3460 3573 3519 3607 3440 3229 2686 2330 2127 2014 1919 2236 2613 2741 2998 3184 3384 3559 3651 3782 4023 3708
3606 3657 3704 3686 3786 3847 3718 3715 3755 3796 3822 3819 3668 3486 3295 3404 3376 3491 3569 3558 3405 3355 3111 3260 3548 3248 2792 2556 2232 1978 1842 2418 2758 2929 3067 3257 3296 3534 3702 3765 3891 3772
3630 3709 3705 3626 3769 3795 3795 3898 3890 3888 3902 3829 3676 3476 3390 3386 3331 3346 3446 3558 3449 3347 3395 3185 3182 3705 2964 2738 2447 2190 1941 2240 2837 3015 3170 3347 3484 3473 3719 3847 3864 4127

ECMWFNIL_con_mucape_063.txt.gz
CAPE
2498 2132 1839 1451 1216 771 858 1310 1245 1110 820 181 525 1276 1418 1638 1684 983 1333 1798 2505 2780 2615 2847 3074 3088 2777 2825 2991 2874 2778 2521 2433 1923 2335 2432 2981 3245 3294 3176 3417 3273
2644 2505 2140 1830 1687 1490 1204 1062 1340 1126 1296 914 106 562 1502 1572 1793 1740 1523 1585 2075 2729 2726 2635 2968 3114 2810 2302 2769 2891 3067 2891 2879 1974 2064 2505 2516 2708 3173 3352 3331 3282
2840 2645 2409 2107 1739 1724 1129 1109 1242 1355 1165 1217 501 352 782 1544 1788 2222 2086 1763 1798 1817 2395 2711 2763 3073 2932 2643 2609 2786 2742 3198 3057 2093 1979 2301 2368 2221 3030 2672 2932 3002
3158 2917 2778 2266 1731 1761 1363 1131 1390 1586 1233 1272 1230 402 295 657 1474 2004 2512 2341 2027 1890 1863 2436 2410 2341 2740 2788 2785 2782 2560 2861 2818 2663 2231 2365 2589 2346 2231 2554 2678 2765
3101 2933 2760 2541 1889 1692 1717 1294 1087 1349 1462 1044 1293 1150 848 902 1332 1690 2326 2739 2658 2401 2200 2178 2252 2238 2428 2753 2921 2914 2474 2586 2731 3004 3030 2823 2919 2677 2337 2142 2533 2508
2752 3031 3011 2728 2209 1636 1706 1551 1332 1226 1626 1098 1068 1248 1217 1194 1013 1578 2196 2638 2908 2267 1646 1867 2316 2399 2395 2650 2889 2838 2377 1957 1902 2768 3184 3284 2825 1978 1899 1963 2351 2603
2779 2951 3014 2689 2216 1710 1830 2141 1841 1621 1640 1440 1115 1224 1385 1525 1614 1524 1999 2396 2090 2265 1427 1638 2349 2438 2256 2364 2865 2997 2881 2539 2144 2192 3081 3253 3411 2972 1918 1828 2210 2557
2830 2945 3217 2890 2624 2140 2138 2152 2267 2051 1849 1844 1218 1356 1312 1529 2196 2080 1940 2116 2243 2163 2107 1482 2221 2527 2161 1976 2552 3024 3038 2625 2513 2636 2704 3388 3179 3217 3077 2306 2108 2663
2829 3148 3421 3086 2710 2376 2200 1993 2238 2322 2073 2069 1604 1260 1566 1625 2139 2525 2559 2292 2313 2319 2516 2152 2460 2296 2520 2335 2526 2701 2998 2684 2144 2507 2803 3232 3382 3344 3123 2983 2558 2567
3132 3325 3206 2789 2482 2450 2296 1878 1932 2182 2336 1942 1868 1397 1714 2067 2072 2510 2876 2918 2471 2415 2624 2929 2735 2687 2899 2597 2398 2558 2922 3185 2765 2405 2688 2951 2870 2842 2809 2699 2578 2897
3070 2938 2856 2710 2475 2330 2151 2027 1736 1932 2143 2114 2142 1707 1352 2066 2421 2592 3010 3206 2858 2652 2781 3199 3165 3166 3269 2846 2456 2385 2659 3002 3310 2937 2687 2845 2955 2933 2710 2475 2469 2491
2839 2694 2800 2801 2547 2252 2027 2031 1779 1720 2045 2460 2440 2091 1630 1481 2453 2575 2706 3241 3304 2980 2998 3197 3394 3607 3536 3093 2417 2234 2408 2747 3014 3139 2933 2990 3188 3214 3006 2971 2587 2360
2780 2604 2608 2678 2651 2187 1907 1891 1816 1522 1494 2044 2342 2181 1897 1491 1927 2687 2716 2999 3505 3440 3083 3330 3550 3492 3725 3704 2847 2308 2339 2684 2529 2717 2998 3203 3305 3091 2472 2265 2333 2378
2703 2620 2435 2592 2630 2600 2213 1881 1787 1428 1233 1430 2091 2216 1989 1601 1393 2367 2698 2734 3369 3561 3394 3408 3642 3591 3635 3904 3630 2479 2063 2421 2624 2554 2495 2770 2901 2879 2251 1730 1638 1860
2849 2694 2438 2696 2757 3191 2826 2247 1855 1611 1546 1596 1903 2211 1980 1703 1471 1554 2561 2753 2962 3431 3446 3365 3514 3640 3612 3800 3975 3283 2257 1896 2393 2750 2553 2400 2537 2226 2255 2144 1522 1255
3418 3198 2941 2990 3062 3513 3477 2869 1865 1942 1510 1677 1842 2118 2196 2063 1892 1547 1767 2614 2733 3164 3458 3331 3144 3522 3662 3402 3552 3522 2902 1789 1796 2429 2733 2406 2435 2481 2060 1943 2013 1741
3457 3558 3672 3667 3736 3727 3582 3211 2798 2331 2178 2514 2343 2355 2745 2971 2205 1637 1498 1857 2529 2893 3235 3278 3134 3044 3340 3313 3335 3323 3335 2929 2039 2268 2808 2945 2423 2613 2588 2039 1736 1781
3452 3763 3939 3971 4002 3900 3896 3627 2880 2565 2844 2904 2394 2412 3322 2694 2405 2218 2222 1626 1849 2649 3015 3116 3037 2667 2882 3146 3246 3291 3421 3677 2660 2070 2256 2825 2987 2510 2636 2728 2399 1675
4074 3941 3844 3748 3980 4009 4044 3958 3806 3418 2940 2600 2434 2748 2841 3469 3500 2700 2524 2250 1948 2560 2626 2843 3020 2439 2587 2894 3028 3114 3093 3316 2700 2505 1904 2017 2717 3029 2726 2811 3104 2794
4168 4046 4013 4084 4174 4241 4355 4169 3869 3665 3021 2766 2768 3226 3487 3654 3280 3193 3082 3360 2945 2668 3427 2681 3128 2627 2547 2629 2827 2896 2877 2953 3107 2325 2404 2140 2413 2606 3090 3174 3300 3308
4192 4206 4267 4475 4514 4566 4504 4399 4206 3797 3465 3174 3171 3416 3663 3950 3638 3342 3396 3573 3258 2913 2900 2818 2768 2948 2671 2671 2653 2665 2653 2503 2935 2550 2465 2598 2643 2838 3215 3383 3722 3835
4354 4375 4536 4630 4606 4577 4658 4677 4408 4274 4036 3690 3443 3354 3609 3840 4137 3602 3652 3754 3734 3468 3020 3030 2936 2873 2747 2755 2726 2619 2466 2326 2858 2870 2744 2786 2922 3112 3318 3805 3892 3963
4348 4448 4664 4785 4708 4655 4772 4673 4529 4486 4324 3940 3609 3496 3633 3831 4135 3917 3857 3869 3885 3946 3620 3135 3030 2594 2609 2685 2718 2691 2567 2439 2856 2829 2988 3182 3209 3316 3494 3604 3770 4038
4536 4658 4723 4762 4822 4860 4700 4547 4645 4656 4363 4076 3931 3765 3645 3770 3870 3994 3856 3803 3845 3958 3695 3847 3352 4348 2617 2563 2557 2587 2544 2824 3083 3078 3136 3344 3575 3618 3626 3782 3951 4295
4643 4675 4658 4744 4903 4803 4592 4757 4806 4724 4585 4410 4119 3875 3574 3700 3684 3931 3908 3849 3683 3888 3991 3760 3530 4300 2921 2664 2547 2502 2472 3120 3297 3256 3291 3412 3473 3757 3864 3876 4080 4309
4590 4746 4790 4671 4899 4783 4790 4913 4736 4790 4768 4633 4239 3834 3564 3465 3662 3754 3883 3980 3784 3694 3902 3806 3596 3490 3200 2902 2741 2583 2466 3005 3504 3448 3456 3608 3819 3716 3867 4094 4187 4455

ECMWFNIL_con_mucape_066.txt.gz
CAPE
1174 1042 1138 936 903 458 1016 2007 1670 1782 1944 1576 1960 2110 2138 2370 2101 2639 2295 2903 3459 3297 3406 4105 3820 3825 3407 3609 3210 3222 3491 3018 3102 3465 3528 3320 4020 3116 3020 2785 3210 3447
1429 1140 1202 980 1072 876 1124 1892 2083 1849 2150 1788 1189 2058 2238 2524 2258 2455 2744 2871 3362 3224 3680 3481 4094 3918 3859 3455 3907 3779 3810 3710 3532 2284 2868 3186 3406 2917 2583 3108 3223 3504
1752 1405 1372 902 909 1026 249 1019 1998 2079 2025 1545 1130 1965 2246 2026 2341 2341 2696 2713 2621 2570 3657 3631 3765 4053 3783 3761 4075 3719 3625 3976 3646 2926 3262 3083 3205 2972 3012 2375 2506 3160
1968 1569 1069 609 473 751 370 564 1361 1937 1246 1531 1008 504 873 1028 1736 2603 2561 3077 2758 2974 3268 3017 3007 3200 3698 3669 3786 3559 3644 4101 3754 3886 3351 3219 3349 3009 2848 2982 2640 2896
2150 2029 1308 906 692 790 550 536 418 1202 1105 1106 1218 842 630 1239 2258 2261 2545 2790 3053 2924 3115 3117 3290 3258 3800 3686 3708 3635 3335 3632 3612 4013 3782 3712 3911 3465 2853 2816 3300 3167
2529 2186 2070 1560 1372 1392 980 698 731 682 900 678 1272 1212 934 874 2425 1810 2418 2504 2481 2120 1960 2241 3010 2761 3318 3601 3630 3434 3129 2771 2966 3776 3642 3738 3434 3157 2621 2988 3090 3029
2599 2605 2045 2124 1534 1593 1461 1056 938 837 905 808 1058 1182 1163 891 1099 1690 2145 2575 2344 2252 1952 1950 2563 2802 2644 3169 3427 3768 3732 3487 3223 3816 3558 3754 3916 3806 2976 2713 3362 3162
2701 2279 2164 2159 1668 1336 1379 1550 1245 1052 1083 1277 1148 1321 1432 1091 1052 1142 2037 2370 2536 2931 2686 2434 2819 3268 2700 2895 3479 3662 3628 2954 3064 3928 3745 3650 3800 3964 3895 3490 3207 3626
2682 2704 2427 2249 1921 1592 1094 1011 1352 1153 1158 1365 1016 821 1383 1325 1488 988 1303 2304 2430 2945 3209 2594 3130 3078 2767 2762 3134 3519 3458 3022 2661 2989 3520 3592 3783 3941 3738 3621 3375 3348
3094 2927 2364 2216 2003 1855 1546 1018 1089 954 1152 1124 1011 922 1033 1381 1666 1504 1728 2211 2624 2957 3352 2800 2858 2903 2700 2745 3183 3408 3445 3479 3372 3159 2922 3097 3405 3654 3614 3671 3427 3300
2625 2310 2330 2236 2136 1842 1576 1098 1036 1157 1072 804 908 890 909 1178 1616 2152 2403 2674 2455 2693 3223 3183 2792 2820 2791 2459 2701 3066 3387 3367 3380 3541 3376 3153 3083 3584 3925 3670 3465 3199
2370 2149 2440 2395 1978 1614 1213 1046 922 1217 1318 1438 1172 1280 1001 1024 1491 1723 2489 3009 2665 2535 2803 3128 3101 3049 3020 2760 2472 2563 3062 3045 3360 3472 3200 3394 3475 3525 3528 3580 3468 3269
2159 2388 2288 2126 1915 1701 1458 1305 941 880 1204 1466 1373 1507 1129 717 1158 1695 2054 3041 3230 2959 2697 2980 3278 3291 3390 3405 3128 2856 2890 2921 2879 3394 3329 3174 3170 3128 3142 3269 3153 3096
2545 1902 2214 2449 2256 2074 1759 1606 1224 977 1267 1679 1882 1711 1277 669 770 1692 2222 2478 3273 3229 3004 3025 3431 3465 3645 3795 3579 3235 2992 2905 2827 3020 3136 3196 2936 3000 2862 2813 3035 2970
2555 2488 2714 2925 2735 2501 2322 2008 1711 1482 1505 1826 2159 1744 1452 1161 925 1382 2076 2300 2756 3283 3222 3010 3174 3398 3475 3855 3738 3369 2872 2693 2863 2835 2913 3017 3193 3029 3147 3140 2876 2489
2964 2883 2741 2931 2965 2916 2745 2448 1976 1893 1516 1838 2245 2131 2137 2041 1468 1310 1960 2369 2571 3275 3431 3127 2920 3073 3082 3205 3383 3416 3035 2145 2531 2856 2700 2725 3228 3167 2944 3131 2811 2051
3288 3238 3083 3050 3112 3242 3012 2813 2386 2068 1962 1958 2102 2392 2282 2520 2273 1700 1470 2192 2379 2676 3120 3040 2819 2590 2996 2980 3115 3202 3045 2497 2280 2780 2986 2993 3009 3222 2993 2683 2399 2232
3294 3386 3235 3201 3377 3487 3250 3034 2657 2413 2270 2186 1936 2254 2512 2576 2462 2177 1736 1831 2419 2437 2521 3027 3210 2736 2848 2942 3050 3260 3103 2971 2417 2415 2728 3031 3034 2767 3009 2814 2576 2256
3404 3504 3450 3324 3401 3572 3464 3168 2873 2727 2514 2307 2000 2046 2559 2660 2457 2311 2237 1903 2114 2733 2628 2913 3091 2672 2636 2892 2900 3066 3132 2934 2696 2239 1910 2331 2691 2871 2766 2810 2686 2515
3628 3638 3595 3465 3449 3597 3594 3298 2888 2803 2536 2352 2186 2133 2692 2734 2545 2456 2410 2427 2222 2722 2857 2827 3015 2814 2559 2640 2842 2941 3042 2917 3124 2824 2301 1883 2502 3007 2959 2945 3125 3001
3905 3807 3751 3689 3626 3683 3718 3481 3130 2852 2743 2232 2074 2154 2530 2992 2646 2454 2576 2636 2383 2345 3281 2871 2659 2859 2633 2510 2730 2876 2986 2910 3113 3170 2899 2616 2748 3126 3415 3138 3261 3394
4063 3993 4011 3906 3814 3782 3801 3677 3410 3124 2991 2704 2259 2095 2266 3078 3063 2634 2910 2885 2812 2467 2399 2970 2259 2675 2702 2600 2598 2816 2932 2883 2972 3310 3142 3126 3416 3788 3778 3757 3668 3672
4180 4120 4186 4086 4015 3891 3836 3761 3629 3382 3193 2935 2632 2424 2449 2764 3216 2965 3293 3193 2973 2946 2671 2612 2983 2523 2558 2568 2527 2498 2799 2816 3045 3205 3155 2941 2908 3546 4240 4445 4267 4070
4304 4318 4306 4217 4137 3994 3905 3844 3754 3528 3286 3136 2977 2880 2903 2776 3183 3407 3417 3144 2870 2882 3208 3167 2945 3547 2517 2485 2462 2466 2489 2764 3049 3294 3292 3148 3124 3240 3542 4091 4274 4422
4500 4470 4428 4342 4327 4143 4014 4053 4107 3854 3488 3376 3197 3162 3030 3262 3420 3531 3526 3342 2906 3102 2973 3215 2948 4158 2496 2507 2475 2478 2516 2793 3202 3405 3412 3315 3304 3413 3493 3455 3741 4169
4775 4736 4618 4419 4540 4514 4661 4910 4744 4329 3831 3560 3229 2902 2936 3238 3451 3441 3612 3652 3092 3039 3563 3436 3160 3891 2847 2482 2506 2489 2550 2807 3532 3474 3360 3453 3488 3603 3658 3719 3619 3714

ECMWFNIL_con_mucape_069.txt.gz
CAPE
364 256 194 256 221 219 3 124 78 756 702 1302 1596 1870 1765 1702 1473 1527 2178 2164 2249 1987 2960 2556 2943 2720 2808 2332 2692 2648 3303 2653 2820 3033 3290 3275 2976 3187 3164 3085 3022 2799
231 333 302 105 160 527 81 154 107 229 1033 1146 1529 1230 1660 1579 1628 1417 1851 2104 2346 2089 2262 3081 2616 2663 2737 2745 2696 2375 2470 3054 2449 3260 2706 2957 3066 3284 3077 3065 2885 2750
170 251 241 59 104 224 500 498 289 188 688 1079 1541 1478 1220 1531 1186 1790 1609 2108 2253 2182 2225 2810 2809 2665 2698 2678 2843 2787 2582 2684 2610 2642 2671 2589 2566 2544 2644 2572 2611 3028
218 164 184 77 44 45 590 875 720 550 610 974 1204 1535 1332 1208 1339 942 2108 2762 2130 2210 2307 2637 2955 2728 2795 2846 2949 2600 3029 2716 2884 2701 2957 2869 2699 2298 2012 2112 2411 2169
366 162 118 97 18 49 28 962 1080 871 879 913 971 1205 1394 1143 1312 1082 1427 2428 2051 2143 2460 2580 2810 2824 2792 2814 3110 2688 2677 2932 2866 2736 2801 2683 2813 2328 2361 2582 2548 2470
502 250 145 80 26 50 2 112 1069 1136 1014 998 909 706 1242 1166 1114 1382 967 2187 2002 2092 2341 2506 2577 2745 2962 2725 2897 2760 2587 2930 2900 2918 2886 2778 2736 2852 2539 2236 2091 2184
608 376 184 71 29 33 23 0 99 933 1065 937 931 557 211 931 1137 1336 1130 1212 2031 2035 2408 2372 2330 2536 2834 2781 2719 2705 2511 2690 2747 2883 2826 2542 2645 2713 2638 2377 2362 2122
715 498 312 137 37 28 82 0 0 93 696 774 796 783 307 111 664 1358 1419 1176 1440 1814 2260 2322 2206 2156 2680 2737 2739 2658 2552 2641 2413 2610 2657 2492 2607 2657 2880 2948 2694 2253
1008 703 488 273 96 41 91 45 6 19 151 380 368 681 666 280 90 1000 1607 1455 1367 1475 1580 1974 2129 2128 2281 2608 2655 2621 2552 2607 2551 2879 2671 2591 2676 2744 2732 2808 2904 2948
1474 1098 764 490 262 130 132 116 45 27 120 251 277 306 733 686 226 165 1281 1651 1570 1556 1473 1498 1699 2031 2075 2177 2502 2542 2542 2560 2510 2438 2838 2592 2692 2820 2884 2921 2900 2700
1828 1472 1109 838 534 321 283 269 175 104 130 222 308 301 419 766 687 230 295 1510 1715 1817 1766 1608 1775 1926 2052 2008 2245 2448 2523 2525 2461 2323 2333 2659 2631 2714 3304 3015 2951 2806
2097 1742 1383 1088 896 635 465 436 412 346 278 287 356 392 383 547 809 652 310 770 1611 1838 2096 1913 1798 1988 2020 1983 2040 2381 2476 2498 2470 2435 2310 2191 2540 2677 2987 2918 2866 2912
2307 1926 1600 1289 1077 913 727 600 508 527 512 434 426 454 426 496 668 890 708 465 926 1591 2055 2233 1966 1879 2005 1951 1950 2197 2448 2481 2474 2426 2558 2466 2094 2210 2656 2961 2920 2864
2465 2174 1778 1479 1186 1052 963 835 649 564 620 575 506 440 435 442 633 805 1025 844 779 1032 1548 2123 2206 1913 1878 1914 1817 1906 2319 2452 2457 2477 2421 2546 2532 2174 2178 2475 2755 2853
2385 2249 2026 1756 1389 1268 1265 1203 911 704 700 692 627 485 464 434 536 739 1010 1295 1213 1136 1240 1599 2122 2111 1922 1905 1825 1745 1890 2323 2386 2451 2468 2428 2443 2502 2487 2427 2472 2528
2450 2245 2131 2007 1767 1532 1426 1332 1188 923 802 867 799 601 485 525 447 728 868 1262 1629 1624 1482 1548 1772 2100 2241 2096 1943 1888 1847 1986 2188 2257 2413 2493 2431 2340 2351 2454 2502 2507
2516 2280 2152 2017 1948 1769 1525 1366 1234 1011 838 880 1036 917 738 750 658 532 881 1013 1495 1992 1946 1826 1830 1935 2116 2237 2192 2066 2054 2054 2078 2074 2113 2357 2523 2481 2337 2264 2236 2252
2709 2488 2183 2006 1865 1827 1642 1399 1183 995 824 784 1075 1188 1035 985 935 665 897 1094 1238 1798 2188 2167 2053 2017 2110 2220 2334 2301 2224 2225 2172 2146 2010 2024 2266 2458 2448 2351 2347 2364
2883 2667 2321 1945 1798 1828 1654 1396 1208 1075 898 814 990 1304 1283 1175 1129 884 799 1321 1380 1594 2127 2352 2305 2158 2194 2253 2326 2442 2430 2252 2110 2108 2102 2007 1944 2094 2354 2417 2391 2416
2911 2732 2468 2013 2019 1966 1795 1526 1370 1279 1117 969 1016 1333 1434 1360 1296 1160 955 1283 1659 1671 1962 2349 2441 2370 2272 2303 2350 2449 2535 2462 2171 1927 1803 1976 2022 1962 2038 2289 2402 2334
2771 2707 2466 2118 2194 2192 2064 1792 1559 1463 1350 1185 1135 1298 1550 1532 1488 1442 1319 1199 1637 1831 1891 2193 2445 2499 2406 2289 2304 2365 2484 2572 2356 2053 1733 1600 1884 2057 2034 2037 2173 2242
2719 2581 2424 2355 2309 2306 2298 2106 1802 1604 1542 1441 1318 1269 1528 1639 1626 1600 1562 1436 1451 1915 1956 2029 2281 2509 2476 2365 2306 2336 2395 2465 2410 2262 2010 1756 1547 1662 2022 2064 2027 2042
2731 2512 2424 2503 2442 2395 2416 2353 2097 1808 1651 1621 1540 1360 1377 1674 1739 1700 1648 1570 1437 1591 2080 2058 2150 2452 2562 2520 2477 2467 2501 2517 2484 2398 2276 2115 2100 1890 1892 2027 2023 1982
2849 2599 2552 2554 2540 2469 2479 2489 2351 2056 1786 1733 1683 1536 1379 1521 1756 1721 1665 1614 1522 1440 1558 2100 2181 2243 2518 2584 2526 2425 2404 2457 2500 2470 2431 2242 2108 2263 2615 3016 3165 3364
2889 2784 2632 2605 2607 2562 2504 2541 2516 2306 1976 1808 1753 1638 1503 1420 1729 1758 1711 1699 1622 1544 1488 1460 1838 2177 2279 2440 2488 2468 2434 2407 2428 2432 2422 2372 2225 2076 2064 2168 2319 3362
2921 2932 2743 2685 2679 2654 2595 2580 2591 2496 2238 1914 1814 1709 1585 1474 1715 1790 1806 1824 1855 1839 1758 1593 1455 1965 1864 2148 2379 2430 2427 2402 2382 2336 2390 2414 2386 2275 2106 1973 1939 1960

ECMWFNIL_con_mucape_072.txt.gz
CAPE
0 314 70 0 0 6 56 9 31 668 1185 1282 1495 1493 1226 1696 1652 1800 1998 2108 2097 2142 2214 2227 2223 2290 1913 2009 2040 2214 2543 2665 2720 2844 2764 2921 2818 2692 2818 2740 2586 2308
0 167 327 2 0 0 0 4 32 353 994 1204 1297 1438 1256 1345 1692 1543 1914 2002 2046 1960 2022 2243 2190 2221 1913 1850 2231 2273 2423 2538 2565 2785 2924 3075 2890 2784 2727 2687 2717 2659
1 38 298 31 0 0 0 0 1 228 653 1102 1224 1317 1390 1353 1433 1634 1697 1875 1920 1906 1885 2345 2223 2233 1992 1780 2039 2199 2361 2491 2422 2543 2762 2934 2878 2748 2697 2865 2868 2706
4 2 160 105 0 0 0 0 0 43 319 828 1175 1239 1367 1449 1414 1441 1591 2168 1782 1838 1772 2047 2346 2268 2108 2070 2046 2010 1994 2126 2261 2488 2587 2564 2528 2388 2454 2588 2654 2563
8 4 16 107 20 0 0 0 0 0 149 762 1114 1171 1270 1412 1453 1418 1329 1521 1770 1815 1774 1751 2296 2234 2140 2120 2205 2096 2166 2055 2070 2223 2299 2359 2283 2190 2093 1914 2120 2152
18 9 7 13 21 8 0 0 0 0 0 205 459 1084 1195 1365 1414 1374 1317 1320 1642 1733 1751 1689 2037 2229 2158 2123 2265 2169 2156 2239 2225 2242 2190 2215 2370 2464 2125 1953 1947 2038
88 9 7 0 0 0 15 1 0 0 0 0 295 516 820 796 959 1106 1169 1306 1600 1647 1679 1726 1869 2199 2218 2156 2232 2301 2210 2254 2305 2350 2294 2185 2220 2349 2322 1953 1827 1754
208 34 5 5 0 0 0 26 30 6 0 0 47 292 562 759 526 470 532 860 1592 1637 1648 1738 1823 2073 2270 2227 2180 2300 2386 2332 2300 2372 2400 2284 2246 2309 2271 2244 2140 1957
266 169 28 1 0 0 0 0 69 169 121 48 40 121 300 602 707 573 581 625 1152 1570 1607 1694 1846 1956 2176 2318 2242 2219 2304 2364 2354 2289 2356 2373 2322 2345 2289 2126 2250 2236
366 295 155 21 0 0 0 0 0 66 353 268 184 170 200 247 333 697 696 696 706 1265 1537 1636 1755 1869 2018 2256 2328 2283 2241 2258 2289 2249 2274 2345 2347 2296 2281 2125 2119 2320
548 430 317 164 22 0 0 0 0 0 42 328 325 283 283 206 130 327 759 805 738 807 1250 1518 1657 1745 1818 2033 2252 2290 2257 2210 2186 2180 2180 2241 2255 2194 2424 2146 2062 2114
720 546 442 308 146 12 0 0 0 0 0 4 199 255 282 302 183 24 150 767 900 807 880 1206 1489 1658 1732 1800 1990 2181 2223 2200 2167 2148 2124 2134 2216 2265 2246 2268 2163 2095
1036 807 535 406 282 132 5 0 0 0 0 0 0 44 111 244 314 156 25 182 800 952 880 918 1107 1403 1657 1742 1760 1874 2092 2154 2146 2128 2108 2038 2025 2184 2320 2360 2359 2288
1245 1084 896 670 387 245 104 8 0 0 0 0 0 0 0 26 188 300 126 44 325 857 1008 984 968 1011 1222 1498 1636 1659 1782 2008 2065 2073 2060 2015 1952 1923 2030 2194 2290 2368
1821 1542 1159 1104 996 724 278 112 16 0 0 0 0 0 0 0 5 137 278 150 73 459 969 1150 1142 1057 1052 1176 1368 1514 1581 1782 1955 2014 2006 1996 1987 1956 1892 1926 2107 2316
2103 1990 1783 1539 1317 1182 974 604 156 46 9 0 0 0 0 0 0 19 162 276 172 151 525 1045 1320 1348 1334 1203 1289 1417 1479 1630 1843 1955 1992 1980 1972 1990 2030 1996 1953 2003
2351 2296 2143 1968 1784 1597 1460 1219 856 363 154 76 33 7 0 4 11 16 74 233 326 234 201 523 1108 1479 1535 1413 1363 1410 1442 1522 1696 1881 1964 2001 1966 1936 1939 2024 2088 2085
2503 2473 2412 2298 2167 2035 1828 1582 1302 1000 649 251 179 143 110 56 45 34 57 168 336 389 322 327 541 1023 1525 1638 1546 1501 1501 1468 1516 1695 1879 1976 2011 1983 1930 1896 1937 2044
2533 2511 2484 2431 2364 2234 2072 1866 1627 1410 1104 721 403 283 233 189 115 76 74 132 298 449 513 503 481 341 1000 1543 1711 1666 1601 1522 1438 1463 1640 1826 1953 2013 2021 1973 1904 1876
2781 2704 2630 2544 2490 2404 2221 2080 1914 1722 1495 1134 720 514 359 305 215 148 102 109 228 381 609 732 734 699 715 994 1457 1714 1733 1686 1577 1469 1468 1586 1730 1880 1994 2050 2036 1970
2851 2840 2798 2749 2675 2577 2454 2344 2194 1897 1648 1340 964 765 599 456 363 243 175 158 195 341 504 784 992 1031 953 917 1061 1415 1670 1745 1674 1549 1499 1543 1603 1661 1760 1876 1989 2039
2663 2698 2684 2758 2774 2727 2689 2605 2477 2357 2113 1550 1224 961 824 708 586 504 361 262 201 346 481 676 984 1230 1304 1228 1164 1217 1433 1604 1648 1615 1589 1606 1647 1701 1732 1748 1790 1892
2426 2468 2494 2484 2596 2721 2720 2708 2647 2568 2501 2268 1592 1226 978 875 801 710 684 504 368 426 577 697 853 1152 1475 1537 1475 1413 1392 1410 1508 1598 1663 1709 1684 1700 1772 1843 1881 1872
2181 2264 2313 2353 2486 2614 2687 2687 2676 2689 2693 2538 2211 1611 1290 1058 912 801 866 820 688 541 700 882 948 1154 1443 1670 1706 1677 1598 1550 1561 1599 1671 1774 1806 1768 1711 1693 1746 2515
1966 2046 2052 2114 2297 2466 2610 2662 2691 2705 2693 2565 2395 2070 1459 1202 1014 848 984 990 953 861 826 1044 1143 1274 1448 1718 1824 1810 1787 1755 1721 1752 1788 1845 1897 1905 1867 1818 1744 2098
1997 1899 1917 2046 2293 2347 2434 2565 2638 2664 2624 2551 2427 2215 1851 1300 1077 908 1093 1128 1135 1106 1006 1038 1234 1391 1501 1735 1912 1938 1916 1874 1834 1849 1890 1931 1976 2003 2008 1989 1953 1876

ECMWFNIL_con_mucape_075.txt.gz
CAPE
78 40 4 0 0 0 0 837 1062 1156 1256 1412 1527 1607 1668 1741 1868 1961 1965 1915 2018 2098 2182 2201 2194 2275 2350 2395 2396 2330 2124 1969 2102 2300 2338 2408 2501 2482 2556 2616 2649 2695
69 74 187 21 0 3 0 0 759 999 1117 1268 1378 1506 1581 1627 1668 1785 1880 1831 1943 1978 1997 2043 2084 2158 2196 2190 2173 2004 1858 2057 2181 2479 2547 2495 2534 2520 2610 2622 2687 2694
62 32 99 64 0 0 0 0 0 216 907 1066 1187 1312 1446 1403 1318 1435 1754 1770 1868 1928 1908 1948 2026 2106 2116 2104 2022 1843 1812 2013 2218 2424 2613 2738 2716 2711 2733 2732 2699 2666
63 5 54 100 12 0 0 0 0 8 311 849 997 1130 1271 1287 1192 1259 1499 1974 1750 1840 1877 1885 1945 1988 2036 2072 2011 1860 1902 1952 2102 2260 2454 2629 2755 2787 2766 2701 2658 2701
99 7 11 83 21 0 0 0 0 0 70 416 844 1007 1150 1229 1163 1088 1316 1520 1641 1706 1748 1797 1839 1864 1966 2037 2031 1922 1827 1966 2098 2184 2225 2309 2388 2493 2598 2506 2411 2370
139 18 3 39 28 0 0 0 0 0 10 140 416 820 994 1126 1136 1042 1128 1381 1562 1598 1651 1716 1760 1744 1900 1995 2000 1971 1843 1866 1986 2124 2169 2182 2202 2278 2343 2267 2121 2022
158 16 0 3 40 0 0 0 0 0 0 67 243 499 842 976 1080 1065 1034 1156 1371 1509 1590 1643 1654 1647 1763 1927 1969 1970 1926 1815 1887 1920 1976 2043 2126 2211 2266 2294 2242 2134
184 13 0 0 9 0 0 0 0 0 0 10 134 320 543 837 952 1054 1069 1072 1135 1264 1449 1549 1592 1622 1638 1821 1911 1924 1961 1918 1873 1956 2018 1989 1950 1945 1990 2158 2302 2269
168 46 0 0 0 3 0 0 0 0 0 0 18 175 418 549 807 914 992 1033 1070 1131 1216 1334 1454 1536 1590 1688 1812 1864 1907 1938 1945 1952 2004 2068 2074 2033 1950 1917 2055 2195
153 78 2 0 0 0 0 0 0 0 0 0 0 0 163 416 748 791 861 926 995 1087 1154 1212 1287 1390 1475 1588 1720 1782 1808 1857 1949 2017 2050 2086 2138 2159 2079 2030 2000 2032
389 117 30 0 0 0 0 0 0 0 0 0 0 0 0 87 432 758 786 840 919 983 1022 1095 1216 1309 1407 1499 1644 1759 1791 1813 1878 1979 2063 2123 2175 2200 2269 2141 2132 2107
789 694 376 12 0 0 0 0 0 0 0 0 0 0 0 0 24 139 209 117 125 143 206 457 845 1091 1283 1416 1529 1696 1824 1871 1891 1936 1997 2070 2122 2154 2173 2161 2184 2217
874 867 738 605 10 0 0 0 0 0 0 0 11 1 0 0 0 0 85 133 139 167 184 244 456 857 1109 1290 1417 1545 1741 1882 1949 1969 1992 2008 2013 2048 2070 2094 2150 2206
921 929 935 859 390 4 0 0 0 0 0 0 0 5 23 1 0 0 0 40 97 172 233 274 291 525 890 1141 1295 1396 1520 1734 1877 1935 1968 1970 1968 1960 1958 1993 2051 2114
947 988 1024 1030 1018 925 99 0 0 0 0 0 0 0 0 28 28 17 13 2 8 73 221 355 356 362 516 851 1132 1306 1386 1480 1651 1803 1854 1877 1890 1893 1887 1900 1924 1981
1001 1044 1072 1083 1067 1061 1048 992 586 0 0 0 0 0 0 0 0 15 40 42 16 1 39 217 402 467 594 275 821 1096 1256 1337 1422 1552 1678 1737 1756 1746 1765 1792 1813 1828
1088 1104 1135 1141 1128 1115 1119 1099 1081 986 326 0 0 0 0 0 0 0 0 25 47 33 4 16 142 341 302 0 669 796 1006 1167 1271 1355 1473 1583 1615 1621 1601 1602 1659 1733
1222 1211 1201 1207 1180 1170 1173 1182 1188 1148 1109 1007 740 116 0 0 0 0 0 0 5 33 48 30 28 65 2 0 0 462 758 895 1034 1143 1253 1388 1490 1533 1540 1532 1554 1602
1407 1349 1318 1289 1278 1274 1276 1288 1276 1264 1255 1270 1248 1137 914 625 32 0 0 0 0 0 10 47 44 0 0 0 0 0 684 742 800 931 1036 1185 1349 1448 1500 1529 1554 1582
1679 1662 1658 1611 1474 1436 1432 1427 1412 1392 1416 1480 1500 1435 1321 1161 990 722 140 0 0 0 0 3 18 5 0 0 0 0 704 755 743 817 931 1035 1184 1344 1447 1519 1562 1577
1857 1868 1874 1857 1837 1772 1677 1635 1600 1573 1593 1662 1723 1783 1683 1475 1271 1078 832 523 0 0 0 0 14 2 0 0 0 0 109 728 772 772 858 959 1058 1186 1344 1465 1525 1569
2007 2030 2030 2054 2053 2007 1948 1889 1830 1788 1800 1869 1902 1978 1992 1791 1540 1314 1029 775 548 325 0 1 15 0 0 0 0 0 0 0 626 741 814 922 1009 1076 1173 1302 1425 1515
2234 2191 2165 2171 2171 2163 2154 2099 2051 2013 2034 2096 2131 2162 2213 2131 2003 1676 1353 1078 841 610 400 18 20 15 0 0 0 0 0 0 28 360 699 853 977 1059 1131 1206 1292 1366
2368 2356 2354 2326 2295 2298 2281 2275 2255 2251 2278 2298 2299 2319 2360 2360 2274 2186 2005 1465 1052 802 600 392 50 28 0 0 0 0 0 0 34 207 533 724 880 1007 1100 1177 1293 1896
2323 2434 2483 2473 2470 2452 2449 2462 2470 2488 2479 2480 2460 2449 2484 2499 2437 2331 2286 2141 1639 1043 771 623 518 216 0 0 0 0 0 0 60 197 380 566 714 868 1012 1150 1233 1783
1986 2152 2279 2387 2476 2533 2591 2615 2617 2598 2602 2567 2528 2506 2509 2505 2485 2436 2426 2426 2318 1960 1335 881 725 634 448 0 0 0 0 1 509 516 535 558 635 770 914 1071 1219 1305

ECMWFNIL_con_mucape_078.txt.gz
CAPE
95 46 0 0 0 102 486 883 1134 1265 1337 1462 1638 1701 1785 1880 2012 2112 2123 2116 2086 2117 2209 2226 2236 2340 2419 2396 2509 2545 2540 2484 2448 2355 2302 2374 2433 2403 2546 2576 2593 2583
122 113 152 8 0 42 145 549 920 1109 1193 1266 1402 1515 1622 1693 1799 1898 1926 1900 1986 2089 2048 2122 2143 2138 2222 2277 2329 2394 2406 2359 2274 2368 2442 2423 2533 2409 2480 2559 2580 2579
159 130 140 35 0 0 1 100 567 914 1035 1096 1177 1306 1417 1522 1588 1628 1719 1792 1871 1938 1973 2013 2069 2093 2121 2177 2222 2254 2219 2150 2143 2294 2733 2646 2608 2630 2682 2554 2608 2655
211 147 128 93 6 0 0 0 60 336 860 947 1012 1123 1230 1309 1386 1442 1530 2045 1776 1856 1920 1930 1941 1991 2031 2063 2129 2172 2129 2041 2110 2225 2587 2752 2794 2722 2746 2676 2774 2778
256 166 116 131 56 2 0 0 0 27 260 724 871 958 1136 1232 1246 1302 1375 1485 1609 1654 1742 1834 1849 1890 1946 1994 2064 2098 2082 2045 1964 2080 2273 2480 2586 2682 2688 2603 2604 2542
304 219 161 114 108 17 0 0 0 0 21 206 518 770 878 1003 1096 1145 1188 1234 1405 1568 1625 1700 1788 1842 1873 1942 1965 2001 2038 2042 2018 1960 2062 2238 2294 2252 2370 2474 2346 2288
351 215 127 86 84 37 0 0 0 3 0 16 206 473 691 796 922 1000 1050 1061 1170 1485 1552 1604 1689 1739 1770 1902 1868 1902 1954 1982 2015 1972 2031 2056 2092 2147 2132 2294 2289 2243
400 243 134 62 49 44 23 0 0 0 0 0 8 159 464 677 798 884 932 966 976 1155 1425 1507 1555 1610 1608 1795 1894 1854 1856 1887 1911 1931 1939 1954 1959 2052 2031 2058 2230 2196
440 326 162 50 36 36 26 0 0 0 0 0 0 9 228 488 636 749 843 868 895 952 1127 1327 1413 1502 1538 1660 1826 1873 1889 1872 1891 1894 1951 2005 1930 2003 1969 1927 1939 2073
432 350 184 72 27 33 38 13 0 0 0 0 0 1 58 329 481 566 696 728 801 864 897 1080 1234 1342 1428 1487 1676 1802 1847 1897 1953 1931 1948 2013 2076 2081 1997 1942 1966 2000
578 346 221 114 37 15 20 18 0 0 0 0 0 0 10 128 408 494 530 584 664 753 830 909 1046 1165 1266 1352 1494 1640 1740 1782 1838 1916 1980 2026 2066 2078 2257 2079 2036 2045
623 566 595 576 536 18 3 3 4 0 0 0 0 0 0 22 179 404 475 460 518 598 687 838 960 1032 1127 1254 1359 1504 1620 1704 1763 1839 1893 1987 2027 2042 2137 2252 2181 2152
631 588 618 636 612 586 480 2 0 0 0 0 0 0 0 0 6 160 423 424 385 401 453 583 747 926 1054 1134 1225 1350 1538 1696 1752 1788 1865 1909 1971 1998 2014 2051 2143 2175
649 580 617 653 691 692 685 604 264 0 0 0 0 0 0 0 0 0 51 298 324 270 288 322 363 558 783 960 1085 1233 1380 1559 1716 1839 1854 1875 1908 1946 1944 1992 2047 2083
647 590 604 637 680 734 798 810 748 634 0 0 0 0 0 0 0 0 0 4 69 154 184 196 193 218 360 611 807 1011 1202 1353 1568 1755 1858 1918 1936 1880 1857 1890 1968 2009
631 618 623 644 663 708 795 850 868 828 721 358 0 0 0 15 5 0 0 0 0 2 29 76 168 198 266 54 294 789 995 1144 1320 1504 1683 1825 1955 1924 1859 1767 1796 1848
646 657 662 654 686 707 733 786 868 894 916 821 654 0 0 1 14 8 2 0 0 0 0 1 36 108 30 0 0 17 647 991 1108 1265 1430 1669 1779 1845 1833 1866 1786 1759
683 703 692 688 697 707 734 783 819 887 930 934 929 885 730 248 0 0 1 4 4 3 4 3 1 0 0 0 0 0 108 774 981 1059 1217 1388 1584 1681 1742 1785 1810 1714
742 747 731 732 738 743 768 785 777 867 924 961 964 962 964 948 844 620 41 0 0 3 9 24 24 0 0 0 0 0 0 122 682 872 1071 1181 1328 1437 1552 1622 1690 1733
814 834 822 829 830 808 764 817 870 906 946 988 1000 1013 1006 1018 1036 1031 956 792 418 0 0 0 2 0 0 0 0 0 0 1 275 622 826 914 1047 1219 1380 1516 1554 1577
868 851 901 904 874 869 930 969 968 980 1013 1034 1044 1058 1072 1084 1062 1144 1198 1210 1162 1064 915 770 128 106 0 0 0 0 0 0 16 264 518 694 840 976 1134 1283 1407 1555
924 814 864 983 997 919 991 1066 1073 1078 1098 1102 1104 1132 1154 1169 1163 1227 1321 1431 1492 1475 1380 1223 1129 990 813 473 0 0 0 0 0 90 292 490 659 810 973 1163 1314 1426
1011 943 968 1126 1176 1139 1056 1118 1137 1162 1178 1174 1190 1216 1250 1257 1277 1364 1424 1472 1560 1708 1733 1636 1444 1239 1050 849 544 0 0 0 0 55 194 369 527 706 891 1032 1184 1326
1178 1260 1345 1424 1405 1381 1361 1244 1219 1242 1265 1256 1297 1309 1336 1360 1351 1430 1513 1591 1667 1737 1896 2009 1970 1753 1428 1130 885 648 131 0 0 18 130 275 438 625 811 989 1110 1637
1550 1551 1552 1578 1621 1605 1568 1564 1562 1568 1250 1290 1320 1365 1408 1449 1507 1558 1638 1713 1771 1824 1886 2051 2155 2165 2015 1713 1280 937 657 204 0 9 89 206 337 509 710 902 1022 1528
1506 1919 1868 1755 1778 1769 1768 1780 1818 1819 1819 1588 1560 1534 1583 1592 1689 1724 1767 1832 1893 1944 1973 2047 2166 2241 2233 2199 1898 1428 1011 690 445 55 109 173 270 415 596 775 989 1088

ECMWFNIL_con_mucape_081.txt.gz
CAPE
1460 1419 1267 1205 1347 1312 1731 2127 2069 2308 2809 2622 2887 3140 3426 3689 3686 3624 3543 3579 3686 3568 3824 4044 4058 4084 3895 4078 4232 4189 4129 4097 3915 3805 3977 3723 3609 3180 2839 3103 3380 3289
1357 1356 1394 1230 1499 1635 1871 1915 2353 2481 2894 3054 2893 3230 3516 3630 3640 3498 3546 3546 3631 3409 3778 3722 3923 3950 3997 3510 4095 3837 4195 4089 4073 3519 3843 4038 3887 3458 3077 3174 3251 3563
1294 1271 1214 1119 987 1050 839 1404 2084 2356 2449 2527 2760 3135 3177 3173 3262 3401 3522 3459 3315 3029 3612 3712 3662 3928 3823 3869 4108 3721 3311 4151 3772 3105 3836 4041 3726 3532 3331 2969 3214 3579
1430 1251 1024 928 903 973 915 1358 1753 2076 2042 2474 2457 2493 2683 2534 2872 3106 3307 3316 3383 3369 3388 3403 3314 3252 3602 3763 4024 3630 3520 3877 3413 3845 3835 3929 3956 3514 3465 3496 3179 3423
1375 1303 1106 1059 1006 1062 1093 1023 947 1330 1615 1907 2140 2436 2715 2776 2842 2706 2996 3118 3311 3306 3376 3428 3538 3397 3682 3696 3800 3575 3445 3368 3625 3934 3745 3820 3924 3824 3433 3627 3741 3431
1436 1396 1338 1193 1213 1227 959 874 931 1025 1278 1472 1862 2012 2227 2606 2574 2575 2736 2739 2871 2804 2725 2896 3147 3165 3296 3525 3633 3420 3166 2887 3002 3794 3662 3594 3182 3228 2998 3507 3803 3503
1390 1415 1263 1130 1098 1049 993 908 938 976 914 1045 1633 1812 1966 2165 2452 2574 2666 2650 2516 2684 2576 2814 3199 3096 3202 3391 3589 3639 3665 3518 3358 3757 3664 3398 3579 3602 3234 3578 3731 3581
1265 1222 1224 1151 1013 992 994 908 892 954 936 1027 1136 1482 1757 1732 2218 2257 2485 2498 2415 2633 2805 2845 3221 3357 3074 3051 3359 3500 3457 3113 3269 3683 3716 3496 3688 3597 3692 3466 3650 3665
1261 1298 1241 1152 1011 941 889 783 800 821 866 857 636 714 1350 1454 1791 1830 2315 2528 2324 2513 2933 2838 3142 3027 2906 2989 3149 3337 3323 2956 2785 3211 3356 3246 3399 3540 3319 3420 3385 3401
1370 1277 1125 1063 951 908 852 807 714 702 827 707 624 529 824 1255 1421 1604 2173 2440 2299 2477 2731 2708 2882 2792 2743 2806 3063 3130 3146 3299 3278 3283 3233 3097 2946 2950 2996 3308 3182 3272
1254 1218 1137 1047 943 866 866 809 761 681 667 608 570 516 571 812 1254 1528 1884 2215 1858 2104 2374 2521 2541 2669 2739 2511 2660 2790 2984 2934 3042 3281 3286 3247 3118 3174 3142 3288 3301 3185
1251 1178 1100 1076 975 894 836 803 787 717 624 598 537 541 578 595 951 1132 1327 1782 1822 1849 2081 2373 2477 2573 2693 2613 2407 2579 2782 2757 2884 3084 2966 3156 3139 3083 3176 3242 3164 3262
1201 1187 1197 1100 1086 974 869 835 772 730 634 571 540 512 534 526 617 981 1212 1392 1739 1789 1797 2162 2415 2350 2609 2725 2562 2609 2808 2772 2512 2771 2796 2906 3000 2841 2772 2901 2953 3018
1174 1184 1232 1243 1179 1214 1090 921 808 737 728 611 550 504 456 422 446 666 1100 1154 1402 1575 1728 1961 2338 2341 2572 2684 2621 2544 2609 2648 2621 2571 2468 2634 2728 2726 2575 2468 2636 2753
1312 1218 1280 1350 1362 1447 1322 1103 937 862 810 757 658 528 390 357 368 398 711 979 1106 1383 1504 1613 1637 1801 1933 2262 2392 2495 2464 2248 2500 2572 2476 2513 2644 2417 2472 2604 2484 2424
1530 1416 1351 1442 1484 1604 1578 1356 1032 806 666 807 713 628 534 471 407 385 413 717 952 1301 1380 1384 1383 1474 1605 1199 1554 2140 2391 2023 2235 2536 2492 2310 2550 2486 2228 2461 2416 2264
1708 1751 1614 1632 1681 1729 1626 1466 1164 838 761 766 782 747 726 648 554 397 276 304 478 756 1025 1050 1083 1036 557 4 3 695 1699 2312 2259 2516 2563 2424 2212 2452 2417 2121 2214 2455
1516 1645 1728 1748 1765 1674 1652 1544 1251 1057 753 812 847 878 884 864 805 695 558 296 228 317 427 634 820 553 3 0 0 0 326 1475 1739 1694 1670 1947 1955 1768 2032 2062 2113 2170
1569 1727 1854 1727 1743 1684 1697 1622 1489 1208 1076 751 823 879 917 979 988 959 880 736 460 356 248 250 372 105 0 0 0 0 0 229 883 1202 1117 1318 1555 1890 1765 2119 2278 2203
1895 1810 1754 1757 1844 1840 1747 1618 1468 1347 1074 804 816 796 879 954 1006 1036 1041 1026 946 799 595 396 325 82 0 0 0 0 0 41 546 705 1024 1046 1319 1586 1620 1771 2251 2330
2047 1838 1958 2003 2058 1922 1811 1682 1573 1432 1179 816 817 832 867 922 1011 1040 1082 1088 1068 1069 1043 987 883 697 128 0 0 0 0 0 261 555 748 1129 1363 1602 1724 1614 1869 2194
1793 1548 1858 1940 1429 1989 1831 1862 1743 1737 1623 1293 915 868 925 964 1034 1058 1088 1123 1128 1128 1120 1122 1130 1102 1074 959 618 483 0 0 194 741 838 923 1312 1536 1562 1832 1860 1944
1751 1635 1569 1643 1614 1382 1418 1488 1960 1920 1797 1628 1236 973 1025 1053 1071 1097 1127 1143 1154 1169 1159 1194 1253 1300 1305 1286 1252 1160 984 795 666 554 862 947 1001 1237 1520 1652 1761 1836
1604 1530 1473 1413 1520 1585 1587 1817 1617 1734 1861 1695 1516 1250 1089 1108 1119 1147 1180 1194 1204 1234 1225 1271 1336 1404 1455 1534 1553 1493 1369 1265 1114 921 811 938 984 1156 1313 1484 1592 1374
1258 1644 1659 1477 1524 1404 1270 1433 1554 1707 1990 2087 1796 1521 1275 1246 1199 1250 1283 1299 1300 1324 1313 1375 1447 1505 1547 1614 1744 1828 1763 1625 1448 1210 1030 832 767 950 1163 1174 1391 1397
1062 1056 1631 1726 1720 1791 1594 1340 1462 1776 1509 1286 1446 1569 1113 1632 1336 1408 1444 1472 1466 1498 1522 1528 1568 1589 1629 1669 1694 1835 1970 1978 1877 1661 1347 1010 784 650 874 1154 1223 1410

ECMWFNIL_con_mucape_084.txt.gz
CAPE
2202 2291 2226 2213 1979 1568 1480 1667 1478 1554 1845 1614 1828 2033 1920 2518 2475 2677 2916 3000 2846 2774 3353 3829 3657 3651 3791 4072 4792 3913 3998 4099 3474 3549 3951 3870 3463 2986 3001 3043 3264 2826
2208 2301 2263 2171 2049 1942 1842 1751 1855 1583 1766 1917 1685 1873 2292 2505 2774 2651 2680 2622 3065 2776 3141 3343 3396 3536 3593 3490 3799 3775 4026 3814 3633 3059 3489 3768 3696 3241 2885 3131 3310 3555
2246 2248 2324 2139 1794 1971 1586 1646 1872 1855 1648 1757 1568 1738 2291 2469 2701 2629 2509 2452 2360 2004 2529 2972 2970 3124 3224 3366 3711 3591 3374 3724 3509 3052 3504 3843 3539 3216 3467 3147 3068 3170
2527 2181 1991 1843 1557 1675 1779 1586 1775 1912 1576 1464 1517 1434 1450 1406 1569 2209 2479 2585 2320 2200 2176 2527 2404 2382 2792 3007 3347 3263 3100 3418 3099 3119 3530 3758 3459 3447 3575 3312 3081 3204
2491 2236 1898 1786 1620 1615 1689 1594 1425 1619 1562 1177 1373 1570 1647 1856 2095 1957 2041 2636 2636 2443 2446 2514 2659 2393 2525 2814 3058 3066 2713 2916 3131 3289 3363 3390 3736 3541 3223 3410 3519 3339
2612 2448 2192 1909 1836 1850 1655 1746 1623 1442 1523 980 1274 1282 1577 2384 2115 1644 1676 1895 1936 1760 1523 1915 2099 2158 2170 2598 2920 2903 2535 2358 2333 2894 2994 3032 3073 3192 2943 3312 3330 3256
2599 2538 2259 2015 1904 1802 1785 1808 1730 1576 1180 1135 1143 1329 1343 1724 2078 1770 1869 1897 1501 1417 1329 1493 1969 1805 1888 2274 2759 3042 2984 2765 2726 2899 3262 2854 2767 2868 2920 2785 2877 3059
2480 2457 2448 2284 1890 1729 1868 1820 1706 1709 1510 1436 1129 1454 1446 1301 1704 1577 1724 1882 1445 1483 1673 1525 2080 2590 1940 1883 2389 2754 2947 2630 2821 3002 3454 3002 2699 2858 2810 2635 2676 2990
2503 2494 2563 2330 1972 1636 1610 1524 1502 1626 1714 1657 1281 1040 1564 1372 1127 1278 1452 1993 1909 1645 2099 2036 2326 2286 1942 1952 2030 2538 2775 2359 1905 2332 2772 2849 2703 2896 2697 2636 2598 2696
2596 2350 2269 2284 1920 1677 1419 1316 998 1308 1632 1665 1458 882 824 1492 1231 1043 1386 2059 2514 2036 2266 2456 2219 2369 1960 1904 2327 2570 2570 2760 2627 2588 2665 2639 2498 2362 2371 2404 2341 2472
2422 2312 2177 2164 1880 1495 1434 1301 1011 787 1145 1472 1382 993 600 792 1494 1362 1324 1972 2450 2208 2139 2442 2209 2399 2468 1967 1883 2052 2385 2170 2332 2772 2966 2969 2726 2723 2642 2668 2536 2564
2342 2272 2069 2054 1930 1646 1424 1306 1154 848 778 1230 1385 1146 854 548 1069 1542 1286 1753 2365 2134 1826 2234 2397 2321 2514 2377 1713 1671 1927 1960 1918 2374 2530 2817 2875 2654 2712 2798 2649 2748
2208 2194 2158 1966 2065 1905 1570 1404 1213 997 855 858 1314 1238 883 637 632 1344 1578 1561 2197 2197 1578 1761 2323 2391 2498 2738 2315 1655 1815 2180 1610 1662 1993 2019 2183 1874 1566 1627 1781 1820
2060 2116 2173 2153 2096 2243 2063 1661 1475 1301 1183 1103 1242 1446 1068 694 558 696 1383 1526 1644 1888 1735 1505 2038 2562 2777 2875 2778 1941 1771 2200 2194 1503 1362 1621 1622 1620 1348 868 894 1028
2182 2038 2153 2317 2339 2503 2422 2155 1829 1716 1606 1548 1484 1471 1223 983 788 490 741 1223 1326 1410 1507 1390 1201 1932 2221 2519 2791 2600 2015 1705 1983 1886 1328 1114 1406 1390 1426 1541 1082 546
2335 2286 2205 2466 2534 2672 2813 2632 2176 1977 1760 1806 1701 1702 1644 1492 1287 1078 754 823 1202 1432 1500 1355 1126 1022 1728 1728 2142 2344 2237 1414 1224 1719 1776 1354 1353 1585 1303 1103 1254 1081
2198 2483 2432 2503 2750 2862 2958 2975 2546 2152 1994 2091 2058 1974 1959 1893 1681 1445 1185 858 846 1135 1351 1343 1053 678 980 1488 1624 1808 1965 2152 1963 1752 2254 2605 1938 1860 2236 1484 956 918
2350 2686 2661 2640 2725 2994 3162 3226 2799 2419 2310 2281 2204 2086 2262 1989 1834 1698 1628 1292 948 933 1021 1133 1179 751 154 1106 1231 1248 1418 1460 1153 1571 1543 1793 2297 1886 1611 1746 1676 1017
2468 2738 2816 2628 2917 3083 3238 3262 2968 2698 2455 2295 2162 2217 2113 2305 2218 1911 1872 1708 1399 1262 1135 1069 1089 837 97 0 882 806 415 548 711 480 762 1114 1362 1896 2086 1876 1782 1480
2335 2610 2891 2856 2921 3087 3136 2888 2834 2780 2442 2040 1848 1934 2146 2201 2185 2166 2009 2066 1888 1614 1516 1366 1278 933 824 261 0 0 0 230 1091 605 426 564 892 1124 1415 1903 2209 2107
2173 1964 2528 2722 2911 2863 2896 2943 2818 2689 2510 2053 1633 1655 1861 2127 2105 2113 2081 2106 1979 1824 1740 1524 1312 974 898 780 130 0 0 20 966 920 676 637 753 1106 1454 1539 1717 2012
1951 1857 2300 2461 2651 2738 2870 3026 2886 2699 2576 2460 2066 1649 1661 1795 2046 1981 1830 1898 1920 1935 1850 1776 1624 1113 1109 1092 1021 899 714 433 710 1055 982 788 796 915 1192 1637 1867 1924
2396 2449 2812 2505 2652 2541 2579 2797 2736 2620 2626 2562 2328 1989 1770 1590 1697 1952 1910 1823 1799 1881 1857 1854 1796 1389 1142 1140 1162 1130 1060 944 764 768 938 1051 930 984 1086 1356 1786 2107
1934 1976 1938 1975 2333 2302 2225 2498 2668 2570 2723 2619 2375 2145 1901 1762 1738 1808 1915 1664 1494 1725 1642 1761 1821 1533 1181 1182 1198 1179 1167 1157 1104 976 891 1032 1110 1198 1161 1205 1525 1725
1844 2026 1916 1896 1947 2022 2170 2110 2372 2548 2557 2507 2359 2319 2335 2334 1902 1744 1860 1840 1574 1381 1281 1248 1677 1577 1218 1237 1232 1234 1209 1248 1276 1252 1198 1134 1126 1268 1352 1405 1445 1555
1792 1867 2088 2099 2045 1950 1885 2256 2073 2109 2322 2399 2584 2320 2275 2352 2371 2170 2186 2019 1589 1426 1372 1281 1675 1744 2498 1348 1351 1328 1290 1351 1412 1427 1440 1399 1369 1301 1456 1534 1627 1751

ECMWFNIL_con_mucape_087.txt.gz
CAPE
1731 1543 1686 1731 1561 1008 990 1056 1107 1614 1866 2060 1958 1895 2256 2289 2719 2706 2588 2808 2792 2868 3646 4827 3522 3730 3670 4368 4503 3321 3692 2279 3041 3542 2865 3280 3088 2774 2797 2798 3022 2794
1840 1714 1855 1782 1604 1475 1216 1137 1129 1075 1510 1972 1562 1860 1879 2524 2153 2678 3076 2988 2877 2596 3012 3498 3911 4045 3940 3076 3556 3809 4287 3485 3374 2610 3103 3804 3362 2492 2676 3016 3033 3286
1977 1801 1816 1674 1369 1540 1096 1101 1214 1177 1162 1354 1619 1917 2031 1935 2614 2181 2424 2585 2751 2271 2554 3136 3213 3470 3558 3530 4286 3591 3136 3995 3394 1775 3654 3881 3426 2719 2869 2436 2059 2862
2276 1888 1731 1454 1042 1110 1017 934 1089 1325 974 1056 1210 1251 1501 1563 2094 2406 2419 2436 2286 2268 2161 2363 2292 2402 2837 3202 4061 3938 3121 3338 3331 3418 3085 3895 3629 3090 2780 2361 2612 2652
2326 2038 1598 1523 1064 880 1015 863 732 1076 961 830 897 940 1154 1385 1733 1959 2341 2444 2420 2143 2143 2220 2361 2319 2420 2662 2980 3225 3059 3266 2917 3112 3193 3634 3505 3280 3078 2916 3247 2899
2662 2329 1970 1647 1220 978 856 849 873 719 805 540 665 651 889 1409 1572 1791 1925 2023 2107 1866 1649 1720 2048 2006 2020 2268 2758 2850 2543 2161 2526 3196 3380 3315 3143 2921 1934 2875 3157 3075
2578 2610 2076 1630 1396 1186 1107 982 981 906 575 480 559 591 565 942 1610 1781 1893 1802 1677 1609 1319 1376 1708 1658 1661 1758 2435 2661 2763 2540 2650 2575 2768 2782 2777 2839 2232 2611 3608 3545
2223 2189 2293 1807 1341 1128 1249 1020 1015 1014 723 471 333 594 564 565 1368 1524 1615 1651 1632 1617 1492 1226 1498 1839 1570 1530 1867 2354 2579 2280 2214 2590 3142 3135 2815 2701 2270 2633 2972 2980
1970 2167 2131 1752 1256 814 912 701 926 1010 1016 766 358 302 695 685 625 1013 1158 1584 1668 1680 1637 1516 1648 1871 2020 1708 1668 1958 2416 2314 1830 1966 2225 2413 2380 2443 2348 2434 2314 2406
2080 1706 1769 1558 1070 827 747 471 265 574 1064 1070 675 200 195 707 646 673 832 1364 1693 1609 1692 1789 1781 1884 2182 1773 1706 1840 2073 2508 2238 2013 1926 2006 1993 1877 1926 1964 1944 2213
1959 1669 1569 1510 1294 934 670 412 108 57 357 704 644 214 19 228 626 715 900 1292 1444 1824 1766 1882 2122 2161 2156 1874 1672 1739 2060 2131 2158 2221 2072 2149 2032 2011 1804 1862 1956 1928
1986 1689 1432 1485 1247 1046 656 528 294 12 16 366 544 380 88 3 224 533 536 1047 1473 1671 1852 1765 1998 2147 2200 2104 1608 1531 1615 1814 1807 1865 1887 2093 2147 2017 1966 2018 1853 2072
2001 1848 1542 1187 1294 1081 782 628 396 88 9 41 308 388 249 33 10 330 558 653 1158 1579 1578 1710 1792 1860 2218 2270 2137 1725 1369 1619 1504 1458 1633 1665 1704 1627 1396 1472 1662 1766
1976 1778 1744 1599 1403 1599 1176 635 476 352 142 54 155 267 199 58 8 9 333 656 820 1139 1353 1332 1573 1860 2143 2302 2396 2136 1530 1340 1526 1473 1259 1368 1162 1163 1137 725 673 845
2008 1914 1656 1855 1712 2278 1748 1043 560 618 605 362 190 166 186 104 4 0 46 285 561 923 1187 952 687 1262 1695 2089 2239 2346 2055 1242 1245 1684 1606 940 804 783 861 781 437 306
2655 2793 2270 2422 2190 2588 2684 1948 1046 764 540 566 550 357 427 409 219 38 0 58 280 689 1016 852 468 281 1052 1140 1706 2069 2108 1314 1000 1452 1826 1328 915 764 572 518 468 318
2483 2706 2552 2983 2963 2611 2564 2888 2132 1289 1066 1543 1116 754 1109 1346 852 360 104 17 94 331 697 561 328 95 197 270 1159 1494 1822 1865 1416 1218 1599 1627 1216 1296 1009 587 341 249
2303 2577 2542 2772 3086 3072 3026 3063 2732 2177 1915 1770 1478 1124 1905 1003 923 1032 974 336 165 184 216 234 237 118 0 0 791 1242 1709 1729 1086 1090 909 965 1375 1311 1153 1025 861 471
2381 2380 2493 2619 2876 3143 3210 3232 3328 2946 2299 1704 1200 1216 1385 1955 1992 1517 1507 1286 779 718 321 258 238 92 0 0 565 1077 1268 1372 387 191 388 484 652 1137 1372 1397 1233 912
1552 2517 2714 2825 2820 3127 3680 3592 2974 3300 2554 1935 1726 1897 1915 1927 1881 1949 1779 2142 1765 1420 1409 799 585 195 0 0 0 838 1064 1218 1077 275 20 8 280 275 474 901 1582 1762
1539 1323 2172 2889 2786 1802 2632 3172 3562 3273 2699 2063 1621 1778 2070 2238 2123 2172 2122 2138 1978 1948 1836 1411 891 474 106 0 0 0 631 806 1418 940 524 232 61 205 586 382 1178 1356
1785 1618 1390 1482 2147 1588 1622 1675 2149 3286 2631 2345 2142 1836 1867 2023 2427 2206 2146 2136 2218 2197 2067 1963 1521 904 862 757 576 518 501 670 1500 1627 1260 1040 896 677 484 854 758 867
1439 1916 1763 1502 1866 1806 1804 1907 1918 1729 2508 2452 1951 2040 1881 1796 1982 2020 2067 1962 2113 2272 2222 2113 1971 1663 1115 987 913 908 803 799 1405 1508 1581 1540 1471 1522 1438 1088 813 1091
1076 1165 1780 1980 2037 1547 1584 1607 1798 2091 2072 2490 2002 2284 2260 1890 1810 1936 2122 2236 2117 2031 1848 2226 2114 1917 1552 1328 1091 929 792 1105 1668 1618 1563 1632 1668 1761 1724 1655 1568 1344
882 1108 1418 1478 1649 1725 1509 1412 1403 1412 1760 1551 1572 1828 2504 2416 2076 2089 2004 2028 1960 2016 1906 1928 2108 2030 1744 1629 1476 1271 1093 1241 1620 1588 1553 1612 1646 1846 1921 1930 1894 1770
490 890 1159 1132 1258 1324 1862 1775 1653 1928 2031 2250 2155 2132 2367 1977 2687 2462 2176 1666 1514 1627 1983 1804 1737 2101 1917 1653 1601 1509 1362 1278 1689 1692 1680 1770 1906 1899 2110 2103 2114 2116

ECMWFNIL_con_mucape_090.txt.gz
CAPE
2301 2388 2393 2198 2240 2139 2283 2256 1774 1966 2587 2160 2244 2515 2714 3079 2528 2572 2729 3109 3299 3988 4103 4374 4425 4154 3696 3916 3872 3885 3947 3816 4140 3522 3714 3968 3918 2611 2854 2445 2220 2812
2154 2330 2470 2076 2600 2560 2541 2075 2230 2307 2570 3089 2262 2787 2580 3026 2773 2595 2854 2965 3129 3344 4253 3670 4039 4066 3782 3920 4107 3766 3743 3580 3558 2800 3441 3031 3838 3205 2763 2650 2359 3223
1918 2040 1945 1866 1453 1578 876 1263 1896 2014 2035 1822 1896 2542 2464 2306 2585 3076 3107 2993 2565 2329 3576 3569 3603 3828 3838 4233 4177 4255 3742 3516 3461 2620 3538 4283 4002 3269 3452 2396 2560 2133
2007 1604 1262 1270 1477 1352 916 1258 1896 1752 1496 1898 1752 1232 1420 1253 2271 2419 3216 3046 3126 2807 2677 2812 2914 3128 3608 3796 3924 3715 3779 4111 4217 3587 3749 4524 4689 3810 3311 3565 3517 2004
1828 1753 1546 1500 1381 1480 1262 1099 903 1068 983 1349 1275 1810 2364 2212 2397 2164 2783 2946 3188 2672 2949 3020 3175 2912 3468 3871 3806 3070 3079 3852 3604 4075 3718 4391 4937 4229 3520 3714 3040 3043
2406 2215 2098 1682 1563 1774 1232 953 949 973 966 840 1170 1244 1299 1977 2225 2052 2274 2215 2173 1799 1702 2110 2468 2294 2639 3449 3354 2996 2809 2878 3001 3706 3445 3692 3218 3018 2869 2769 3303 3379
2232 2257 1743 1572 1172 1264 1305 1020 918 1008 766 623 1077 1086 1025 1186 1818 2128 2389 2408 1945 2116 1654 2026 2603 2507 2348 2816 3094 3540 3409 3257 3018 3751 3413 3624 3555 3450 2307 2785 3141 3450
2406 1895 1799 1722 1276 928 1058 969 860 898 1108 919 678 1020 892 559 1486 1163 2032 2165 1988 1968 1870 2055 2653 2874 1877 2189 2845 3154 3009 2323 3130 3555 3697 3522 3485 3486 2846 2581 3325 3443
2254 2173 2011 1676 1242 853 657 594 770 708 914 839 390 414 795 808 1366 1189 1890 2263 1946 2139 2180 2000 2699 2317 1931 1988 2262 3069 2841 2268 1680 3001 3252 3172 3319 3329 3040 2858 2915 3265
1721 2232 1835 1596 1040 790 662 482 597 619 798 687 427 314 421 707 914 1172 1834 2285 2243 2650 2531 1930 2554 1964 1870 1899 2625 2759 2656 2840 3120 2828 2551 2743 2717 2693 2582 2681 2686 2897
974 1108 1538 1609 1139 745 634 529 493 587 643 574 341 129 268 387 807 1425 1756 2011 1551 2144 2392 2204 2231 2146 2299 1789 1840 2031 2423 2291 2395 2758 2868 2840 2564 2693 2768 2763 2559 2428
1382 944 980 1178 1256 1029 549 495 457 426 631 667 392 236 222 368 658 675 1410 1703 1582 1734 2064 2221 2206 2255 2380 2378 1822 1585 1964 2014 2515 2709 2372 2562 2548 2728 2640 2524 2252 2457
1213 729 812 640 899 1005 621 421 273 124 230 556 588 466 160 78 338 549 775 1443 1550 1652 1741 2196 2300 2304 2601 2761 2512 2200 2042 1943 1937 2326 2263 2334 2208 2052 1876 2042 2054 2053
1381 1688 1657 1148 754 1270 994 458 279 104 68 198 506 503 224 36 54 331 663 708 1335 1386 1700 2189 2465 2312 2850 3066 2678 2315 2117 2306 2076 1947 1782 1921 1798 1990 1738 1516 1736 1704
1756 1723 1455 1241 1208 1732 1667 1207 599 436 211 205 453 241 132 115 7 33 386 419 688 1220 1519 1687 1819 1923 1943 2510 2626 2528 2226 1696 1810 1840 1846 1730 1736 1448 1549 1544 1239 1112
1693 1534 1395 1552 1184 1069 2068 2174 1565 789 294 244 399 364 356 426 228 109 151 466 511 977 1296 1175 1288 1400 1601 1428 1752 2171 2219 1525 1440 1613 1554 1568 1908 1710 1331 1212 795 539
1674 1669 1632 1436 1768 1683 1315 1158 1824 1309 870 1281 1278 846 624 946 710 349 82 120 430 491 806 660 809 697 997 1232 1440 1663 2182 2280 1858 1904 1836 2020 1938 1993 1422 875 721 750
2031 2066 2230 2072 1700 1805 1999 1341 1356 1273 1558 2330 2271 1212 2329 1921 841 641 506 126 159 356 485 613 698 456 9 834 1225 1475 1658 2150 2029 1748 1489 1756 1888 1644 1635 1084 778 589
1874 1864 2036 2048 2207 2284 2006 1692 1996 1816 1472 1221 1417 1334 1531 1823 1895 1405 1117 922 364 298 235 412 615 403 0 0 635 1210 1392 1540 1694 1624 1101 899 1230 1603 1482 1434 1174 894
2023 2066 1925 2082 2101 1896 1766 1610 1459 1849 1640 1424 1096 1147 1274 1936 1601 1441 1546 1582 1342 1233 1447 743 492 428 0 0 0 415 1058 1209 1420 1068 1078 757 793 1220 1368 1447 1727 1704
1303 1723 2014 2012 2205 2064 1804 2080 1594 1579 1726 1748 1670 1435 1175 992 1218 1778 1691 1999 1773 1604 1612 1467 586 107 0 0 0 0 136 893 1346 826 424 400 545 887 1278 1118 1572 1680
990 1086 1275 1577 1984 2084 2063 1825 1953 1757 1646 2472 2045 1899 1649 1704 1304 1127 1380 2024 2126 2153 1712 1586 1151 250 0 0 0 0 0 10 977 1236 716 366 276 284 385 811 1086 1573
760 880 988 1193 1461 1959 2009 2051 2018 1919 2040 2286 2297 2305 1751 1429 1741 1248 1393 1356 1358 1703 1896 2163 1972 1618 1242 706 0 0 0 135 922 1264 1243 989 742 687 762 667 468 389
737 781 865 1059 1154 1133 1497 2097 2086 1971 1898 2376 2449 2279 2068 1594 1190 1164 1348 1305 1175 1185 1332 1538 1979 2237 2056 1695 1222 697 0 210 850 1336 1452 1607 1425 1443 1530 1567 1424 1211
764 722 724 773 987 1188 1342 1383 1549 1441 1624 1727 2040 2146 2154 2090 1825 1307 1241 1236 1313 1248 980 1096 1452 1750 1918 1926 1707 1323 958 625 961 1308 1518 1663 1640 1788 1908 1823 1950 1888
574 688 667 667 729 850 987 1170 1300 1296 1277 1265 1622 2159 1748 1651 2081 1996 1602 1370 1670 1618 1242 1042 1174 1593 2057 1820 1880 1720 1406 1070 1277 1569 1430 1581 1768 1845 1907 2060 2020 2068

ECMWFNIL_con_mucape_093.txt.gz
CAPE
2351 2159 2100 2021 2264 2020 2276 2149 2613 2542 2520 2485 3313 2733 2660 2463 2301 2185 2652 3454 2871 3293 3595 3705 3572 3179 3471 3283 3265 3494 3788 3179 2942 3187 3578 3682 3645 3555 3294 2993 2743 2420
2237 2378 2459 2383 2223 2407 2228 2146 2240 2314 2260 2351 2692 2666 3038 2647 2440 2504 2586 3200 3283 3813 3710 4023 3706 3410 3614 3285 3474 3205 3092 2557 2582 3237 2846 3308 3576 3000 2996 2842 2501 3327
1988 2257 2351 2095 2306 2197 2279 2266 2061 2186 2335 2415 2204 2429 2325 2977 3014 2616 2597 2972 3321 3742 3906 4013 3879 3746 3703 3582 3360 3403 2866 2642 2399 2801 3050 3749 3845 3138 3047 2741 2460 2193
1822 2062 2159 1952 2055 2067 2104 2022 2055 2083 2054 2259 2218 2634 2015 2455 2659 3089 2774 3500 2951 3490 3804 3677 3561 3691 3546 3967 3597 3613 3242 2863 3017 2968 2894 3842 3780 3121 3011 3071 3344 2416
1694 1792 1971 1921 1694 1849 1677 1507 1920 1799 1876 1717 2092 2199 2075 1898 2372 2500 3130 3060 2507 3115 3457 3346 3294 3330 3585 3745 3452 3545 3618 3340 3354 3593 3017 3574 4269 3729 2999 2989 2582 2603
1619 1601 1671 1760 1638 1536 1432 1142 1257 1578 1535 1612 1784 1514 1808 2199 2225 2153 3020 3042 2754 2882 2817 2994 2952 3147 3489 3512 3211 2914 3064 3413 3521 3685 3329 3528 4045 3994 3434 3146 2593 2510
1654 1604 1542 1422 1415 1548 1420 1164 1108 1211 1192 1380 1600 1549 1578 2494 2172 1998 2544 2653 2786 2641 2503 2549 2835 2990 3208 3540 3190 2777 2578 2788 3019 3075 3243 3064 3261 2954 2747 2564 2440 2409
1695 1667 1612 1525 1392 1477 1423 1191 1108 1100 1026 868 1347 1383 1428 1556 2199 2121 2245 2355 2322 2299 2068 2320 2516 2608 2812 3160 3207 2822 2511 2824 2806 2795 3098 2880 3006 2880 2850 2586 2514 2110
2005 1767 1744 1666 1505 1342 1447 1176 1055 970 1079 837 890 1172 1266 1266 1649 1966 2207 2220 2147 2118 2042 1957 2202 2258 2303 2552 2922 2857 2767 2846 2887 2757 3118 2938 2963 2853 2614 2468 2377 2564
1989 2091 1973 1785 1585 1402 1184 1178 1042 889 843 932 686 906 1086 1130 1151 1315 1871 2174 2130 2093 1992 1861 2089 2217 2194 2178 2466 2493 2605 2588 2411 2607 2888 2921 2869 2855 2891 2632 2139 2002
1631 1930 2053 1950 1690 1463 1189 924 857 823 514 620 615 394 366 877 1061 1127 1169 1998 2069 2042 2001 1734 1917 2142 2086 1898 2060 2323 2388 2371 2300 2627 2486 2498 2421 2538 3153 2787 2351 2071
1366 1512 1564 1778 1779 1466 1142 847 794 358 353 510 507 406 181 303 514 1116 1117 1408 1926 1881 2233 1817 1601 2048 1895 1670 1567 1963 2408 2299 2153 2185 2561 2351 2328 2415 2544 2450 2238 2251
958 717 996 1607 1746 1535 1045 660 387 355 174 470 488 403 221 78 214 590 1190 1283 1462 1596 1747 2074 1593 1871 1926 1700 1491 1391 1622 2182 2147 1991 1952 2160 2352 2310 2246 2247 2203 2113
1016 956 976 1012 1426 1484 1301 767 416 245 226 372 462 436 294 110 92 216 562 1340 1360 1329 1321 1657 1877 1705 1788 1951 1895 1844 1656 1533 1692 1830 1980 1952 1881 1873 1946 2052 2022 1885
1391 1386 1484 1891 1474 1028 1126 1079 601 508 471 335 425 577 474 271 47 146 216 959 1330 1274 1206 1339 1759 1781 1681 1904 2016 1888 1949 1968 1482 1409 1720 1901 1860 1761 1688 1609 1589 1596
1800 1926 1842 1671 1296 1100 942 924 934 806 578 408 276 361 631 352 235 12 215 332 878 1178 1124 1172 1451 1795 1896 1726 2064 2095 1854 1822 1925 1696 1500 1648 1789 1757 1660 1586 1516 1472
1754 1707 1500 1528 1621 1357 1118 1073 1121 1202 717 502 468 465 549 704 248 144 35 270 332 796 1055 1014 1125 1466 1815 1757 1760 2136 2158 1913 1749 1742 1705 1517 1545 1588 1536 1438 1442 1440
2190 1866 1888 1700 1775 1943 1826 1486 1410 1328 1008 739 570 539 536 868 1018 172 26 95 266 342 691 953 965 1082 1460 1735 1701 1777 2047 2078 1915 1709 1562 1486 1411 1384 1383 1348 1269 1209
2023 2303 2159 1951 1705 1788 1711 1670 1534 1426 1346 1054 754 642 636 661 709 1184 1072 62 70 181 306 615 868 968 1049 1176 1404 1539 1626 1824 1835 1794 1622 1454 1384 1283 1238 1295 1274 1142
1622 1727 1976 2122 2206 2012 1793 1704 1711 1552 1544 1630 1602 1374 1016 858 819 857 1034 1273 1004 204 216 349 541 737 854 867 848 1015 1279 1449 1535 1618 1636 1542 1400 1322 1251 1228 1272 1245
1212 1364 1398 1529 2104 2088 1798 1641 1687 1759 1828 1616 1535 1425 1398 1156 1002 971 984 1121 1223 1470 1606 939 788 508 444 476 622 621 153 1062 1194 1348 1479 1515 1454 1284 1187 1161 1215 1247
890 984 1214 1384 1530 1720 1766 1866 1772 1662 1664 1850 1827 1635 1556 1524 1528 1392 1086 1009 1145 1197 1312 1431 1528 1503 860 724 616 542 455 0 648 1112 1277 1288 1296 1306 1175 1006 953 1064
792 855 836 1106 1211 1365 1419 1605 1974 1938 1872 1995 1922 1995 1941 1834 1646 1513 1428 1341 1266 1170 1112 1124 1377 1488 1490 1552 1525 1135 813 611 338 644 1065 1125 1010 969 1054 1040 878 881
752 763 772 802 916 1137 1184 1261 1440 1863 2011 2236 2189 2098 2020 1939 1834 1677 1691 1628 1378 1193 1159 1083 1132 1319 1388 1411 1536 1738 1779 1749 1456 976 712 942 941 576 181 85 183 885
592 662 696 702 750 802 973 1065 1171 1287 1338 1331 1374 1442 1667 1782 2018 1847 1789 1766 1662 1555 1314 1159 996 1114 1266 1353 1379 1396 1636 1815 1933 1946 1708 1297 972 722 546 524 596 1191
382 480 574 643 740 788 783 739 935 1190 1390 1340 1311 1317 1599 1834 1813 1752 1835 1741 1637 1677 1595 1586 1491 1415 1331 1131 1185 1166 1371 1471 1710 1907 1874 1470 1149 1118 999 859 850 981

ECMWFNIL_con_mucape_096.txt.gz
CAPE
1843 1699 1542 1488 1656 1784 1618 1607 1641 1826 2116 2058 2070 2291 2304 2552 2729 2774 2870 2914 2749 2696 2728 3009 3234 2614 2959 2909 2963 3013 3397 2935 2845 3201 3345 3336 3368 3445 3411 3304 2981 2758
1888 1524 1666 1323 1592 1868 1736 1796 1768 1736 1878 2091 2450 2260 2300 2276 2452 2675 2744 2777 2844 2661 2671 2990 3147 2589 2757 2796 2868 3008 3235 2967 2767 3411 2907 2974 3128 3326 3306 3080 2739 2516
1824 1554 1887 1279 1663 1712 1830 1884 2031 1867 1792 1799 2181 2575 2379 2334 2236 2272 2484 2632 2753 2687 2941 3037 3029 2747 2866 2773 2878 2798 2857 2758 2642 2486 3017 2725 3005 3368 3227 2987 2612 2369
1674 1699 1733 1550 1621 1636 1672 1654 1862 2124 1981 1896 1900 2296 2416 2612 2268 2114 2116 3106 2698 2760 3014 3244 3133 3002 3143 2996 2849 2777 2588 2421 2271 2323 2682 2789 3347 3521 3314 2832 3180 3150
1596 1729 1605 1743 1674 1706 1706 1641 1577 1764 1993 2014 1982 1952 2042 2265 2463 2342 2094 2582 2690 2804 3082 3298 3257 3100 3265 3287 2906 2812 2913 2600 2586 2951 2977 2732 2765 3595 3575 3162 2757 2655
1614 1614 1694 1562 1708 1741 1748 1691 1635 1581 1748 1863 1911 1873 1924 1916 2234 2545 2364 2472 2589 2666 3042 3298 3283 3160 3209 3337 3365 3094 3063 3139 3038 3069 3131 3029 2880 3398 3963 3609 3261 2872
1605 1484 1634 1612 1518 1623 1650 1694 1707 1657 1620 1688 1818 1961 1894 1831 1884 2390 2471 2476 2432 2522 2781 3046 3207 3153 3024 3206 3215 3164 3013 3014 3180 3250 3260 3264 3238 3059 3335 3376 2968 2816
1523 1387 1452 1577 1539 1416 1487 1508 1579 1660 1658 1582 1571 1584 1805 1911 1825 1818 2490 2486 2394 2377 2601 2726 2957 3037 2885 3055 3085 2979 2845 2645 2591 2845 3006 3123 3166 3066 3053 2934 2702 2624
1326 1284 1315 1436 1515 1464 1350 1350 1385 1332 1288 1401 1393 1345 1380 1489 1734 1761 1874 2456 2461 2322 2395 2502 2598 2749 2786 2850 3038 3020 2938 2759 2430 2436 2507 2679 2773 2831 2814 2760 2634 2505
1846 1372 1230 1254 1329 1425 1432 1323 1297 1281 1099 1012 1118 1174 1235 1304 1424 1756 1767 2057 2352 2404 2379 2414 2407 2388 2506 2652 2846 2959 2871 2682 2467 2415 2490 2491 2575 2665 2696 2715 2584 2318
2076 1913 1683 1384 1196 1194 1217 1222 1206 1254 1156 946 920 952 1008 1184 1232 1550 1784 1860 2014 2159 2288 2296 2207 2141 2250 2389 2532 2644 2657 2557 2449 2380 2426 2540 2617 2648 3011 2628 2589 2421
1910 1964 1970 1852 1610 1280 1245 1140 1094 1166 1236 1045 866 898 828 866 1058 1138 1623 1806 1838 1882 1930 1972 1968 1954 1980 2112 2195 2257 2371 2410 2404 2336 2264 2297 2386 2492 2522 2560 2549 2497
1709 1862 1925 1952 1847 1597 1341 1272 1189 1134 1181 1167 912 825 808 746 823 1007 1117 1488 1797 1836 1847 1865 1877 1856 1836 1898 1970 1992 2086 2214 2234 2194 2126 2119 2204 2262 2272 2220 2258 2378
1600 1672 1757 1944 1988 1876 1616 1416 1276 1211 1111 1062 1005 853 706 720 721 787 975 1024 1188 1574 1763 1829 1873 1842 1767 1729 1790 1816 1842 1939 2039 2022 1992 1936 1988 2161 2255 2227 2143 2166
1468 1291 1419 1729 1757 1463 1632 1526 1322 1134 1118 1065 925 823 754 665 637 571 404 827 934 1018 1347 1631 1803 1844 1806 1760 1626 1663 1627 1588 1649 1867 1938 1924 1868 1815 1865 2023 2089 2090
1490 1390 1159 1171 1348 1363 1210 1294 1250 1140 1011 993 850 733 671 596 584 591 494 492 711 908 984 1184 1480 1699 1729 1656 1573 1536 1515 1423 1332 1258 1364 1527 1672 1729 1679 1617 1664 1726
1227 1216 1249 1263 1203 1147 921 868 1020 1112 1129 1003 820 593 466 450 544 578 542 529 500 827 950 981 1049 1219 1434 1530 1516 1554 1540 1470 1428 1430 1399 1380 1395 1414 1386 1402 1431 1486
1481 1537 1342 1218 1144 1003 883 940 946 929 1043 1155 1062 798 551 327 416 540 568 556 527 463 750 909 945 994 1128 1322 1425 1436 1451 1484 1398 1372 1386 1435 1466 1494 1532 1561 1505 1452
1695 1676 1490 1313 1290 1334 1280 1162 1074 951 934 941 853 958 830 499 224 830 819 635 560 490 370 646 848 873 969 1081 1213 1289 1324 1352 1373 1341 1286 1257 1287 1352 1426 1492 1534 1506
1414 1597 1680 1806 1959 1731 1642 1490 1352 1178 1048 1117 1196 1329 959 692 434 500 675 903 962 622 15 137 510 742 810 885 1003 1119 1203 1249 1279 1414 1458 1434 1387 1345 1323 1322 1319 1320
1474 1402 1465 1547 1665 1871 1846 1630 1573 1552 1502 1506 1502 1427 1253 1196 1050 823 718 854 1034 1273 1290 545 218 239 517 713 781 928 1078 1163 1186 1259 1408 1474 1499 1491 1458 1360 1207 1097
1217 1247 1238 1263 1298 1333 1562 1738 1750 1749 1601 1676 1702 1653 1480 1353 1378 1303 1256 1157 1035 1046 1053 1014 1211 1111 760 217 210 710 781 924 1129 1254 1302 1349 1392 1437 1433 1406 1329 1175
780 928 961 1051 1078 1177 1290 1298 1409 1513 1693 1987 1967 1900 1866 1751 1659 1563 1467 1360 1301 1253 1122 956 903 1087 1123 1121 1107 984 230 150 533 800 882 920 968 1097 1204 1255 1275 1244
349 586 701 702 789 876 980 1087 1076 1184 1263 1385 1402 1671 1800 1944 1912 1812 1600 1459 1419 1442 1414 1356 1258 1036 922 1072 1140 1238 1282 1205 975 724 513 30 12 171 412 828 998 1099
388 381 359 555 664 751 826 850 800 959 1016 1098 1187 1304 1380 1436 1693 1722 1725 1632 1498 1491 1472 1463 1476 1424 1228 1031 934 979 1075 1157 1248 1332 1367 1393 1344 1143 935 668 332 572
254 266 338 422 561 588 697 722 736 841 768 851 832 973 1188 1352 1673 1752 1713 1650 1609 1523 1542 1533 1515 1501 1480 1367 1181 1085 1017 971 982 1034 1084 1035 994 1030 1205 1374 1416 1314

ECMWFNIL_con_mucape_099.txt.gz
CAPE
1354 1416 1370 1371 1328 1365 1383 1468 1628 1712 1757 1897 1938 1886 1996 2111 2198 2409 2592 2724 2766 2763 2782 2800 2847 2796 2666 2554 2455 2504 2682 2682 2868 2795 2724 2922 3007 3107 3208 3244 3059 2709
1323 1430 1505 1363 1337 1431 1355 1361 1423 1478 1669 1836 1859 1842 1996 2074 2257 2402 2503 2675 2765 2752 2699 2678 2772 2796 2557 2535 2590 2600 2718 2856 2778 3129 2846 2855 2893 2828 2921 2948 2941 2792
1641 1430 1484 1463 1379 1392 1429 1366 1349 1362 1592 1792 1827 1776 1935 2094 2236 2391 2464 2569 2675 2730 2648 2524 2689 2792 2448 2409 2503 2576 2711 2792 2701 2664 2719 2439 2356 2774 3054 3150 3002 2593
1721 1773 1613 1488 1481 1484 1483 1458 1404 1367 1466 1698 1789 1880 1861 2039 2129 2246 2420 2861 2577 2643 2615 2481 2580 2690 2551 2366 2358 2343 2497 2646 2623 2488 2390 2505 2758 2998 2984 2956 3064 2887
1472 1713 1775 1633 1424 1368 1525 1486 1469 1417 1395 1522 1690 1886 2015 2072 2096 2090 2153 2292 2459 2544 2555 2544 2570 2509 2507 2421 2370 2268 2301 2281 2330 2288 2173 2172 2285 2591 2886 3178 3350 3200
1256 1457 1644 1651 1400 1309 1492 1533 1494 1530 1455 1448 1492 1604 1918 2070 2175 2156 2102 2087 2115 2292 2395 2533 2612 2522 2536 2560 2514 2361 2306 2364 2307 2330 2397 2469 2464 2588 3239 3547 3435 3109
1254 1286 1452 1531 1424 1269 1328 1444 1500 1558 1644 1644 1637 1626 1623 1811 2042 2178 2193 2102 2034 2143 2309 2510 2594 2588 2589 2638 2692 2614 2545 2485 2508 2577 2630 2645 2641 2780 2886 3030 3128 3004
1317 1276 1337 1432 1449 1381 1306 1306 1318 1340 1386 1484 1626 1762 1753 1711 1708 1759 2026 2123 2127 2101 2224 2442 2555 2548 2582 2667 2702 2776 2788 2802 2751 2699 2776 2773 2793 2796 2812 2799 2816 2791
1316 1301 1283 1367 1428 1392 1384 1348 1324 1319 1300 1278 1305 1403 1537 1614 1635 1635 1664 2057 2142 2138 2142 2290 2463 2538 2585 2655 2725 2722 2698 2681 2660 2615 2503 2414 2388 2406 2430 2474 2565 2623
1261 1256 1262 1288 1336 1367 1325 1331 1372 1396 1386 1370 1383 1368 1359 1388 1492 1568 1588 1765 2074 2149 2140 2162 2252 2395 2477 2540 2626 2674 2621 2555 2548 2541 2514 2325 2127 2135 2182 2267 2328 2371
1187 1216 1222 1206 1203 1237 1271 1250 1244 1258 1303 1349 1374 1398 1391 1356 1300 1266 1359 1502 1808 2047 2082 2056 2090 2157 2259 2382 2481 2530 2536 2510 2504 2490 2415 2263 2117 2076 2445 2182 2238 2317
1278 1247 1236 1206 1156 1120 1129 1154 1150 1129 1135 1148 1171 1192 1158 1064 1016 1014 1073 1278 1432 1751 1948 2001 2005 1997 2043 2155 2291 2370 2419 2462 2447 2402 2304 2166 2084 2090 2147 2267 2297 2348
1508 1394 1316 1283 1245 1164 1093 1068 1072 1100 1085 1069 1074 1047 1084 1025 876 784 841 1040 1229 1405 1636 1837 1935 1967 2004 2061 2101 2104 2159 2282 2354 2359 2280 2122 2025 2010 2042 2107 2216 2253
1862 1748 1718 1672 1564 1349 1176 1052 1057 1079 1085 1119 1060 1042 1020 1027 996 786 715 761 1032 1248 1411 1563 1736 1862 1923 1937 1903 1875 1892 1958 2052 2105 2099 2050 2010 2002 1988 1956 1949 1968
1939 2061 2061 1979 1826 1894 1710 1510 1355 1081 1023 999 999 943 933 981 1016 922 684 651 694 998 1265 1402 1500 1567 1615 1648 1663 1665 1657 1696 1753 1816 1867 1884 1878 1877 1872 1855 1855 1862
1727 1767 1674 1630 1447 1369 1665 1944 1830 1665 1391 1023 960 928 914 941 1000 1002 848 133 295 540 850 1159 1376 1451 1487 1493 1512 1534 1554 1547 1532 1568 1647 1714 1738 1720 1678 1641 1651 1714
1285 1476 1421 1363 1319 1062 1378 1219 1881 1898 1822 1578 1197 993 904 839 808 783 767 738 79 274 452 686 919 1196 1372 1452 1470 1471 1471 1485 1491 1481 1458 1488 1556 1585 1541 1466 1448 1484
1038 1036 1052 1065 1128 1129 1007 1186 1408 1536 1758 1752 1560 1254 970 780 691 638 645 626 227 35 186 350 479 695 895 1154 1319 1383 1424 1439 1452 1458 1429 1354 1287 1291 1289 1247 1195 1190
818 908 859 998 1128 1073 976 921 785 773 1026 1282 1372 1390 1198 1001 811 705 596 535 444 0 2 125 348 366 568 726 923 1148 1298 1368 1394 1384 1318 1233 1182 1155 1132 1113 1084 1090
897 955 1009 1018 980 929 776 694 776 1006 930 1101 1041 1031 1020 1045 1042 964 825 684 524 263 0 2 24 178 4 0 676 782 950 1105 1202 1224 1213 1165 1145 1138 1137 1139 1146 1140
817 865 950 1098 1370 1599 1699 1547 1326 1163 1514 1569 1526 1475 1365 1250 1062 1038 980 930 873 745 867 923 601 118 0 0 0 506 679 746 826 910 990 1057 1099 1107 1095 1085 1061 1049
922 984 932 981 1017 1107 1255 1222 1304 1418 1286 1407 1553 1602 1605 1575 1348 1150 1094 925 688 655 610 812 875 918 608 0 0 0 16 529 663 725 783 838 915 1055 1130 1154 1167 1177
785 934 1046 1072 1080 1036 1061 1118 1191 1089 1104 1272 1378 1484 1567 1591 1660 1641 1543 1366 1166 1032 916 806 845 821 838 868 701 535 461 119 292 421 628 652 729 801 940 1086 1192 1256
626 642 655 695 710 837 961 995 1002 954 1000 1012 1041 1206 1289 1393 1419 1442 1392 1439 1456 1372 1253 1124 1040 938 839 771 782 880 797 599 419 276 53 488 569 650 751 866 969 1221
431 426 436 451 479 567 636 856 886 920 953 964 1003 970 1029 1026 1188 1260 1354 1391 1457 1454 1341 1299 1299 1268 1178 1081 978 855 811 865 923 884 762 625 536 508 510 543 596 805
269 321 388 349 344 357 437 556 703 790 825 817 802 825 866 972 1021 1111 1262 1316 1445 1568 1466 1337 1348 1378 1330 1338 1323 1226 1114 956 816 776 891 1002 1084 1126 1125 1043 913 799

ECMWFNIL_con_mucape_105.txt.gz
CAPE
2471 2517 2538 2552 2722 2688 3049 3201 2984 3038 3275 3029 3000 2987 3158 3401 3335 3372 3362 3675 3797 3847 4025 4126 4184 4105 3739 3872 4091 3864 3663 3566 3599 3748 3720 3532 3361 3143 2979 3116 3274 3288
2346 2497 2672 2431 2891 3122 3322 3156 3275 3141 3478 3549 3144 3201 3442 3282 3383 3274 3356 3582 3797 3676 3973 3878 3968 3917 3908 3731 4009 3666 3737 3522 3487 3413 3740 3737 3540 3133 2900 3078 3042 3380
2059 2349 2394 2266 2115 2372 2072 2588 3055 3150 3060 3052 3154 3541 3392 3309 3276 3541 3436 3419 3414 3324 3899 3994 3886 3937 3659 3877 4114 3737 3395 3632 3480 3398 3857 3795 3587 3009 3107 2686 2826 3020
2152 2097 1886 1810 1887 2192 2229 2524 2784 2966 2821 3103 3064 2899 3020 2742 3188 3461 3668 3732 3626 3674 3681 3700 3591 3502 3688 3755 4120 3819 3625 3714 3410 3634 3667 3780 3636 3188 3146 3226 3073 2975
1980 2121 2099 2058 2099 2434 2549 2464 2216 2440 2528 2679 2709 3051 3373 3440 3415 3111 3392 3596 3946 3638 3830 3881 3886 3589 4005 3943 4014 3814 3685 3501 3689 3838 3583 3521 3687 3401 3120 3139 3193 3143
2273 2332 2548 2454 2593 2670 2398 2392 2432 2335 2408 2427 2707 2812 2848 3253 3177 2993 3110 2920 2975 2896 2992 3193 3499 3435 3429 3755 3958 3662 3198 2981 3187 3772 3521 3335 3051 3075 2926 3223 3291 3172
2028 2150 2074 2203 2252 2316 2412 2412 2536 2557 2276 2288 2701 2813 2786 2960 3093 3222 3310 3098 2691 2987 2755 3216 3812 3640 3664 3854 4003 4079 4045 3859 3585 3768 3490 3166 3315 3264 3036 3128 3375 3336
1816 2030 2083 2186 2031 2145 2252 2247 2418 2667 2702 2764 2632 2760 2887 2784 3112 2902 3120 3091 2853 3073 3298 3237 3843 4194 3680 3621 3828 3920 3854 3308 3529 3909 3764 3470 3393 3492 3390 3171 3160 3290
1822 2042 2158 2193 1922 1871 1862 1804 2179 2393 2704 2662 2326 2326 2765 2715 2917 2678 3282 3441 3048 3263 3657 3487 3973 3706 3606 3778 3841 3952 3911 3386 3021 3460 3574 3378 3308 3535 3181 3288 3291 3291
1880 1876 1729 1813 1731 1802 1811 1784 1774 2078 2530 2406 2292 2041 2297 2714 2724 2742 3256 3664 3324 3481 3703 3538 3698 3541 3594 3697 4016 4030 3954 4052 3867 3770 3503 3405 3321 3198 3035 3264 3210 3278
1644 1615 1664 1715 1634 1567 1688 1726 1789 1813 2150 2165 2145 2005 2084 2341 2830 2941 3161 3331 2866 3050 3306 3475 3436 3547 3771 3447 3624 3717 3972 3703 3694 3879 3751 3699 3590 3662 3538 3516 3492 3256
1835 1608 1624 1710 1658 1575 1579 1627 1684 1706 1854 2122 2075 2076 2182 1994 2385 2544 2594 3025 2933 2883 2927 3189 3452 3611 3716 3652 3338 3453 3748 3706 3684 3909 3700 3769 3711 3570 3701 3652 3357 3398
2123 2036 1927 1686 1862 1746 1660 1712 1698 1637 1648 1777 2011 2033 2026 1841 1865 2169 2421 2509 2870 2789 2653 2924 3251 3092 3594 3775 3591 3626 3753 3774 3408 3634 3694 3688 3652 3456 3164 3140 3248 3198
1830 2100 2049 2180 2313 2420 2194 1884 1734 1672 1760 1739 1883 1933 1874 1800 1706 1760 2089 2062 2278 2393 2565 2701 2974 2939 3337 3602 3467 3323 3366 3521 3616 3464 3229 3350 3426 3484 3233 2836 2950 2969
1481 2074 2282 2500 2612 2556 2512 2252 1959 1852 1849 1840 1783 1692 1556 1608 1610 1519 1501 1604 1614 1876 2002 2086 1876 2171 2348 2840 3037 3392 3194 2906 3129 3320 3304 3311 3530 3173 3143 3374 3169 2690
939 1104 1490 1780 2052 2280 2461 2259 1916 1630 1407 1399 1542 1616 1675 1726 1709 1644 1419 1358 1407 1669 1808 1662 1740 1805 2140 1897 2001 2325 2784 2585 2660 3080 3244 3197 3384 3464 3170 3003 2848 2686
1044 1034 983 1101 1297 1351 1364 1432 1442 1404 1498 1581 1470 1229 1300 1503 1434 1434 1392 1362 1351 1375 1447 1380 1357 1379 1502 1268 1194 1176 1800 2451 2964 3192 3473 3498 3202 3406 3364 2926 2691 2750
969 1003 1068 1128 1090 1128 1210 1275 1260 1248 1287 1404 1384 1406 1432 1219 1138 1271 1420 1245 1164 1126 1137 1124 1184 1014 914 862 834 880 958 1804 2045 2342 2402 2728 2928 2771 2765 2712 2714 2475
845 959 981 1022 1099 1104 1264 1326 1173 1258 1354 1453 1573 1600 1512 1388 1334 1267 1384 1227 1208 1143 1027 795 906 676 707 711 695 639 643 861 1492 1726 1978 2095 2315 2731 2707 2759 2875 2717
755 775 790 856 923 1010 1171 1284 1053 1059 1386 1696 1695 1759 1491 1318 1139 1156 1331 1641 1478 1515 1528 1364 1143 736 626 592 572 515 455 423 1113 1367 1622 1856 2145 2365 2340 2420 2756 2862
716 733 744 767 790 788 842 1096 1208 1262 1167 1237 1302 1321 1366 1347 1234 1090 1064 1392 1234 1225 1202 1155 960 839 785 732 713 655 546 472 681 1047 1207 1533 1906 2252 2619 2506 2481 2658
630 624 635 629 637 634 725 873 1027 1060 1118 1140 1166 1264 1228 1219 1285 1297 1462 1666 1717 1648 1478 1455 1273 983 984 990 984 958 881 809 793 1125 1258 1323 1598 1957 2146 2552 2663 2562
525 556 661 680 658 661 727 855 863 920 911 958 979 1316 1474 1793 1641 1604 1731 1694 1632 1733 1642 1690 1905 1776 1006 976 1007 1028 1025 1002 1000 1194 1432 1501 1518 1757 2041 2176 2144 2231
412 369 371 42 354 571 734 771 809 908 919 979 944 992 1079 1136 1215 1220 1226 1272 1406 1484 1704 1628 1888 1988 1333 1209 1100 920 951 1122 1430 1483 1506 1580 1553 1705 1704 1706 1755 1490
314 340 307 308 193 309 298 786 899 963 925 892 907 936 1028 1110 1192 1241 1214 1273 1277 1365 1394 1525 1655 1576 1344 1240 1257 1219 1157 1168 1233 1368 1392 1438 1393 1396 1302 1207 1238 1066
322 307 348 337 316 349 337 593 744 852 948 812 623 886 992 1067 1059 1065 1072 1067 1108 1148 1165 1254 1311 1204 1252 1272 1248 1295 1298 1254 1224 1337 1311 1325 1431 1433 1516 1751 1640 1663

ECMWFNIL_con_mucape_108.txt.gz
CAPE
1993 2248 2350 2194 2381 2232 2330 2543 2414 2552 2892 2726 2766 2890 2828 3218 3054 3152 3155 3358 3687 3549 4178 4741 4869 4394 3908 3797 4585 3946 3914 4087 3824 3720 3830 3630 3560 3030 2886 2849 2515 2503
2072 2070 2074 2075 2215 2460 2753 2904 2629 2544 2900 3460 3089 3087 3163 3246 3299 3022 3286 3400 3795 3474 4420 4319 4069 4277 4259 3307 4158 3632 4065 3874 3446 3119 3457 3841 3463 3122 2790 2717 2752 3312
2169 2062 2006 2001 1951 2284 2049 2334 2540 2849 2570 2707 2838 3280 3126 2626 3088 2988 3297 3339 3364 3073 3631 4189 4404 4394 3802 3831 4554 3791 3498 3649 3441 2992 3576 3714 3583 3288 3248 2642 2769 3002
2332 2139 1800 1571 1388 1831 1927 2174 2658 2986 2796 2585 2741 2717 2832 2789 2713 3206 3299 3158 3444 3305 3208 3459 3412 3328 3675 3942 4669 3730 3754 3990 3388 3878 3672 3657 3556 3244 3251 2998 2692 2715
2212 2128 1802 1605 1634 1678 2054 2118 2352 2530 2639 2744 2852 3171 3178 3156 3254 3120 3227 3276 3542 3653 3650 3522 3855 3325 3931 4239 4338 3827 3571 3621 3552 3676 3678 3946 3877 3590 3022 3070 3324 3083
2027 2164 2069 1682 1572 2020 2085 2233 2398 2313 2526 2427 2790 2881 2836 3177 3152 3016 2982 3053 3062 2870 2855 2957 3357 3143 3350 3925 3971 3545 2947 2766 2677 3778 3636 3949 3392 2994 2872 3138 3529 3374
1646 1996 1912 1670 1552 1810 2182 2193 2296 2351 2192 2155 2473 2872 2556 2684 2835 2887 2950 2871 2694 2691 2522 2815 3496 3261 2986 3562 3987 4045 3845 3542 3738 4220 3781 3479 3409 3226 2986 3093 3241 3210
1429 1599 1769 1652 1525 1598 1898 1959 2053 2319 2382 2447 2274 2672 2603 2422 2726 2665 2736 2820 2680 2846 2714 3050 3397 3697 3412 3018 3415 3799 3725 3541 3454 3928 3922 3202 3369 3619 3238 2875 2932 3020
1419 1307 1487 1484 1255 1209 1292 1556 1739 2009 2229 2315 2196 2231 2534 2478 2541 2410 2613 2805 2674 2863 3241 3190 3737 3470 3068 3179 3358 3934 3892 3313 2868 3488 3733 3557 3498 3313 2734 3014 2914 2771
1559 1215 1072 1246 1074 985 932 1274 1366 1563 1941 2091 2095 1957 2099 2453 2448 2455 2798 2981 2884 3082 3472 3222 3413 3275 3217 3305 3707 3895 3925 4098 3625 3574 3498 3596 3325 3134 3090 3184 2974 2924
1590 1414 1137 1060 1079 911 838 856 1063 1164 1590 1916 1888 1794 1862 2126 2312 2590 2701 3074 2577 2895 3230 3389 3319 3342 3460 3255 3280 3294 3444 3414 3546 3682 3801 3766 3526 3443 3328 3152 3010 2836
1740 1596 1512 1386 1234 1032 892 877 887 977 1321 1774 1783 1823 1911 1937 2229 2268 2304 2794 2672 2682 2953 3154 3093 3261 3390 3405 2996 2979 3055 3073 3379 3580 3547 3653 3705 3470 3464 3516 3388 3340
2047 1680 1819 1660 1697 1424 1191 1051 908 896 1116 1400 1726 1788 2023 1997 1898 2196 2202 2170 2355 2171 2224 2800 3104 3058 3175 3333 3184 3074 3147 3159 2939 3151 3175 3110 3437 3245 2934 2704 2489 2405
1916 1969 1871 2048 2087 2074 2052 1745 1359 1030 1120 1139 1424 1746 1877 1953 1744 1728 1967 1756 1699 1781 1894 2132 2550 2724 2883 2993 3058 2821 2686 2733 2640 2510 2356 2666 2774 2788 2478 2150 2247 2174
1884 2153 2459 2461 2349 2559 3012 2639 2094 1756 1373 1176 1175 1344 1610 1740 1704 1551 1710 1788 1560 1495 1600 1602 1569 1837 1854 2244 2427 2244 2308 2248 2222 2228 2212 2164 2133 2100 2104 2154 2080 1686
2718 2753 2198 2391 2857 3210 3369 3216 2801 2390 1774 1614 1431 1449 1389 1432 1673 1763 1510 1445 1499 1528 1602 1251 758 767 1365 1790 2154 2010 2263 2050 1965 2077 2150 2013 2007 2122 1871 1812 1776 1774
1781 1951 2223 2489 2468 2114 2611 3331 2730 2527 2102 1953 1922 1811 1738 1552 1525 1487 1351 1041 960 1015 1122 959 313 240 1800 1460 1245 1008 1630 1752 1939 2201 2390 2360 2146 2189 2148 1897 1720 1568
1488 1267 1407 1542 1829 2132 2244 2295 2270 1902 2116 2410 2281 1978 2137 1796 1893 1652 1513 1085 530 462 483 532 474 807 1282 1260 1203 1105 1531 1846 1596 1607 1572 1778 1861 1820 1758 1630 1585 1448
1342 1228 1383 1428 1640 1745 1864 2133 2024 1913 1839 2083 2417 2348 2144 2335 2262 2025 1938 1827 1191 993 924 734 742 1258 1065 998 972 783 720 993 1351 1307 1339 1338 1388 1625 1826 1927 1972 1766
1827 1816 2003 1923 1786 1852 1590 1431 1635 1638 1831 2071 2341 2423 2230 2348 2203 2137 2131 2193 2020 1804 1752 1608 1390 1064 744 697 592 480 486 695 1385 1204 1264 1260 1409 1540 1616 1666 1929 2377
791 1221 1509 1619 1652 1673 1338 910 1004 1306 1501 1937 1963 1907 1958 2155 1997 2018 1988 1965 1987 2088 2118 1814 1676 1152 1076 966 717 471 442 430 1077 1221 1006 1101 1326 1599 1937 1948 1944 1890
687 713 815 921 1023 1233 1128 849 933 817 1002 1201 1450 1785 1771 1712 1893 1764 1863 1988 2146 2310 2264 2087 1337 1007 1052 1006 880 680 645 619 1054 1634 1668 1552 1569 1746 1900 2200 2370 2466
627 623 614 612 619 664 741 680 616 696 746 968 1021 1258 1632 1698 1828 1923 2061 2095 2199 2361 2289 2424 1751 1346 1183 1076 979 841 767 1252 1513 1640 1856 2054 1894 1991 2132 2190 2268 2485
487 476 464 481 448 522 477 450 379 500 543 766 1044 1240 1238 1416 1882 1734 1977 2134 2279 2283 2034 2202 1772 1573 1586 1387 1160 887 857 1640 2166 2234 2089 2226 2240 2221 2272 2309 2535 2548
322 328 301 309 155 56 380 418 400 362 121 504 671 909 974 1066 1541 1816 1671 1833 1752 1763 1905 1667 1597 1323 1350 1367 1280 1198 1172 2048 2040 2411 2440 2480 2296 2256 2544 2563 2602 2472
282 322 320 322 310 4 82 223 237 329 388 399 427 559 647 804 927 978 1430 1492 1515 1432 1164 1405 1375 1381 1276 1290 1295 1227 1185 1450 2594 2644 2589 2499 2610 2479 2452 2421 2296 2394

ECMWFNIL_con_mucape_111.txt.gz
CAPE
2039 1895 2349 2126 2287 2179 2237 2469 2376 2542 2534 1513 1826 2098 1872 2420 2396 2517 2424 2924 3536 3581 4274 4876 4336 3757 3514 3450 5111 3485 3945 4596 3655 3334 3698 3705 3459 3018 2534 2371 2160 2168
1875 2072 2471 2059 2442 2713 2863 2376 2336 1875 2126 2880 2217 2649 2313 2601 2932 2949 2794 3114 3504 3076 4048 4370 3788 3642 4110 3180 3202 3269 4299 4153 3067 2470 3376 3617 2578 2515 2625 2713 2458 2551
2053 1959 2195 2315 2246 2437 2331 2318 2265 2366 2027 2053 2013 2201 2012 2542 2890 2864 3118 3294 2905 2582 3718 4202 3784 4129 2915 3784 4630 3327 3074 2967 3030 2991 3315 3501 3522 3123 3109 2811 2691 2203
2216 1902 1743 1661 1957 1825 1844 2120 2526 2625 1909 1854 2047 1928 2004 1707 1982 2722 3310 3050 3194 2982 2868 3151 3285 2835 3240 3792 3894 2939 3410 4462 3390 3894 3374 3444 3439 3246 3269 3003 2581 2566
2049 1958 1623 1465 1398 1807 1893 1902 2072 1806 2071 2138 1852 1552 2116 2853 1980 2452 2750 2772 3406 3236 3359 3525 3192 3358 3664 3909 3870 2784 3012 3189 2702 4102 3800 3631 3731 3510 2837 2811 3104 3153
2053 1963 1852 1592 1371 1730 1795 1813 1868 942 1560 2044 1877 1402 1902 2646 3003 2539 2452 2758 2600 2864 2723 2969 3210 2788 3335 3312 3872 2857 2454 2164 1918 3216 3622 3704 3025 2304 2531 2798 3403 3105
1965 1881 1662 1513 1494 1385 1784 1752 1793 2013 1445 1801 2015 1891 2094 2357 2656 2720 2822 2679 2579 2372 2383 2219 2633 2434 2554 3136 3314 3197 3471 3297 3670 4026 3551 2785 2940 2852 2754 2891 3329 2968
1183 1501 1596 1400 1172 1098 1375 1644 1877 2019 1967 2124 1813 1857 2320 1720 2479 2546 2598 2772 1950 1770 2308 2246 2958 3135 2736 2710 3245 2916 2689 1632 2992 4193 3936 2888 3330 3643 2975 2773 3206 3394
1015 1234 1314 1039 930 746 702 1176 1646 1717 1901 1884 1806 1636 2173 1909 1677 1902 2070 2190 1934 2341 2173 2372 3149 3136 2892 2720 2859 3426 3029 2830 1820 2790 2835 2694 2636 2614 2755 2855 2322 2564
1109 981 984 1100 745 692 374 746 1059 1367 1480 1778 1599 1091 1490 1674 1791 2101 2070 2709 2692 1992 2229 2606 3271 3324 2759 2672 3030 3526 3485 3032 3081 3029 3285 3314 3142 3160 2984 2601 2568 2924
1259 1137 1072 1015 799 602 510 305 696 968 1214 1534 1266 1265 863 1542 1847 1630 1616 2970 2512 2638 3290 2945 3082 3192 2908 2508 2607 3000 3290 3227 2963 2941 2922 3062 3049 3304 3198 3122 3214 3019
1771 1386 1213 1014 880 797 532 484 488 532 1070 1200 1265 1603 758 1190 1458 1232 1622 2541 2727 2508 2719 2780 2870 3088 3091 3091 2843 2901 2772 2866 3070 3124 2913 3206 2953 2704 2784 2621 2336 2280
1951 1505 1512 1232 973 914 654 584 517 460 597 843 780 883 1096 774 894 1288 1353 1937 2777 2266 2254 2594 3022 3026 3318 3222 3046 2881 2734 2833 2586 2790 2991 2570 2983 2956 2744 2725 2653 2084
1771 1399 1318 1651 1510 1493 1119 813 700 582 593 705 899 730 1099 915 546 996 1299 1705 2080 1867 2313 2611 2938 3068 3083 3656 2836 2799 2667 2910 2951 2780 2695 2835 2422 2258 1564 1869 1641 1425
2264 1908 1566 1639 2106 2245 2117 1494 1282 912 736 834 932 1205 1172 1071 955 978 721 1370 1550 1608 1429 1537 1995 2050 2420 2527 2679 2816 2753 2336 2512 2394 2303 2400 2288 2410 2358 1790 1395 1112
3320 3281 2928 2757 2202 2377 2938 2866 2310 1965 1360 1148 1156 1191 1220 1097 1044 1019 790 941 1302 1706 1448 858 1196 1401 1503 1337 1918 2158 1759 1955 1795 1829 2227 2089 2351 1871 2058 1870 1857 1637
2429 2492 2551 2450 2711 3434 3614 3568 2814 2489 2135 1937 1495 1321 1377 1682 1803 1579 1370 1042 583 739 1421 977 496 692 885 989 1322 1575 1975 2030 1826 1663 1737 2027 1678 2256 2233 1933 1553 1327
1710 1631 1621 1587 1741 1816 2118 2506 3023 3402 2854 2660 2170 1714 1726 1094 1066 1051 1512 977 949 1007 1261 986 790 282 545 921 1194 1293 1735 1434 890 1030 1167 1269 1797 1685 1565 1495 1356 1016
1708 1613 1492 1328 1275 1316 1343 1378 1524 2261 2921 2356 2263 2230 1978 2019 1845 1294 1235 920 685 793 375 293 388 114 358 714 980 1126 1128 1326 513 397 342 428 675 1439 1550 1786 1913 1608
1271 1175 1336 1528 1604 1676 1684 1842 1671 1731 2081 2400 2361 2135 1354 1055 1128 1374 1371 1782 1103 902 1260 434 407 430 516 655 919 801 753 736 961 694 552 389 418 297 469 1301 1981 1947
826 826 857 972 1034 864 996 1116 1050 1889 2530 2472 2828 1720 1632 1187 816 1257 994 1488 1355 1032 1061 686 340 940 874 580 850 626 585 454 992 738 612 506 496 692 938 919 1243 1409
714 765 947 887 799 840 843 975 1178 2351 2960 2927 2016 1640 1494 1805 1619 1188 836 835 1246 1574 965 999 1062 1018 928 893 811 773 695 845 916 1144 1184 1157 960 673 791 1368 1419 1530
517 578 577 617 786 867 916 1001 1142 2079 2121 2146 1597 1040 1019 1010 1324 1524 953 644 755 764 1418 1410 950 893 786 893 1054 1040 976 1089 1197 1067 1160 1217 1169 1303 1238 1101 1138 1454
406 452 455 462 402 361 477 581 743 732 898 1494 1410 967 1013 944 1071 1154 854 716 504 795 697 986 934 1047 1194 915 936 872 915 1305 1741 1708 1514 1278 1070 1208 1152 1293 1415 1486
541 590 532 484 457 454 406 420 422 437 516 1181 1568 1252 1208 1348 1092 954 1203 1142 991 817 978 580 1017 1074 1309 1444 1455 1456 1306 1701 2179 2013 1708 1200 1041 1161 736 1372 1321 2064
467 530 544 500 392 346 307 289 300 338 347 546 283 305 475 619 708 901 1174 886 923 1112 1108 969 797 887 1254 1285 1347 1328 1218 1273 2069 1799 1399 1428 1252 1431 989 1056 900 757

ECMWFNIL_con_mucape_114.txt.gz
CAPE
2669 2263 2152 2851 2992 2952 3000 2524 1888 2777 3310 2750 2448 2387 2458 3567 3400 2704 2873 3668 4304 3984 4486 4964 4825 4686 4338 4746 5194 5096 5494 4934 4055 4042 4138 4402 3676 3199 2628 2607 2822 2679
2618 2527 2763 2236 3050 3386 3451 2926 2806 2862 3311 3570 2670 5054 3385 3035 2871 2789 3051 3258 3841 3396 4585 3932 4405 4040 3775 3776 4268 3876 4911 4714 4344 2630 3631 3697 4182 3553 3192 2970 2204 2570
2202 2450 2050 1837 1632 1850 2075 2515 2676 2391 2551 2436 2418 3634 2853 2454 2514 3718 3282 3516 3558 2652 4336 4203 3928 3917 3534 4248 4357 3733 4085 4503 3690 2816 4146 4502 4177 3859 4075 2922 2202 2487
2297 2070 1599 1404 1344 1724 1599 1903 2404 2900 2118 2457 2457 2149 1953 1988 2372 2656 3183 3531 3526 3343 3893 3982 3624 3222 3496 3948 4896 4228 3625 4128 3378 3835 4022 4580 4762 3814 3114 3456 3358 2234
1810 1885 1658 1600 1513 2394 2111 1991 1700 1911 2011 2192 2121 2494 2753 3316 3136 2554 3010 3306 3600 3108 3647 3365 3487 3419 3754 3759 4102 4039 3600 4200 3709 4946 4416 4316 4707 4129 3215 3158 3418 3109
2232 2119 2258 1890 1861 2122 1857 1965 2099 1796 1842 2232 2236 2040 2154 2338 2638 2012 2325 2657 2578 2348 2198 2651 3054 2994 3072 3776 3950 3648 3065 2910 2709 4102 4252 4084 3418 3201 2473 2768 3197 3027
1598 1814 1349 1226 995 2005 1716 1870 1876 2226 1376 1512 2382 2148 1889 2602 2710 2611 2479 2469 2030 2494 1703 2964 3524 3045 3072 3776 3974 4048 3978 3607 3511 3895 3898 3688 3887 3572 2734 2734 3636 3588
1545 1426 1279 1208 1095 851 1335 1335 1485 2040 1571 1686 1459 1929 1781 1786 2174 2058 2474 2531 2285 2036 2465 2847 3200 3465 2433 2970 3536 3708 3438 2685 2977 4017 4159 3961 3763 3637 3490 2816 3067 3905
1116 1318 1219 1190 930 738 783 846 1054 1348 1832 1648 1391 1476 1736 1707 1859 1870 2703 2986 2916 2690 3024 2828 3066 2727 2671 2778 3218 3564 3222 2483 2184 3686 3950 3664 3210 3392 3272 3360 3194 3373
898 768 916 868 670 618 584 588 668 944 1675 1772 1673 1393 1427 2162 1845 2325 3423 3557 3078 3014 2835 2870 2822 3002 2712 2699 3234 3379 3226 3260 3382 3295 3226 3213 3052 2814 2498 2915 2698 3139
402 496 566 724 600 446 354 351 401 551 1161 1378 1477 1333 1387 1714 2170 2156 3114 3071 2480 2478 2814 3109 2770 3260 3277 2338 2366 2644 3030 2838 3178 3363 3024 3306 3464 3208 2963 3424 3269 2816
780 446 368 442 559 450 314 277 294 298 485 1148 1400 1776 1695 1538 1609 1686 2292 2532 2493 2769 2751 3064 3442 3362 3492 3262 2247 2164 2924 2823 3121 3314 3100 3278 3151 2863 3176 3158 2922 3206
1408 1416 1007 388 701 523 404 264 248 240 253 582 1119 1625 1434 1421 1473 1826 1945 1876 2538 2891 2697 3166 3271 2812 3340 3596 3149 2823 2882 2864 2520 3046 3178 3204 2944 2664 2482 2214 2370 2326
1270 727 912 1558 1904 1761 1478 528 226 170 173 500 1484 1409 1264 1392 1344 1179 1260 1739 2040 2408 2664 2763 3144 2928 3360 3369 3035 2882 2812 2734 2959 2888 2986 2799 2202 2882 2792 2391 2450 2331
2966 2639 2320 2683 2617 3039 3278 2265 1393 710 891 941 1068 1215 1133 889 925 964 1115 1483 1544 2171 2550 2463 2041 2501 2785 2613 2719 2897 2320 2716 2679 2960 2690 2609 2342 2536 2440 2606 2414 1902
3707 3450 4292 4390 3987 2946 2671 2960 2179 1992 1306 742 935 1243 1331 1609 1430 1260 927 1095 1365 2033 2286 1898 1709 1757 2509 2149 2048 2880 2697 2061 2332 2726 2956 3201 3053 2865 2501 2321 1940 1494
3220 3658 3663 3497 3014 3043 3988 3970 3787 3422 2877 1978 1726 2002 2418 1714 1544 1484 565 1157 1190 1437 1786 1735 1387 1148 1691 1795 1504 1809 2265 2647 2728 3394 3174 3183 2856 3011 3128 2681 2156 1769
2992 2776 2710 2333 1922 2481 2220 2507 2814 2946 3335 2936 2674 2466 1971 1284 1378 1126 1386 1020 881 832 1052 1064 1340 1124 880 711 1212 1612 2113 2367 1872 1511 1392 2025 2484 2187 2361 2088 1695 1236
2097 2022 1947 1921 1948 1997 2131 2431 2459 2473 2274 2673 2728 2452 1864 1724 1745 1781 1653 1654 1565 973 776 665 1325 1216 832 488 719 1232 1195 1899 1075 671 331 335 1366 2544 1989 1970 2842 3192
1717 1670 1625 1324 1339 1443 2004 2044 2031 2029 1840 3067 2900 2207 1522 1474 1470 1720 1850 1849 1702 1602 2002 1311 616 559 442 397 276 453 712 1183 1494 642 458 367 975 1147 744 1105 2278 1917
1330 1546 1512 1355 1500 1724 1968 2076 2333 2470 1916 2651 2390 1928 2180 2229 2173 2350 1957 1319 1030 882 978 813 508 262 476 491 333 270 555 1052 1571 997 685 663 780 1219 1723 1328 1220 1563
990 1008 864 812 882 1138 1254 1361 1412 1312 1267 1316 2067 2344 2275 2316 2254 1943 1476 1328 1314 1087 555 570 421 349 441 429 367 500 834 1320 1546 1696 1499 1114 1030 1154 1488 2160 1948 1159
783 727 734 759 737 768 813 802 760 762 912 1126 1136 1485 1612 1952 2104 1543 1342 1212 1037 1127 1089 673 412 418 506 702 676 734 528 1482 1882 1884 2053 1662 1439 1932 2700 1383 1584 2314
623 617 662 624 655 734 770 778 794 745 736 826 1157 1281 1270 1453 1466 1326 1103 1062 1016 1032 983 583 426 624 901 742 824 832 901 1478 2464 3044 2477 2810 2434 2326 2113 1695 1603 2238
450 470 436 453 444 525 585 641 683 683 742 866 919 893 997 936 1034 902 810 914 947 1156 938 664 594 651 950 1048 1037 1040 1031 1613 2847 2802 2575 2685 2476 2130 1762 1887 1618 1454
430 435 404 352 362 364 480 509 456 671 742 834 876 894 590 584 612 634 657 685 828 951 1017 710 508 568 686 1152 1311 1320 1368 1437 2432 2218 2136 2058 2216 1950 1876 1528 1358 1281

ECMWFNIL_con_mucape_117.txt.gz
CAPE
2210 2013 1804 1845 2482 2542 2456 2577 2927 2571 2805 2810 2237 2377 2220 2444 2785 2447 3003 3507 3647 3278 4206 4108 4073 4252 4522 4205 3958 4715 4040 3373 3402 3122 3895 4039 3427 3322 3219 2942 2722 2373
1974 2140 2720 1964 2361 2694 2100 2599 2722 2758 2790 2563 2253 2375 2179 2834 3205 2659 2985 3380 3873 3670 3438 4340 4383 4312 4318 4237 4188 4532 4671 4579 4103 4161 3580 3368 3800 3857 3463 3133 2843 2691
2114 2024 2432 2237 2540 2534 2660 2312 2594 2525 2632 2694 2760 3280 2679 2807 2571 2506 2483 3049 3663 3572 3642 3944 4228 3799 3511 3615 3913 3675 4238 3973 3710 2947 3276 3210 3752 3899 3572 3087 2884 2910
2055 1938 2247 1940 2194 2438 2141 2452 2321 2375 2237 2430 2504 2760 2505 2486 2084 2375 2712 3646 3109 3082 3440 3729 3660 3555 3299 3922 3438 3510 3610 3648 3614 3664 3400 4116 3964 4197 3644 3162 3152 2984
1910 1850 1920 1700 1730 1999 1964 2191 2226 2181 1987 2313 1762 1999 2209 3104 2372 2696 2935 2850 2930 3125 3444 3564 3482 3249 3024 3568 3436 3754 3483 3504 3110 3695 3389 3890 4159 4065 3602 3015 2483 2692
1797 1660 1692 1451 1361 1537 1896 1497 1986 2124 1745 2179 1838 2315 1940 2572 2344 2415 2821 2894 3140 3006 3640 3524 3449 3352 3298 3416 3634 3603 3336 3602 3313 4097 3376 3544 3523 3210 2856 2835 2834 2843
1698 1584 1816 1703 2215 1833 1767 1703 1770 1814 1682 1820 2028 2018 1906 1979 1966 2016 2216 2670 2552 2626 2452 2812 2873 2962 3004 2931 3430 3375 2969 3241 3132 3250 3628 3437 3432 3193 3304 3150 2805 2766
1771 1515 1628 1478 1696 1801 1532 1828 1816 1888 1771 1618 1846 1886 1913 1754 2562 2185 2222 2181 2254 2250 2264 2170 2638 2804 2810 2886 3240 3214 3181 3320 2992 3336 3143 3283 3271 3374 3350 3120 2944 3265
1761 1546 1439 1331 1228 1785 1494 1517 1643 1699 1656 1575 1482 1962 1894 1995 2116 2326 2161 2077 2134 2171 1933 2554 2546 2730 2831 2663 3061 3203 3210 2975 2592 3222 3076 3134 3317 3236 3058 2838 2786 2761
1711 1614 1333 1360 1263 1245 1397 1343 1343 1406 1502 1244 1564 1814 1606 1719 1952 1879 2228 2069 2266 2323 2771 2624 2516 2519 2499 2356 2511 2870 3041 2935 2562 3116 3232 3356 3311 3173 2833 2652 2765 2635
1496 1606 1537 1384 1210 1170 932 1050 1166 1314 1484 1229 1172 1203 1488 1374 1866 2056 2931 2826 2676 2620 2488 2484 2586 2461 2420 2450 2384 2639 2832 2821 2640 2779 3178 3326 3248 2961 3749 3131 2592 2153
1189 1312 1426 1368 1243 1105 914 749 676 1134 1570 1520 1371 1322 1371 1407 1839 1856 2923 2523 2414 2430 2463 2228 2301 2538 2561 2729 2583 2331 2657 2718 2720 2989 2734 2347 2420 2580 2684 2902 3040 2996
970 1064 1101 1148 1124 977 708 607 582 491 1232 1682 1645 1532 1459 1580 1760 1698 2302 2386 2146 2215 2420 2526 2424 2654 2768 2828 2868 2647 2268 2646 2706 2779 2918 2692 2551 2476 2597 2634 2670 2612
1525 1466 1313 778 988 860 685 504 379 306 401 1501 1610 1455 1496 1424 1480 1539 1763 2115 2096 2030 2190 2462 2826 2867 2790 2980 3070 2825 2624 2468 2445 2548 2827 2903 2774 2614 2477 2546 2502 2375
1903 1955 2785 3674 2823 2102 1914 2131 2557 1259 905 974 1333 1514 1412 1371 1284 1329 1478 1661 1764 1929 2222 2444 2574 2708 2740 2941 3053 2925 2746 2580 2462 2417 2559 2458 2358 2270 2166 2136 2418 2471
1889 3199 3251 2596 2714 3164 3318 3200 2911 2651 1891 1491 1694 1505 1322 1270 1314 1316 1317 1388 1432 1661 1987 2415 2202 2019 1990 2120 2800 2633 2394 2105 2023 2191 2284 2409 2298 2144 2051 2124 2161 2138
1422 2374 2836 2201 2187 2281 2301 2588 2923 3025 2720 2173 1614 1410 1348 1229 1270 1272 1205 1063 997 1308 1560 1816 1843 1734 1583 1259 1907 2473 2542 1854 1538 1624 2156 2519 2659 2454 2201 2395 2444 2149
1479 1895 2677 2270 1836 1860 1917 1920 2145 2389 2692 2414 2294 1673 1306 1560 1149 928 910 878 1095 1070 1179 1341 1449 1516 1271 1161 1372 1744 1901 1817 1681 1590 2472 2378 2319 2186 2136 2192 2026 1808
1876 1989 2280 2334 2041 1955 1697 1747 1880 1918 2039 2258 2329 1811 1504 1421 1696 1582 1367 1034 733 740 841 930 918 764 808 986 1134 1074 1093 1354 1511 1714 1864 1806 1908 1900 1771 1678 1644 1624
1666 1779 1973 2058 2159 2072 1899 1655 1732 1919 1882 1839 2631 1842 1595 1453 1541 1417 1082 1184 1515 1336 984 607 573 623 726 783 823 897 618 650 1052 1634 1586 1042 498 755 1189 1228 1423 1867
1822 1645 1519 1418 1561 1627 1914 1857 1719 1684 1808 2265 2141 1666 1674 1628 1668 1918 1509 1119 930 882 863 834 686 676 679 603 771 887 752 461 619 1152 1275 1001 1094 933 1385 1039 746 870
1312 1445 1527 1397 1286 1267 1258 1498 1655 1845 1796 1752 1721 1670 2036 2428 2248 2065 1712 1405 1178 943 882 878 842 854 821 785 498 321 379 393 225 806 1065 892 874 1268 1051 1471 1311 1231
990 990 1063 1109 1078 985 936 939 1020 1043 1137 1470 1487 1474 1629 1877 1978 1707 1469 1330 1223 1148 1120 1070 952 854 878 955 929 438 504 1506 1675 1512 1481 1501 1875 1620 1404 1845 2124 1367
958 952 901 878 846 857 807 821 787 772 746 922 1057 1018 1214 1205 1582 1526 1403 1248 1224 1149 988 927 1026 983 827 626 526 450 633 1701 2368 2367 2411 2216 2072 1897 1582 1437 2268 2927
813 800 839 848 853 848 802 756 716 750 751 764 752 748 882 1092 1334 1354 1242 1176 1153 1052 1229 815 824 841 825 651 444 546 951 1725 2426 2333 2389 2226 1927 1731 1604 1375 1315 1487
138 433 447 575 682 715 698 735 729 753 799 807 761 789 814 776 832 926 1002 974 926 890 839 778 780 786 724 600 567 673 939 1608 1918 1718 1854 1919 1806 1602 1626 1344 1228 1129

ECMWFNIL_con_mucape_120.txt.gz
CAPE
1563 2014 2016 1694 1651 1413 1611 1725 2369 2258 2336 2150 1991 2233 2465 2003 1858 2106 2475 2560 2581 2580 2918 3011 3214 3133 3231 3084 3285 3916 3976 2896 2821 2712 3099 3507 3206 3489 3303 3078 2865 2738
1282 1701 1973 1743 2013 2230 1882 1766 2346 2360 2295 2500 2103 2200 2266 2263 2334 2043 2458 2702 3130 2715 3172 3287 3089 3319 3409 3480 3332 3805 4050 3466 3047 4383 3497 3081 3225 3038 2932 3150 2744 2523
1501 1586 1691 1666 1916 2127 1911 1976 2302 2323 2350 2368 2261 2099 2095 2199 2530 2285 2473 2807 3169 3054 3059 3628 3495 3580 3630 3768 3553 3774 4154 3694 3404 3064 3342 3146 2480 2727 3187 3248 2664 2535
1606 1578 1560 1494 1847 2100 1855 2112 2248 2312 2387 2413 2316 2107 1933 2327 2315 2389 2447 3800 2987 3218 3122 3342 3828 3764 3740 3768 3571 3495 3787 3665 3284 3146 3159 3651 3781 3580 3460 3011 2855 2344
1678 1688 1616 1420 1701 2096 1941 2078 2250 2385 2300 2310 2316 2371 2339 2330 2184 2246 2328 2950 3002 3042 3245 3237 3430 3639 3524 3249 3294 3324 3165 3213 3336 3158 2929 2782 2957 3742 3488 3207 2713 2260
1449 1751 1776 1491 1680 1878 1979 2014 2121 2326 2278 2220 2201 2350 2380 2276 2163 2077 2100 2245 2639 2905 3051 3195 3254 3292 3209 3031 3121 3062 3010 3078 3173 3080 2868 2815 2893 3394 3297 2794 2494 2523
1419 1568 1806 1542 1743 1771 1842 1930 2006 2038 2152 2208 2212 2056 2004 2275 2159 2029 2069 2202 2236 2467 2840 2979 3072 3184 3188 3059 2962 2928 2967 2990 3070 3046 3161 3036 2920 2916 2894 3012 3015 2814
1431 1576 1634 1601 1519 1595 1752 1778 1877 1963 1973 1922 1768 1702 1614 1760 2085 2100 2208 2426 2304 2379 2505 2939 3001 3034 3110 3014 3007 2977 2904 2843 2826 2883 2971 3024 3087 3017 2926 3004 3091 2972
1497 1495 1522 1621 1553 1475 1505 1622 1688 1914 1899 1711 1704 1665 1689 1500 1685 1931 2100 2413 2452 2347 2424 2658 2892 2934 2925 2875 2825 2878 2901 2886 2830 2793 2807 2758 2840 2920 2866 2818 2708 2445
1512 1485 1459 1443 1490 1603 1444 1384 1579 1695 1714 1665 1665 1687 1751 1662 1475 1626 1663 1842 2131 2315 2341 2274 2260 2448 2577 2657 2683 2695 2732 2735 2765 2704 2582 2500 2500 2568 2648 2710 2608 2412
1554 1489 1430 1374 1418 1514 1680 1625 1486 1492 1736 1683 1771 1705 1697 1671 1582 1642 1728 1715 1767 1921 2054 2041 2055 2146 2325 2481 2514 2567 2683 2728 2747 2678 2572 2664 2696 2693 3338 2759 2789 2679
1755 1675 1441 1340 1374 1466 1481 1664 1641 1511 1671 1789 1783 1695 1568 1631 1661 1609 1770 1840 1789 1776 1834 2091 2184 2152 2171 2265 2314 2300 2406 2537 2602 2577 2490 2610 2796 2886 2922 3041 2869 2640
1916 1819 1608 1396 1290 1331 1302 1358 1509 1298 1256 1446 1601 1574 1467 1570 1642 1643 2147 2061 1987 1976 2024 2046 2150 2218 2149 2039 2068 2107 2164 2267 2365 2400 2395 2389 2443 2567 2619 2424 2112 2115
1902 1791 1987 1653 1352 1257 1218 1147 1143 1233 1141 1142 1222 1280 1357 1544 1568 1510 1931 2270 2224 2131 2143 2137 2062 1974 2074 2139 2167 2295 2301 2314 2103 2306 2474 2568 2590 2527 2451 2272 2272 2373
1364 1670 1956 1982 2192 1289 1253 1206 1175 1089 982 1081 1194 1154 1162 1192 1214 1367 1485 2064 2152 2145 2111 2130 2160 2103 2215 2296 2491 2553 2432 2354 2294 2236 2298 2218 2348 2505 2531 2463 2413 2252
1374 1674 1805 2386 2119 2089 2066 2013 1775 1432 780 813 1303 1323 1260 1266 1307 1364 1452 1713 1883 1886 1852 1909 2234 2334 2358 2330 2337 2511 2626 2555 2411 2294 2170 2080 2253 2275 2240 2144 1937 1795
1656 2012 2128 2148 2263 2266 2370 2450 2214 1759 1121 891 1176 1397 1387 1450 1458 1441 1508 1589 1690 1771 1820 1866 1981 2058 2229 2237 2096 1914 2134 2190 2271 2296 2141 2178 2228 2225 2166 2081 1906 1842
1422 1906 2126 2032 2055 2193 2242 2352 2173 1838 1364 1140 1281 1418 1513 1544 1527 1413 1411 1394 1410 1538 1613 1781 1888 1911 1956 1969 1794 1648 1738 1878 1965 2054 1998 1754 1712 1793 1884 1935 1866 1774
1041 1033 1409 2076 2029 1862 1951 2018 2177 2137 2071 1631 1152 1295 1397 1460 1434 1380 1350 1302 1320 1315 1413 1568 1776 1915 1956 1881 1665 1504 1419 1557 1749 1915 1939 1752 1652 1790 1860 1850 1768 1714
1260 1070 1200 1384 1887 2013 1822 1728 1688 1832 2077 2031 1819 1440 1208 1315 1271 1299 1306 1340 1334 1287 1192 1309 1442 1542 1552 1540 1491 1309 1154 1221 1452 1718 1827 1740 1568 1583 1751 1731 1640 1459
1554 1616 1570 1592 1728 1991 2099 2016 1717 1477 1576 1740 2066 1843 1396 970 1057 1064 1043 1180 1159 1151 1040 924 914 988 1061 1099 1114 1009 935 1004 994 875 875 1338 1449 1450 1382 1163 1196 1370
1303 1518 1542 1542 1610 1613 1659 1771 1924 1664 1463 1758 1742 1617 1352 1170 890 693 910 1097 1016 849 899 791 608 659 738 749 636 623 754 924 953 792 586 842 1117 1246 1186 826 708 1052
961 1215 1380 1464 1383 1298 1164 1147 1143 1335 1452 1355 1477 1482 1429 1370 1205 1128 1015 946 963 1174 1034 893 873 850 813 755 671 578 524 631 760 790 798 673 956 1108 1166 1148 1054 1221
692 762 907 1085 1105 953 931 877 847 821 791 747 891 1156 1352 1399 1321 1207 1159 994 1149 1269 1231 1205 1105 1014 957 914 875 840 807 787 726 564 507 689 1199 1259 1732 1980 2096 2116
516 479 483 543 590 615 623 636 660 684 656 649 689 713 619 693 900 1177 1256 1159 1123 1254 1161 1180 1094 1051 1029 1016 972 967 938 1044 1834 1586 1555 1431 1250 1228 1568 2283 2430 1912
549 511 498 545 570 637 664 690 675 662 662 633 650 662 664 718 838 822 738 756 848 928 952 842 838 792 789 782 817 808 883 1039 1914 1924 1751 1595 1473 1365 1286 1236 1225 1162